<?xml version="1.0" encoding="UTF-8" standalone="no" ?>
<gpx xmlns="http://www.topografix.com/GPX/1/1" xmlns:xsi="http://www.w3.org/2001/XMLSchema-instance" xsi:schemaLocation="http://www.topografix.com/GPX/1/1 http://www.topografix.com/GPX/1/1/gpx.xsd" version="1.1" creator="VisuGPX - https://www.visugpx.com">
  <metadata>
    <name>RANDO LAVOÛTE POLIGNAC LE PUY 34 KM</name>
    <desc><![CDATA[RANDO LAVOUTE SUR LOIRE POLIGNAC 34 KM.DEPART ARRIVEE EGLISE DE LAVOUTE.RACHAT.CHANCEAUX.POLIGNAC.LE PUY.BRIVES CHARENSAC.FAY LA TRIOULEYRE.CHASPINHAC.BRESTILLAC]]></desc>
  </metadata>
  <trk>
    <name><![CDATA[2026-03-05 17:30:51]]></name>
    <extensions>
      <line xmlns="http://www.topografix.com/GPX/gpx_style/0/2">
        <color>0000FF</color>
        <opacity>1</opacity>
        <width>4</width>
      </line>
    </extensions>
    <trkseg>
      <trkpt lat="45.11917" lon="3.90676">
        <ele>559.62</ele>
        <time>2026-03-05T08:13:43Z</time>
      </trkpt>
      <trkpt lat="45.11939" lon="3.9068">
        <ele>560.11</ele>
        <time>2026-03-05T08:14:07Z</time>
      </trkpt>
      <trkpt lat="45.11962" lon="3.90678">
        <ele>566.35</ele>
        <time>2026-03-05T08:14:24Z</time>
      </trkpt>
      <trkpt lat="45.11964" lon="3.9068">
        <ele>565.87</ele>
        <time>2026-03-05T08:14:26Z</time>
      </trkpt>
      <trkpt lat="45.11967" lon="3.9068">
        <ele>565.39</ele>
        <time>2026-03-05T08:14:28Z</time>
      </trkpt>
      <trkpt lat="45.11983" lon="3.90687">
        <ele>564.43</ele>
        <time>2026-03-05T08:14:47Z</time>
      </trkpt>
      <trkpt lat="45.11983" lon="3.90682">
        <ele>564.91</ele>
        <time>2026-03-05T08:14:54Z</time>
      </trkpt>
      <trkpt lat="45.12006" lon="3.90679">
        <ele>565.87</ele>
        <time>2026-03-05T08:15:16Z</time>
      </trkpt>
      <trkpt lat="45.12039" lon="3.90684">
        <ele>573.56</ele>
        <time>2026-03-05T08:15:39Z</time>
      </trkpt>
      <trkpt lat="45.1207" lon="3.90692">
        <ele>579.81</ele>
        <time>2026-03-05T08:15:59Z</time>
      </trkpt>
      <trkpt lat="45.12076" lon="3.9069">
        <ele>581.25</ele>
        <time>2026-03-05T08:16:03Z</time>
      </trkpt>
      <trkpt lat="45.12076" lon="3.90677">
        <ele>578.85</ele>
        <time>2026-03-05T08:16:11Z</time>
      </trkpt>
      <trkpt lat="45.12085" lon="3.90646">
        <ele>573.56</ele>
        <time>2026-03-05T08:16:27Z</time>
      </trkpt>
      <trkpt lat="45.12088" lon="3.90629">
        <ele>570.68</ele>
        <time>2026-03-05T08:16:35Z</time>
      </trkpt>
      <trkpt lat="45.12082" lon="3.90599">
        <ele>567.32</ele>
        <time>2026-03-05T08:16:50Z</time>
      </trkpt>
      <trkpt lat="45.12081" lon="3.90554">
        <ele>562.51</ele>
        <time>2026-03-05T08:17:14Z</time>
      </trkpt>
      <trkpt lat="45.12081" lon="3.90513">
        <ele>558.66</ele>
        <time>2026-03-05T08:17:37Z</time>
      </trkpt>
      <trkpt lat="45.12082" lon="3.90511">
        <ele>558.18</ele>
        <time>2026-03-05T08:17:38Z</time>
      </trkpt>
      <trkpt lat="45.12082" lon="3.90509">
        <ele>558.18</ele>
        <time>2026-03-05T08:17:39Z</time>
      </trkpt>
      <trkpt lat="45.12083" lon="3.90507">
        <ele>557.7</ele>
        <time>2026-03-05T08:17:40Z</time>
      </trkpt>
      <trkpt lat="45.12083" lon="3.90505">
        <ele>557.7</ele>
        <time>2026-03-05T08:17:41Z</time>
      </trkpt>
      <trkpt lat="45.12084" lon="3.90502">
        <ele>557.22</ele>
        <time>2026-03-05T08:17:42Z</time>
      </trkpt>
      <trkpt lat="45.1209" lon="3.90457">
        <ele>556.74</ele>
        <time>2026-03-05T08:18:03Z</time>
      </trkpt>
      <trkpt lat="45.12091" lon="3.90452">
        <ele>556.26</ele>
        <time>2026-03-05T08:18:06Z</time>
      </trkpt>
      <trkpt lat="45.12093" lon="3.9042">
        <ele>559.14</ele>
        <time>2026-03-05T08:18:23Z</time>
      </trkpt>
      <trkpt lat="45.12094" lon="3.90386">
        <ele>562.03</ele>
        <time>2026-03-05T08:18:40Z</time>
      </trkpt>
      <trkpt lat="45.12098" lon="3.90365">
        <ele>561.55</ele>
        <time>2026-03-05T08:18:51Z</time>
      </trkpt>
      <trkpt lat="45.12116" lon="3.90316">
        <ele>562.99</ele>
        <time>2026-03-05T08:19:16Z</time>
      </trkpt>
      <trkpt lat="45.12117" lon="3.90301">
        <ele>562.51</ele>
        <time>2026-03-05T08:19:26Z</time>
      </trkpt>
      <trkpt lat="45.12115" lon="3.90259">
        <ele>564.91</ele>
        <time>2026-03-05T08:19:46Z</time>
      </trkpt>
      <trkpt lat="45.12121" lon="3.90234">
        <ele>566.35</ele>
        <time>2026-03-05T08:19:57Z</time>
      </trkpt>
      <trkpt lat="45.12128" lon="3.90228">
        <ele>567.32</ele>
        <time>2026-03-05T08:20:05Z</time>
      </trkpt>
      <trkpt lat="45.12142" lon="3.90211">
        <ele>566.83</ele>
        <time>2026-03-05T08:20:15Z</time>
      </trkpt>
      <trkpt lat="45.12144" lon="3.90211">
        <ele>566.83</ele>
        <time>2026-03-05T08:20:16Z</time>
      </trkpt>
      <trkpt lat="45.12145" lon="3.9021">
        <ele>566.83</ele>
        <time>2026-03-05T08:20:17Z</time>
      </trkpt>
      <trkpt lat="45.12164" lon="3.90205">
        <ele>565.39</ele>
        <time>2026-03-05T08:20:34Z</time>
      </trkpt>
      <trkpt lat="45.12165" lon="3.90205">
        <ele>565.39</ele>
        <time>2026-03-05T08:20:35Z</time>
      </trkpt>
      <trkpt lat="45.12166" lon="3.90203">
        <ele>564.91</ele>
        <time>2026-03-05T08:20:37Z</time>
      </trkpt>
      <trkpt lat="45.12167" lon="3.90199">
        <ele>564.91</ele>
        <time>2026-03-05T08:20:39Z</time>
      </trkpt>
      <trkpt lat="45.12168" lon="3.90197">
        <ele>564.91</ele>
        <time>2026-03-05T08:20:40Z</time>
      </trkpt>
      <trkpt lat="45.1217" lon="3.90184">
        <ele>566.35</ele>
        <time>2026-03-05T08:20:49Z</time>
      </trkpt>
      <trkpt lat="45.12158" lon="3.90144">
        <ele>569.72</ele>
        <time>2026-03-05T08:21:10Z</time>
      </trkpt>
      <trkpt lat="45.12148" lon="3.90103">
        <ele>569.72</ele>
        <time>2026-03-05T08:21:34Z</time>
      </trkpt>
      <trkpt lat="45.12132" lon="3.90063">
        <ele>567.8</ele>
        <time>2026-03-05T08:21:57Z</time>
      </trkpt>
      <trkpt lat="45.12117" lon="3.90025">
        <ele>572.12</ele>
        <time>2026-03-05T08:22:16Z</time>
      </trkpt>
      <trkpt lat="45.12108" lon="3.90009">
        <ele>571.64</ele>
        <time>2026-03-05T08:22:30Z</time>
      </trkpt>
      <trkpt lat="45.12085" lon="3.89975">
        <ele>571.64</ele>
        <time>2026-03-05T08:22:50Z</time>
      </trkpt>
      <trkpt lat="45.1206" lon="3.89945">
        <ele>570.68</ele>
        <time>2026-03-05T08:23:13Z</time>
      </trkpt>
      <trkpt lat="45.12033" lon="3.8992">
        <ele>562.99</ele>
        <time>2026-03-05T08:23:36Z</time>
      </trkpt>
      <trkpt lat="45.12008" lon="3.89896">
        <ele>553.86</ele>
        <time>2026-03-05T08:24:00Z</time>
      </trkpt>
      <trkpt lat="45.12005" lon="3.89889">
        <ele>552.41</ele>
        <time>2026-03-05T08:24:05Z</time>
      </trkpt>
      <trkpt lat="45.12" lon="3.89845">
        <ele>549.53</ele>
        <time>2026-03-05T08:24:25Z</time>
      </trkpt>
      <trkpt lat="45.12007" lon="3.89809">
        <ele>552.9</ele>
        <time>2026-03-05T08:24:44Z</time>
      </trkpt>
      <trkpt lat="45.1201" lon="3.89804">
        <ele>551.45</ele>
        <time>2026-03-05T08:25:00Z</time>
      </trkpt>
      <trkpt lat="45.12011" lon="3.89802">
        <ele>551.45</ele>
        <time>2026-03-05T08:25:01Z</time>
      </trkpt>
      <trkpt lat="45.12011" lon="3.898">
        <ele>551.45</ele>
        <time>2026-03-05T08:25:02Z</time>
      </trkpt>
      <trkpt lat="45.12011" lon="3.89798">
        <ele>551.45</ele>
        <time>2026-03-05T08:25:03Z</time>
      </trkpt>
      <trkpt lat="45.12012" lon="3.89796">
        <ele>551.45</ele>
        <time>2026-03-05T08:25:04Z</time>
      </trkpt>
      <trkpt lat="45.12018" lon="3.8975">
        <ele>555.3</ele>
        <time>2026-03-05T08:25:28Z</time>
      </trkpt>
      <trkpt lat="45.12023" lon="3.897">
        <ele>558.18</ele>
        <time>2026-03-05T08:25:51Z</time>
      </trkpt>
      <trkpt lat="45.12031" lon="3.89652">
        <ele>559.14</ele>
        <time>2026-03-05T08:26:12Z</time>
      </trkpt>
      <trkpt lat="45.12033" lon="3.89609">
        <ele>559.62</ele>
        <time>2026-03-05T08:26:35Z</time>
      </trkpt>
      <trkpt lat="45.12046" lon="3.8955">
        <ele>562.03</ele>
        <time>2026-03-05T08:27:02Z</time>
      </trkpt>
      <trkpt lat="45.12056" lon="3.89509">
        <ele>559.14</ele>
        <time>2026-03-05T08:27:22Z</time>
      </trkpt>
      <trkpt lat="45.12068" lon="3.89461">
        <ele>559.14</ele>
        <time>2026-03-05T08:27:46Z</time>
      </trkpt>
      <trkpt lat="45.12071" lon="3.89455">
        <ele>559.14</ele>
        <time>2026-03-05T08:27:49Z</time>
      </trkpt>
      <trkpt lat="45.12072" lon="3.89453">
        <ele>559.14</ele>
        <time>2026-03-05T08:27:50Z</time>
      </trkpt>
      <trkpt lat="45.12083" lon="3.89414">
        <ele>563.95</ele>
        <time>2026-03-05T08:28:11Z</time>
      </trkpt>
      <trkpt lat="45.12083" lon="3.89412">
        <ele>564.43</ele>
        <time>2026-03-05T08:28:12Z</time>
      </trkpt>
      <trkpt lat="45.1208" lon="3.89359">
        <ele>565.39</ele>
        <time>2026-03-05T08:28:36Z</time>
      </trkpt>
      <trkpt lat="45.12085" lon="3.89322">
        <ele>567.8</ele>
        <time>2026-03-05T08:28:56Z</time>
      </trkpt>
      <trkpt lat="45.1208" lon="3.89293">
        <ele>569.24</ele>
        <time>2026-03-05T08:29:12Z</time>
      </trkpt>
      <trkpt lat="45.1207" lon="3.89249">
        <ele>573.56</ele>
        <time>2026-03-05T08:29:38Z</time>
      </trkpt>
      <trkpt lat="45.12067" lon="3.89228">
        <ele>574.04</ele>
        <time>2026-03-05T08:29:49Z</time>
      </trkpt>
      <trkpt lat="45.12036" lon="3.89188">
        <ele>575.49</ele>
        <time>2026-03-05T08:30:16Z</time>
      </trkpt>
      <trkpt lat="45.12018" lon="3.89159">
        <ele>578.37</ele>
        <time>2026-03-05T08:30:37Z</time>
      </trkpt>
      <trkpt lat="45.11996" lon="3.89131">
        <ele>581.25</ele>
        <time>2026-03-05T08:31:02Z</time>
      </trkpt>
      <trkpt lat="45.11987" lon="3.89111">
        <ele>582.22</ele>
        <time>2026-03-05T08:31:26Z</time>
      </trkpt>
      <trkpt lat="45.11959" lon="3.89082">
        <ele>580.29</ele>
        <time>2026-03-05T08:31:51Z</time>
      </trkpt>
      <trkpt lat="45.11943" lon="3.89047">
        <ele>578.85</ele>
        <time>2026-03-05T08:32:13Z</time>
      </trkpt>
      <trkpt lat="45.11943" lon="3.89022">
        <ele>579.33</ele>
        <time>2026-03-05T08:32:36Z</time>
      </trkpt>
      <trkpt lat="45.11946" lon="3.89003">
        <ele>582.7</ele>
        <time>2026-03-05T08:32:56Z</time>
      </trkpt>
      <trkpt lat="45.11918" lon="3.89009">
        <ele>597.6</ele>
        <time>2026-03-05T08:33:22Z</time>
      </trkpt>
      <trkpt lat="45.11916" lon="3.89006">
        <ele>601.92</ele>
        <time>2026-03-05T08:33:40Z</time>
      </trkpt>
      <trkpt lat="45.11935" lon="3.88989">
        <ele>614.42</ele>
        <time>2026-03-05T08:34:02Z</time>
      </trkpt>
      <trkpt lat="45.11932" lon="3.88972">
        <ele>616.82</ele>
        <time>2026-03-05T08:34:20Z</time>
      </trkpt>
      <trkpt lat="45.11911" lon="3.88972">
        <ele>621.15</ele>
        <time>2026-03-05T08:34:38Z</time>
      </trkpt>
      <trkpt lat="45.11897" lon="3.88963">
        <ele>624.51</ele>
        <time>2026-03-05T08:35:00Z</time>
      </trkpt>
      <trkpt lat="45.11905" lon="3.88952">
        <ele>625.47</ele>
        <time>2026-03-05T08:35:20Z</time>
      </trkpt>
      <trkpt lat="45.11921" lon="3.88938">
        <ele>633.17</ele>
        <time>2026-03-05T08:35:48Z</time>
      </trkpt>
      <trkpt lat="45.11942" lon="3.88919">
        <ele>638.45</ele>
        <time>2026-03-05T08:36:11Z</time>
      </trkpt>
      <trkpt lat="45.11923" lon="3.88909">
        <ele>649.51</ele>
        <time>2026-03-05T08:36:30Z</time>
      </trkpt>
      <trkpt lat="45.11902" lon="3.88913">
        <ele>671.62</ele>
        <time>2026-03-05T08:36:54Z</time>
      </trkpt>
      <trkpt lat="45.11897" lon="3.88913">
        <ele>677.39</ele>
        <time>2026-03-05T08:37:18Z</time>
      </trkpt>
      <trkpt lat="45.11884" lon="3.88905">
        <ele>665.37</ele>
        <time>2026-03-05T08:37:42Z</time>
      </trkpt>
      <trkpt lat="45.11897" lon="3.88891">
        <ele>666.81</ele>
        <time>2026-03-05T08:38:05Z</time>
      </trkpt>
      <trkpt lat="45.11912" lon="3.88876">
        <ele>674.98</ele>
        <time>2026-03-05T08:38:26Z</time>
      </trkpt>
      <trkpt lat="45.11921" lon="3.88863">
        <ele>686.04</ele>
        <time>2026-03-05T08:38:46Z</time>
      </trkpt>
      <trkpt lat="45.11936" lon="3.88848">
        <ele>689.4</ele>
        <time>2026-03-05T08:39:09Z</time>
      </trkpt>
      <trkpt lat="45.11927" lon="3.8885">
        <ele>696.13</ele>
        <time>2026-03-05T08:39:34Z</time>
      </trkpt>
      <trkpt lat="45.11953" lon="3.88819">
        <ele>691.81</ele>
        <time>2026-03-05T08:39:56Z</time>
      </trkpt>
      <trkpt lat="45.11929" lon="3.88803">
        <ele>690.36</ele>
        <time>2026-03-05T08:40:16Z</time>
      </trkpt>
      <trkpt lat="45.11935" lon="3.888">
        <ele>694.21</ele>
        <time>2026-03-05T08:40:34Z</time>
      </trkpt>
      <trkpt lat="45.11953" lon="3.8877">
        <ele>690.36</ele>
        <time>2026-03-05T08:40:58Z</time>
      </trkpt>
      <trkpt lat="45.11959" lon="3.88747">
        <ele>698.53</ele>
        <time>2026-03-05T08:41:22Z</time>
      </trkpt>
      <trkpt lat="45.11971" lon="3.8872">
        <ele>713.44</ele>
        <time>2026-03-05T08:41:44Z</time>
      </trkpt>
      <trkpt lat="45.11986" lon="3.88698">
        <ele>726.41</ele>
        <time>2026-03-05T08:42:07Z</time>
      </trkpt>
      <trkpt lat="45.11985" lon="3.88689">
        <ele>731.22</ele>
        <time>2026-03-05T08:42:27Z</time>
      </trkpt>
      <trkpt lat="45.12009" lon="3.88694">
        <ele>734.58</ele>
        <time>2026-03-05T08:42:50Z</time>
      </trkpt>
      <trkpt lat="45.12036" lon="3.8869">
        <ele>737.47</ele>
        <time>2026-03-05T08:43:13Z</time>
      </trkpt>
      <trkpt lat="45.1202" lon="3.8867">
        <ele>739.39</ele>
        <time>2026-03-05T08:43:33Z</time>
      </trkpt>
      <trkpt lat="45.1201" lon="3.88668">
        <ele>739.87</ele>
        <time>2026-03-05T08:43:42Z</time>
      </trkpt>
      <trkpt lat="45.11989" lon="3.88653">
        <ele>747.08</ele>
        <time>2026-03-05T08:44:03Z</time>
      </trkpt>
      <trkpt lat="45.12008" lon="3.8865">
        <ele>752.85</ele>
        <time>2026-03-05T08:44:19Z</time>
      </trkpt>
      <trkpt lat="45.12029" lon="3.88649">
        <ele>752.85</ele>
        <time>2026-03-05T08:44:39Z</time>
      </trkpt>
      <trkpt lat="45.12043" lon="3.88645">
        <ele>752.37</ele>
        <time>2026-03-05T08:44:56Z</time>
      </trkpt>
      <trkpt lat="45.1203" lon="3.88619">
        <ele>751.89</ele>
        <time>2026-03-05T08:45:16Z</time>
      </trkpt>
      <trkpt lat="45.12009" lon="3.886">
        <ele>752.37</ele>
        <time>2026-03-05T08:45:41Z</time>
      </trkpt>
      <trkpt lat="45.11987" lon="3.88575">
        <ele>753.33</ele>
        <time>2026-03-05T08:46:05Z</time>
      </trkpt>
      <trkpt lat="45.11974" lon="3.88568">
        <ele>757.18</ele>
        <time>2026-03-05T08:46:27Z</time>
      </trkpt>
      <trkpt lat="45.11954" lon="3.88569">
        <ele>756.69</ele>
        <time>2026-03-05T08:46:48Z</time>
      </trkpt>
      <trkpt lat="45.11936" lon="3.88583">
        <ele>760.54</ele>
        <time>2026-03-05T08:47:07Z</time>
      </trkpt>
      <trkpt lat="45.11917" lon="3.88601">
        <ele>767.75</ele>
        <time>2026-03-05T08:47:31Z</time>
      </trkpt>
      <trkpt lat="45.11894" lon="3.88626">
        <ele>770.63</ele>
        <time>2026-03-05T08:47:56Z</time>
      </trkpt>
      <trkpt lat="45.11872" lon="3.88618">
        <ele>776.4</ele>
        <time>2026-03-05T08:48:16Z</time>
      </trkpt>
      <trkpt lat="45.11847" lon="3.88597">
        <ele>781.21</ele>
        <time>2026-03-05T08:48:40Z</time>
      </trkpt>
      <trkpt lat="45.11822" lon="3.88583">
        <ele>784.57</ele>
        <time>2026-03-05T08:49:03Z</time>
      </trkpt>
      <trkpt lat="45.11804" lon="3.88561">
        <ele>782.17</ele>
        <time>2026-03-05T08:49:25Z</time>
      </trkpt>
      <trkpt lat="45.11795" lon="3.88524">
        <ele>782.65</ele>
        <time>2026-03-05T08:49:47Z</time>
      </trkpt>
      <trkpt lat="45.11797" lon="3.88511">
        <ele>783.13</ele>
        <time>2026-03-05T08:50:07Z</time>
      </trkpt>
      <trkpt lat="45.11792" lon="3.88505">
        <ele>783.61</ele>
        <time>2026-03-05T08:50:31Z</time>
      </trkpt>
      <trkpt lat="45.11794" lon="3.88508">
        <ele>782.17</ele>
        <time>2026-03-05T08:50:51Z</time>
      </trkpt>
      <trkpt lat="45.11794" lon="3.88513">
        <ele>781.21</ele>
        <time>2026-03-05T08:51:13Z</time>
      </trkpt>
      <trkpt lat="45.11792" lon="3.88508">
        <ele>784.09</ele>
        <time>2026-03-05T08:51:40Z</time>
      </trkpt>
      <trkpt lat="45.1179" lon="3.88508">
        <ele>784.57</ele>
        <time>2026-03-05T08:52:01Z</time>
      </trkpt>
      <trkpt lat="45.11787" lon="3.88513">
        <ele>787.46</ele>
        <time>2026-03-05T08:52:33Z</time>
      </trkpt>
      <trkpt lat="45.11786" lon="3.88518">
        <ele>786.98</ele>
        <time>2026-03-05T08:53:04Z</time>
      </trkpt>
      <trkpt lat="45.11796" lon="3.88509">
        <ele>782.65</ele>
        <time>2026-03-05T08:53:40Z</time>
      </trkpt>
      <trkpt lat="45.11792" lon="3.88509">
        <ele>786.5</ele>
        <time>2026-03-05T08:54:18Z</time>
      </trkpt>
      <trkpt lat="45.11791" lon="3.88512">
        <ele>786.5</ele>
        <time>2026-03-05T08:54:53Z</time>
      </trkpt>
      <trkpt lat="45.1179" lon="3.88513">
        <ele>787.94</ele>
        <time>2026-03-05T08:55:22Z</time>
      </trkpt>
      <trkpt lat="45.11792" lon="3.88507">
        <ele>789.86</ele>
        <time>2026-03-05T08:55:54Z</time>
      </trkpt>
      <trkpt lat="45.118" lon="3.88511">
        <ele>788.42</ele>
        <time>2026-03-05T08:56:18Z</time>
      </trkpt>
      <trkpt lat="45.11803" lon="3.88503">
        <ele>789.38</ele>
        <time>2026-03-05T08:56:27Z</time>
      </trkpt>
      <trkpt lat="45.11788" lon="3.88488">
        <ele>789.86</ele>
        <time>2026-03-05T08:56:47Z</time>
      </trkpt>
      <trkpt lat="45.11803" lon="3.88497">
        <ele>789.86</ele>
        <time>2026-03-05T08:57:03Z</time>
      </trkpt>
      <trkpt lat="45.11811" lon="3.88497">
        <ele>788.9</ele>
        <time>2026-03-05T08:57:17Z</time>
      </trkpt>
      <trkpt lat="45.11832" lon="3.8849">
        <ele>791.3</ele>
        <time>2026-03-05T08:57:35Z</time>
      </trkpt>
      <trkpt lat="45.11828" lon="3.88473">
        <ele>794.19</ele>
        <time>2026-03-05T08:57:52Z</time>
      </trkpt>
      <trkpt lat="45.1182" lon="3.88457">
        <ele>798.99</ele>
        <time>2026-03-05T08:58:12Z</time>
      </trkpt>
      <trkpt lat="45.11814" lon="3.88442">
        <ele>802.84</ele>
        <time>2026-03-05T08:58:29Z</time>
      </trkpt>
      <trkpt lat="45.11797" lon="3.88428">
        <ele>809.09</ele>
        <time>2026-03-05T08:58:50Z</time>
      </trkpt>
      <trkpt lat="45.11784" lon="3.88406">
        <ele>812.93</ele>
        <time>2026-03-05T08:59:12Z</time>
      </trkpt>
      <trkpt lat="45.1177" lon="3.88382">
        <ele>816.78</ele>
        <time>2026-03-05T08:59:32Z</time>
      </trkpt>
      <trkpt lat="45.11764" lon="3.88353">
        <ele>819.66</ele>
        <time>2026-03-05T08:59:52Z</time>
      </trkpt>
      <trkpt lat="45.11757" lon="3.88321">
        <ele>822.55</ele>
        <time>2026-03-05T09:00:15Z</time>
      </trkpt>
      <trkpt lat="45.11752" lon="3.8829">
        <ele>829.76</ele>
        <time>2026-03-05T09:00:37Z</time>
      </trkpt>
      <trkpt lat="45.11731" lon="3.88267">
        <ele>834.56</ele>
        <time>2026-03-05T09:01:02Z</time>
      </trkpt>
      <trkpt lat="45.11707" lon="3.88248">
        <ele>840.33</ele>
        <time>2026-03-05T09:01:23Z</time>
      </trkpt>
      <trkpt lat="45.11695" lon="3.88232">
        <ele>842.73</ele>
        <time>2026-03-05T09:01:45Z</time>
      </trkpt>
      <trkpt lat="45.11698" lon="3.88236">
        <ele>846.1</ele>
        <time>2026-03-05T09:02:05Z</time>
      </trkpt>
      <trkpt lat="45.11668" lon="3.88247">
        <ele>844.66</ele>
        <time>2026-03-05T09:02:29Z</time>
      </trkpt>
      <trkpt lat="45.11639" lon="3.88269">
        <ele>843.21</ele>
        <time>2026-03-05T09:02:54Z</time>
      </trkpt>
      <trkpt lat="45.11616" lon="3.88288">
        <ele>842.73</ele>
        <time>2026-03-05T09:03:17Z</time>
      </trkpt>
      <trkpt lat="45.11616" lon="3.88284">
        <ele>837.45</ele>
        <time>2026-03-05T09:03:47Z</time>
      </trkpt>
      <trkpt lat="45.11594" lon="3.88297">
        <ele>833.12</ele>
        <time>2026-03-05T09:04:07Z</time>
      </trkpt>
      <trkpt lat="45.11587" lon="3.88321">
        <ele>830.72</ele>
        <time>2026-03-05T09:04:24Z</time>
      </trkpt>
      <trkpt lat="45.11587" lon="3.88323">
        <ele>830.72</ele>
        <time>2026-03-05T09:04:25Z</time>
      </trkpt>
      <trkpt lat="45.1158" lon="3.88338">
        <ele>823.51</ele>
        <time>2026-03-05T09:04:44Z</time>
      </trkpt>
      <trkpt lat="45.11581" lon="3.88337">
        <ele>820.62</ele>
        <time>2026-03-05T09:05:14Z</time>
      </trkpt>
      <trkpt lat="45.11584" lon="3.88334">
        <ele>826.87</ele>
        <time>2026-03-05T09:05:39Z</time>
      </trkpt>
      <trkpt lat="45.11583" lon="3.88329">
        <ele>826.87</ele>
        <time>2026-03-05T09:06:05Z</time>
      </trkpt>
      <trkpt lat="45.11581" lon="3.8833">
        <ele>824.95</ele>
        <time>2026-03-05T09:06:40Z</time>
      </trkpt>
      <trkpt lat="45.11581" lon="3.88329">
        <ele>826.39</ele>
        <time>2026-03-05T09:07:12Z</time>
      </trkpt>
      <trkpt lat="45.11581" lon="3.88329">
        <ele>827.35</ele>
        <time>2026-03-05T09:07:39Z</time>
      </trkpt>
      <trkpt lat="45.11582" lon="3.88328">
        <ele>827.83</ele>
        <time>2026-03-05T09:08:07Z</time>
      </trkpt>
      <trkpt lat="45.11592" lon="3.88316">
        <ele>831.68</ele>
        <time>2026-03-05T09:08:26Z</time>
      </trkpt>
      <trkpt lat="45.11583" lon="3.88309">
        <ele>835.04</ele>
        <time>2026-03-05T09:08:43Z</time>
      </trkpt>
      <trkpt lat="45.11557" lon="3.88289">
        <ele>839.37</ele>
        <time>2026-03-05T09:09:06Z</time>
      </trkpt>
      <trkpt lat="45.11549" lon="3.88279">
        <ele>840.81</ele>
        <time>2026-03-05T09:09:23Z</time>
      </trkpt>
      <trkpt lat="45.11543" lon="3.88276">
        <ele>841.77</ele>
        <time>2026-03-05T09:09:27Z</time>
      </trkpt>
      <trkpt lat="45.11516" lon="3.88259">
        <ele>843.69</ele>
        <time>2026-03-05T09:09:49Z</time>
      </trkpt>
      <trkpt lat="45.11484" lon="3.88244">
        <ele>844.66</ele>
        <time>2026-03-05T09:10:13Z</time>
      </trkpt>
      <trkpt lat="45.11459" lon="3.88219">
        <ele>844.18</ele>
        <time>2026-03-05T09:10:35Z</time>
      </trkpt>
      <trkpt lat="45.11441" lon="3.88192">
        <ele>845.62</ele>
        <time>2026-03-05T09:10:59Z</time>
      </trkpt>
      <trkpt lat="45.11424" lon="3.88162">
        <ele>848.98</ele>
        <time>2026-03-05T09:11:23Z</time>
      </trkpt>
      <trkpt lat="45.11402" lon="3.8815">
        <ele>850.9</ele>
        <time>2026-03-05T09:11:44Z</time>
      </trkpt>
      <trkpt lat="45.11383" lon="3.88138">
        <ele>854.27</ele>
        <time>2026-03-05T09:12:07Z</time>
      </trkpt>
      <trkpt lat="45.11373" lon="3.88143">
        <ele>855.23</ele>
        <time>2026-03-05T09:12:25Z</time>
      </trkpt>
      <trkpt lat="45.11371" lon="3.88147">
        <ele>853.79</ele>
        <time>2026-03-05T09:12:34Z</time>
      </trkpt>
      <trkpt lat="45.11353" lon="3.88163">
        <ele>852.35</ele>
        <time>2026-03-05T09:12:54Z</time>
      </trkpt>
      <trkpt lat="45.1135" lon="3.88165">
        <ele>850.42</ele>
        <time>2026-03-05T09:13:21Z</time>
      </trkpt>
      <trkpt lat="45.11351" lon="3.88164">
        <ele>847.06</ele>
        <time>2026-03-05T09:13:51Z</time>
      </trkpt>
      <trkpt lat="45.11341" lon="3.88168">
        <ele>847.54</ele>
        <time>2026-03-05T09:14:13Z</time>
      </trkpt>
      <trkpt lat="45.11319" lon="3.88186">
        <ele>848.98</ele>
        <time>2026-03-05T09:14:33Z</time>
      </trkpt>
      <trkpt lat="45.11297" lon="3.88217">
        <ele>851.38</ele>
        <time>2026-03-05T09:14:57Z</time>
      </trkpt>
      <trkpt lat="45.11276" lon="3.88238">
        <ele>853.79</ele>
        <time>2026-03-05T09:15:16Z</time>
      </trkpt>
      <trkpt lat="45.11247" lon="3.88249">
        <ele>856.19</ele>
        <time>2026-03-05T09:15:36Z</time>
      </trkpt>
      <trkpt lat="45.11219" lon="3.88251">
        <ele>857.63</ele>
        <time>2026-03-05T09:15:56Z</time>
      </trkpt>
      <trkpt lat="45.11191" lon="3.88257">
        <ele>857.63</ele>
        <time>2026-03-05T09:16:16Z</time>
      </trkpt>
      <trkpt lat="45.11159" lon="3.88271">
        <ele>856.67</ele>
        <time>2026-03-05T09:16:39Z</time>
      </trkpt>
      <trkpt lat="45.11133" lon="3.88287">
        <ele>856.67</ele>
        <time>2026-03-05T09:17:00Z</time>
      </trkpt>
      <trkpt lat="45.11106" lon="3.88296">
        <ele>855.71</ele>
        <time>2026-03-05T09:17:21Z</time>
      </trkpt>
      <trkpt lat="45.11076" lon="3.88304">
        <ele>855.71</ele>
        <time>2026-03-05T09:17:43Z</time>
      </trkpt>
      <trkpt lat="45.1105" lon="3.8831">
        <ele>854.75</ele>
        <time>2026-03-05T09:18:06Z</time>
      </trkpt>
      <trkpt lat="45.11025" lon="3.88315">
        <ele>852.35</ele>
        <time>2026-03-05T09:18:25Z</time>
      </trkpt>
      <trkpt lat="45.11004" lon="3.88322">
        <ele>852.83</ele>
        <time>2026-03-05T09:18:42Z</time>
      </trkpt>
      <trkpt lat="45.10976" lon="3.88329">
        <ele>851.87</ele>
        <time>2026-03-05T09:19:02Z</time>
      </trkpt>
      <trkpt lat="45.10948" lon="3.88333">
        <ele>850.42</ele>
        <time>2026-03-05T09:19:21Z</time>
      </trkpt>
      <trkpt lat="45.10919" lon="3.88318">
        <ele>848.02</ele>
        <time>2026-03-05T09:19:42Z</time>
      </trkpt>
      <trkpt lat="45.10893" lon="3.88302">
        <ele>844.18</ele>
        <time>2026-03-05T09:20:02Z</time>
      </trkpt>
      <trkpt lat="45.10866" lon="3.88291">
        <ele>842.73</ele>
        <time>2026-03-05T09:20:22Z</time>
      </trkpt>
      <trkpt lat="45.10837" lon="3.88274">
        <ele>840.81</ele>
        <time>2026-03-05T09:20:44Z</time>
      </trkpt>
      <trkpt lat="45.10814" lon="3.88252">
        <ele>837.93</ele>
        <time>2026-03-05T09:21:03Z</time>
      </trkpt>
      <trkpt lat="45.1079" lon="3.88231">
        <ele>833.6</ele>
        <time>2026-03-05T09:21:23Z</time>
      </trkpt>
      <trkpt lat="45.10753" lon="3.88215">
        <ele>833.6</ele>
        <time>2026-03-05T09:21:50Z</time>
      </trkpt>
      <trkpt lat="45.10733" lon="3.88211">
        <ele>836.96</ele>
        <time>2026-03-05T09:22:06Z</time>
      </trkpt>
      <trkpt lat="45.10727" lon="3.88208">
        <ele>837.45</ele>
        <time>2026-03-05T09:22:13Z</time>
      </trkpt>
      <trkpt lat="45.10708" lon="3.882">
        <ele>837.93</ele>
        <time>2026-03-05T09:22:28Z</time>
      </trkpt>
      <trkpt lat="45.10689" lon="3.88189">
        <ele>840.33</ele>
        <time>2026-03-05T09:22:41Z</time>
      </trkpt>
      <trkpt lat="45.10672" lon="3.88175">
        <ele>837.93</ele>
        <time>2026-03-05T09:22:52Z</time>
      </trkpt>
      <trkpt lat="45.10659" lon="3.8816">
        <ele>837.45</ele>
        <time>2026-03-05T09:23:06Z</time>
      </trkpt>
      <trkpt lat="45.1065" lon="3.88157">
        <ele>838.41</ele>
        <time>2026-03-05T09:23:15Z</time>
      </trkpt>
      <trkpt lat="45.10649" lon="3.88159">
        <ele>838.89</ele>
        <time>2026-03-05T09:23:17Z</time>
      </trkpt>
      <trkpt lat="45.10636" lon="3.88177">
        <ele>838.41</ele>
        <time>2026-03-05T09:23:29Z</time>
      </trkpt>
      <trkpt lat="45.10625" lon="3.88189">
        <ele>837.93</ele>
        <time>2026-03-05T09:23:38Z</time>
      </trkpt>
      <trkpt lat="45.10613" lon="3.88197">
        <ele>836.96</ele>
        <time>2026-03-05T09:23:49Z</time>
      </trkpt>
      <trkpt lat="45.10596" lon="3.88206">
        <ele>837.93</ele>
        <time>2026-03-05T09:24:02Z</time>
      </trkpt>
      <trkpt lat="45.10593" lon="3.88207">
        <ele>838.41</ele>
        <time>2026-03-05T09:24:04Z</time>
      </trkpt>
      <trkpt lat="45.10588" lon="3.88206">
        <ele>838.89</ele>
        <time>2026-03-05T09:24:09Z</time>
      </trkpt>
      <trkpt lat="45.10586" lon="3.88206">
        <ele>839.37</ele>
        <time>2026-03-05T09:24:10Z</time>
      </trkpt>
      <trkpt lat="45.10585" lon="3.88207">
        <ele>839.37</ele>
        <time>2026-03-05T09:24:11Z</time>
      </trkpt>
      <trkpt lat="45.10582" lon="3.88207">
        <ele>839.85</ele>
        <time>2026-03-05T09:24:12Z</time>
      </trkpt>
      <trkpt lat="45.1058" lon="3.88208">
        <ele>839.85</ele>
        <time>2026-03-05T09:24:13Z</time>
      </trkpt>
      <trkpt lat="45.10567" lon="3.88215">
        <ele>838.41</ele>
        <time>2026-03-05T09:24:23Z</time>
      </trkpt>
      <trkpt lat="45.10551" lon="3.88225">
        <ele>839.37</ele>
        <time>2026-03-05T09:24:35Z</time>
      </trkpt>
      <trkpt lat="45.1054" lon="3.88236">
        <ele>840.33</ele>
        <time>2026-03-05T09:24:46Z</time>
      </trkpt>
      <trkpt lat="45.10538" lon="3.88237">
        <ele>840.33</ele>
        <time>2026-03-05T09:24:47Z</time>
      </trkpt>
      <trkpt lat="45.10537" lon="3.88237">
        <ele>839.85</ele>
        <time>2026-03-05T09:24:48Z</time>
      </trkpt>
      <trkpt lat="45.10534" lon="3.88238">
        <ele>839.85</ele>
        <time>2026-03-05T09:24:49Z</time>
      </trkpt>
      <trkpt lat="45.10521" lon="3.88247">
        <ele>838.89</ele>
        <time>2026-03-05T09:25:00Z</time>
      </trkpt>
      <trkpt lat="45.10494" lon="3.88251">
        <ele>834.56</ele>
        <time>2026-03-05T09:25:21Z</time>
      </trkpt>
      <trkpt lat="45.10463" lon="3.88262">
        <ele>830.24</ele>
        <time>2026-03-05T09:25:43Z</time>
      </trkpt>
      <trkpt lat="45.10431" lon="3.88267">
        <ele>827.35</ele>
        <time>2026-03-05T09:26:05Z</time>
      </trkpt>
      <trkpt lat="45.10413" lon="3.88269">
        <ele>828.79</ele>
        <time>2026-03-05T09:26:19Z</time>
      </trkpt>
      <trkpt lat="45.10402" lon="3.88273">
        <ele>827.83</ele>
        <time>2026-03-05T09:26:27Z</time>
      </trkpt>
      <trkpt lat="45.10394" lon="3.88296">
        <ele>826.39</ele>
        <time>2026-03-05T09:26:40Z</time>
      </trkpt>
      <trkpt lat="45.10394" lon="3.88325">
        <ele>827.35</ele>
        <time>2026-03-05T09:26:53Z</time>
      </trkpt>
      <trkpt lat="45.10394" lon="3.88355">
        <ele>827.83</ele>
        <time>2026-03-05T09:27:09Z</time>
      </trkpt>
      <trkpt lat="45.10388" lon="3.88394">
        <ele>825.43</ele>
        <time>2026-03-05T09:27:27Z</time>
      </trkpt>
      <trkpt lat="45.10383" lon="3.88418">
        <ele>823.51</ele>
        <time>2026-03-05T09:27:41Z</time>
      </trkpt>
      <trkpt lat="45.10378" lon="3.88441">
        <ele>823.03</ele>
        <time>2026-03-05T09:27:54Z</time>
      </trkpt>
      <trkpt lat="45.10385" lon="3.88467">
        <ele>823.99</ele>
        <time>2026-03-05T09:28:07Z</time>
      </trkpt>
      <trkpt lat="45.10396" lon="3.88485">
        <ele>822.55</ele>
        <time>2026-03-05T09:28:20Z</time>
      </trkpt>
      <trkpt lat="45.10397" lon="3.88488">
        <ele>822.55</ele>
        <time>2026-03-05T09:28:21Z</time>
      </trkpt>
      <trkpt lat="45.10404" lon="3.88516">
        <ele>820.14</ele>
        <time>2026-03-05T09:28:36Z</time>
      </trkpt>
      <trkpt lat="45.10407" lon="3.88545">
        <ele>815.34</ele>
        <time>2026-03-05T09:28:51Z</time>
      </trkpt>
      <trkpt lat="45.10405" lon="3.88579">
        <ele>811.97</ele>
        <time>2026-03-05T09:29:07Z</time>
      </trkpt>
      <trkpt lat="45.10406" lon="3.88611">
        <ele>811.97</ele>
        <time>2026-03-05T09:29:22Z</time>
      </trkpt>
      <trkpt lat="45.10406" lon="3.88635">
        <ele>811.49</ele>
        <time>2026-03-05T09:29:34Z</time>
      </trkpt>
      <trkpt lat="45.104" lon="3.88662">
        <ele>811.01</ele>
        <time>2026-03-05T09:29:49Z</time>
      </trkpt>
      <trkpt lat="45.10385" lon="3.88672">
        <ele>812.45</ele>
        <time>2026-03-05T09:30:03Z</time>
      </trkpt>
      <trkpt lat="45.10381" lon="3.88674">
        <ele>811.49</ele>
        <time>2026-03-05T09:30:08Z</time>
      </trkpt>
      <trkpt lat="45.10379" lon="3.88673">
        <ele>810.53</ele>
        <time>2026-03-05T09:30:09Z</time>
      </trkpt>
      <trkpt lat="45.10362" lon="3.88664">
        <ele>804.28</ele>
        <time>2026-03-05T09:30:24Z</time>
      </trkpt>
      <trkpt lat="45.10346" lon="3.88659">
        <ele>801.4</ele>
        <time>2026-03-05T09:30:39Z</time>
      </trkpt>
      <trkpt lat="45.10325" lon="3.88656">
        <ele>799.47</ele>
        <time>2026-03-05T09:30:56Z</time>
      </trkpt>
      <trkpt lat="45.10303" lon="3.88649">
        <ele>796.59</ele>
        <time>2026-03-05T09:31:11Z</time>
      </trkpt>
      <trkpt lat="45.10294" lon="3.88645">
        <ele>795.63</ele>
        <time>2026-03-05T09:31:19Z</time>
      </trkpt>
      <trkpt lat="45.10277" lon="3.88631">
        <ele>793.71</ele>
        <time>2026-03-05T09:31:36Z</time>
      </trkpt>
      <trkpt lat="45.10262" lon="3.88617">
        <ele>791.3</ele>
        <time>2026-03-05T09:31:52Z</time>
      </trkpt>
      <trkpt lat="45.10247" lon="3.88602">
        <ele>789.38</ele>
        <time>2026-03-05T09:32:06Z</time>
      </trkpt>
      <trkpt lat="45.10232" lon="3.88586">
        <ele>787.46</ele>
        <time>2026-03-05T09:32:21Z</time>
      </trkpt>
      <trkpt lat="45.10225" lon="3.88577">
        <ele>786.02</ele>
        <time>2026-03-05T09:32:29Z</time>
      </trkpt>
      <trkpt lat="45.10213" lon="3.88561">
        <ele>784.57</ele>
        <time>2026-03-05T09:32:43Z</time>
      </trkpt>
      <trkpt lat="45.10205" lon="3.88546">
        <ele>783.61</ele>
        <time>2026-03-05T09:32:54Z</time>
      </trkpt>
      <trkpt lat="45.10201" lon="3.8854">
        <ele>782.17</ele>
        <time>2026-03-05T09:32:59Z</time>
      </trkpt>
      <trkpt lat="45.10192" lon="3.88519">
        <ele>776.88</ele>
        <time>2026-03-05T09:33:13Z</time>
      </trkpt>
      <trkpt lat="45.10184" lon="3.88499">
        <ele>773.52</ele>
        <time>2026-03-05T09:33:26Z</time>
      </trkpt>
      <trkpt lat="45.10184" lon="3.88497">
        <ele>774</ele>
        <time>2026-03-05T09:33:27Z</time>
      </trkpt>
      <trkpt lat="45.10184" lon="3.88494">
        <ele>773.52</ele>
        <time>2026-03-05T09:33:28Z</time>
      </trkpt>
      <trkpt lat="45.10183" lon="3.88492">
        <ele>773.52</ele>
        <time>2026-03-05T09:33:29Z</time>
      </trkpt>
      <trkpt lat="45.10182" lon="3.88491">
        <ele>773.04</ele>
        <time>2026-03-05T09:33:30Z</time>
      </trkpt>
      <trkpt lat="45.10181" lon="3.88489">
        <ele>773.04</ele>
        <time>2026-03-05T09:33:31Z</time>
      </trkpt>
      <trkpt lat="45.1018" lon="3.88488">
        <ele>773.04</ele>
        <time>2026-03-05T09:33:32Z</time>
      </trkpt>
      <trkpt lat="45.10164" lon="3.88474">
        <ele>770.63</ele>
        <time>2026-03-05T09:33:46Z</time>
      </trkpt>
      <trkpt lat="45.10165" lon="3.88473">
        <ele>765.35</ele>
        <time>2026-03-05T09:34:04Z</time>
      </trkpt>
      <trkpt lat="45.10161" lon="3.88467">
        <ele>765.83</ele>
        <time>2026-03-05T09:34:30Z</time>
      </trkpt>
      <trkpt lat="45.10157" lon="3.88462">
        <ele>766.31</ele>
        <time>2026-03-05T09:34:35Z</time>
      </trkpt>
      <trkpt lat="45.10157" lon="3.88461">
        <ele>765.83</ele>
        <time>2026-03-05T09:34:36Z</time>
      </trkpt>
      <trkpt lat="45.10156" lon="3.88461">
        <ele>765.83</ele>
        <time>2026-03-05T09:34:37Z</time>
      </trkpt>
      <trkpt lat="45.10144" lon="3.88448">
        <ele>765.83</ele>
        <time>2026-03-05T09:34:50Z</time>
      </trkpt>
      <trkpt lat="45.10131" lon="3.88438">
        <ele>765.35</ele>
        <time>2026-03-05T09:35:01Z</time>
      </trkpt>
      <trkpt lat="45.10123" lon="3.88431">
        <ele>764.39</ele>
        <time>2026-03-05T09:35:09Z</time>
      </trkpt>
      <trkpt lat="45.10122" lon="3.8843">
        <ele>764.39</ele>
        <time>2026-03-05T09:35:10Z</time>
      </trkpt>
      <trkpt lat="45.10121" lon="3.88429">
        <ele>764.39</ele>
        <time>2026-03-05T09:35:11Z</time>
      </trkpt>
      <trkpt lat="45.10109" lon="3.88418">
        <ele>764.39</ele>
        <time>2026-03-05T09:35:21Z</time>
      </trkpt>
      <trkpt lat="45.10107" lon="3.88416">
        <ele>764.39</ele>
        <time>2026-03-05T09:35:23Z</time>
      </trkpt>
      <trkpt lat="45.10106" lon="3.88415">
        <ele>764.39</ele>
        <time>2026-03-05T09:35:24Z</time>
      </trkpt>
      <trkpt lat="45.10105" lon="3.88413">
        <ele>764.39</ele>
        <time>2026-03-05T09:35:25Z</time>
      </trkpt>
      <trkpt lat="45.10104" lon="3.88412">
        <ele>764.39</ele>
        <time>2026-03-05T09:35:26Z</time>
      </trkpt>
      <trkpt lat="45.10103" lon="3.88411">
        <ele>764.39</ele>
        <time>2026-03-05T09:35:27Z</time>
      </trkpt>
      <trkpt lat="45.10102" lon="3.8841">
        <ele>764.39</ele>
        <time>2026-03-05T09:35:28Z</time>
      </trkpt>
      <trkpt lat="45.10101" lon="3.88409">
        <ele>763.9</ele>
        <time>2026-03-05T09:35:29Z</time>
      </trkpt>
      <trkpt lat="45.10088" lon="3.88398">
        <ele>760.06</ele>
        <time>2026-03-05T09:35:41Z</time>
      </trkpt>
      <trkpt lat="45.10087" lon="3.88396">
        <ele>759.58</ele>
        <time>2026-03-05T09:35:42Z</time>
      </trkpt>
      <trkpt lat="45.10087" lon="3.88395">
        <ele>759.58</ele>
        <time>2026-03-05T09:35:43Z</time>
      </trkpt>
      <trkpt lat="45.10086" lon="3.88394">
        <ele>759.1</ele>
        <time>2026-03-05T09:35:44Z</time>
      </trkpt>
      <trkpt lat="45.10085" lon="3.88392">
        <ele>759.1</ele>
        <time>2026-03-05T09:35:45Z</time>
      </trkpt>
      <trkpt lat="45.10073" lon="3.88374">
        <ele>755.25</ele>
        <time>2026-03-05T09:35:57Z</time>
      </trkpt>
      <trkpt lat="45.10068" lon="3.88351">
        <ele>752.85</ele>
        <time>2026-03-05T09:36:10Z</time>
      </trkpt>
      <trkpt lat="45.10068" lon="3.88349">
        <ele>752.85</ele>
        <time>2026-03-05T09:36:11Z</time>
      </trkpt>
      <trkpt lat="45.10064" lon="3.88319">
        <ele>750.45</ele>
        <time>2026-03-05T09:36:26Z</time>
      </trkpt>
      <trkpt lat="45.10055" lon="3.88292">
        <ele>748.04</ele>
        <time>2026-03-05T09:36:41Z</time>
      </trkpt>
      <trkpt lat="45.10052" lon="3.88284">
        <ele>747.56</ele>
        <time>2026-03-05T09:36:46Z</time>
      </trkpt>
      <trkpt lat="45.10052" lon="3.88276">
        <ele>747.56</ele>
        <time>2026-03-05T09:36:51Z</time>
      </trkpt>
      <trkpt lat="45.10051" lon="3.88273">
        <ele>747.56</ele>
        <time>2026-03-05T09:36:52Z</time>
      </trkpt>
      <trkpt lat="45.10046" lon="3.88254">
        <ele>747.56</ele>
        <time>2026-03-05T09:37:00Z</time>
      </trkpt>
      <trkpt lat="45.10046" lon="3.88252">
        <ele>747.56</ele>
        <time>2026-03-05T09:37:01Z</time>
      </trkpt>
      <trkpt lat="45.10046" lon="3.88249">
        <ele>747.08</ele>
        <time>2026-03-05T09:37:02Z</time>
      </trkpt>
      <trkpt lat="45.10046" lon="3.88248">
        <ele>747.08</ele>
        <time>2026-03-05T09:37:03Z</time>
      </trkpt>
      <trkpt lat="45.10044" lon="3.8822">
        <ele>745.16</ele>
        <time>2026-03-05T09:37:17Z</time>
      </trkpt>
      <trkpt lat="45.10042" lon="3.882">
        <ele>742.76</ele>
        <time>2026-03-05T09:37:28Z</time>
      </trkpt>
      <trkpt lat="45.10039" lon="3.88178">
        <ele>740.83</ele>
        <time>2026-03-05T09:37:40Z</time>
      </trkpt>
      <trkpt lat="45.10036" lon="3.88151">
        <ele>736.51</ele>
        <time>2026-03-05T09:37:54Z</time>
      </trkpt>
      <trkpt lat="45.10036" lon="3.88128">
        <ele>733.14</ele>
        <time>2026-03-05T09:38:06Z</time>
      </trkpt>
      <trkpt lat="45.10036" lon="3.88122">
        <ele>732.18</ele>
        <time>2026-03-05T09:38:10Z</time>
      </trkpt>
      <trkpt lat="45.10035" lon="3.8812">
        <ele>732.18</ele>
        <time>2026-03-05T09:38:11Z</time>
      </trkpt>
      <trkpt lat="45.10035" lon="3.88102">
        <ele>729.78</ele>
        <time>2026-03-05T09:38:25Z</time>
      </trkpt>
      <trkpt lat="45.10035" lon="3.88089">
        <ele>729.78</ele>
        <time>2026-03-05T09:38:40Z</time>
      </trkpt>
      <trkpt lat="45.10041" lon="3.8805">
        <ele>728.82</ele>
        <time>2026-03-05T09:38:56Z</time>
      </trkpt>
      <trkpt lat="45.10043" lon="3.88023">
        <ele>727.86</ele>
        <time>2026-03-05T09:39:09Z</time>
      </trkpt>
      <trkpt lat="45.10052" lon="3.87994">
        <ele>725.93</ele>
        <time>2026-03-05T09:39:24Z</time>
      </trkpt>
      <trkpt lat="45.10054" lon="3.87967">
        <ele>723.05</ele>
        <time>2026-03-05T09:39:37Z</time>
      </trkpt>
      <trkpt lat="45.10042" lon="3.87943">
        <ele>719.68</ele>
        <time>2026-03-05T09:39:51Z</time>
      </trkpt>
      <trkpt lat="45.10028" lon="3.87917">
        <ele>718.72</ele>
        <time>2026-03-05T09:40:06Z</time>
      </trkpt>
      <trkpt lat="45.10025" lon="3.87907">
        <ele>717.28</ele>
        <time>2026-03-05T09:40:14Z</time>
      </trkpt>
      <trkpt lat="45.10025" lon="3.87905">
        <ele>717.28</ele>
        <time>2026-03-05T09:40:15Z</time>
      </trkpt>
      <trkpt lat="45.10025" lon="3.87903">
        <ele>717.28</ele>
        <time>2026-03-05T09:40:16Z</time>
      </trkpt>
      <trkpt lat="45.10024" lon="3.87901">
        <ele>717.28</ele>
        <time>2026-03-05T09:40:17Z</time>
      </trkpt>
      <trkpt lat="45.10023" lon="3.87899">
        <ele>717.28</ele>
        <time>2026-03-05T09:40:18Z</time>
      </trkpt>
      <trkpt lat="45.10022" lon="3.87897">
        <ele>717.28</ele>
        <time>2026-03-05T09:40:19Z</time>
      </trkpt>
      <trkpt lat="45.10019" lon="3.87874">
        <ele>716.8</ele>
        <time>2026-03-05T09:40:30Z</time>
      </trkpt>
      <trkpt lat="45.10017" lon="3.87871">
        <ele>716.8</ele>
        <time>2026-03-05T09:40:33Z</time>
      </trkpt>
      <trkpt lat="45.09998" lon="3.87849">
        <ele>711.99</ele>
        <time>2026-03-05T09:40:48Z</time>
      </trkpt>
      <trkpt lat="45.09992" lon="3.87837">
        <ele>710.55</ele>
        <time>2026-03-05T09:40:58Z</time>
      </trkpt>
      <trkpt lat="45.09991" lon="3.87836">
        <ele>710.55</ele>
        <time>2026-03-05T09:40:59Z</time>
      </trkpt>
      <trkpt lat="45.0999" lon="3.87834">
        <ele>710.55</ele>
        <time>2026-03-05T09:41:00Z</time>
      </trkpt>
      <trkpt lat="45.09989" lon="3.87833">
        <ele>710.07</ele>
        <time>2026-03-05T09:41:01Z</time>
      </trkpt>
      <trkpt lat="45.09988" lon="3.87831">
        <ele>710.07</ele>
        <time>2026-03-05T09:41:02Z</time>
      </trkpt>
      <trkpt lat="45.09987" lon="3.87829">
        <ele>710.07</ele>
        <time>2026-03-05T09:41:03Z</time>
      </trkpt>
      <trkpt lat="45.09984" lon="3.87822">
        <ele>709.59</ele>
        <time>2026-03-05T09:41:08Z</time>
      </trkpt>
      <trkpt lat="45.09976" lon="3.87815">
        <ele>708.15</ele>
        <time>2026-03-05T09:41:21Z</time>
      </trkpt>
      <trkpt lat="45.09976" lon="3.87815">
        <ele>707.19</ele>
        <time>2026-03-05T09:41:29Z</time>
      </trkpt>
      <trkpt lat="45.09977" lon="3.87813">
        <ele>707.19</ele>
        <time>2026-03-05T09:41:30Z</time>
      </trkpt>
      <trkpt lat="45.09986" lon="3.87793">
        <ele>709.59</ele>
        <time>2026-03-05T09:41:40Z</time>
      </trkpt>
      <trkpt lat="45.09988" lon="3.87792">
        <ele>709.59</ele>
        <time>2026-03-05T09:41:41Z</time>
      </trkpt>
      <trkpt lat="45.10008" lon="3.87778">
        <ele>714.88</ele>
        <time>2026-03-05T09:41:58Z</time>
      </trkpt>
      <trkpt lat="45.1001" lon="3.87775">
        <ele>715.84</ele>
        <time>2026-03-05T09:42:02Z</time>
      </trkpt>
      <trkpt lat="45.10027" lon="3.87753">
        <ele>720.65</ele>
        <time>2026-03-05T09:42:19Z</time>
      </trkpt>
      <trkpt lat="45.10043" lon="3.87739">
        <ele>725.45</ele>
        <time>2026-03-05T09:42:33Z</time>
      </trkpt>
      <trkpt lat="45.10055" lon="3.87726">
        <ele>727.86</ele>
        <time>2026-03-05T09:42:45Z</time>
      </trkpt>
      <trkpt lat="45.10065" lon="3.87714">
        <ele>729.78</ele>
        <time>2026-03-05T09:42:57Z</time>
      </trkpt>
      <trkpt lat="45.10078" lon="3.87701">
        <ele>731.7</ele>
        <time>2026-03-05T09:43:10Z</time>
      </trkpt>
      <trkpt lat="45.10089" lon="3.87692">
        <ele>732.66</ele>
        <time>2026-03-05T09:43:22Z</time>
      </trkpt>
      <trkpt lat="45.101" lon="3.87681">
        <ele>734.1</ele>
        <time>2026-03-05T09:43:35Z</time>
      </trkpt>
      <trkpt lat="45.101" lon="3.87679">
        <ele>734.1</ele>
        <time>2026-03-05T09:43:36Z</time>
      </trkpt>
      <trkpt lat="45.10102" lon="3.87674">
        <ele>734.1</ele>
        <time>2026-03-05T09:43:40Z</time>
      </trkpt>
      <trkpt lat="45.10102" lon="3.87672">
        <ele>734.58</ele>
        <time>2026-03-05T09:43:41Z</time>
      </trkpt>
      <trkpt lat="45.10102" lon="3.8767">
        <ele>734.58</ele>
        <time>2026-03-05T09:43:42Z</time>
      </trkpt>
      <trkpt lat="45.10104" lon="3.87661">
        <ele>734.58</ele>
        <time>2026-03-05T09:43:47Z</time>
      </trkpt>
      <trkpt lat="45.10105" lon="3.8764">
        <ele>733.62</ele>
        <time>2026-03-05T09:43:59Z</time>
      </trkpt>
      <trkpt lat="45.101" lon="3.8762">
        <ele>731.22</ele>
        <time>2026-03-05T09:44:10Z</time>
      </trkpt>
      <trkpt lat="45.10095" lon="3.87599">
        <ele>730.26</ele>
        <time>2026-03-05T09:44:22Z</time>
      </trkpt>
      <trkpt lat="45.10086" lon="3.87573">
        <ele>728.34</ele>
        <time>2026-03-05T09:44:36Z</time>
      </trkpt>
      <trkpt lat="45.10079" lon="3.87548">
        <ele>725.93</ele>
        <time>2026-03-05T09:44:50Z</time>
      </trkpt>
      <trkpt lat="45.1007" lon="3.87526">
        <ele>726.89</ele>
        <time>2026-03-05T09:45:02Z</time>
      </trkpt>
      <trkpt lat="45.10068" lon="3.87524">
        <ele>727.37</ele>
        <time>2026-03-05T09:45:04Z</time>
      </trkpt>
      <trkpt lat="45.10067" lon="3.87523">
        <ele>727.37</ele>
        <time>2026-03-05T09:45:05Z</time>
      </trkpt>
      <trkpt lat="45.10058" lon="3.87505">
        <ele>729.3</ele>
        <time>2026-03-05T09:45:16Z</time>
      </trkpt>
      <trkpt lat="45.10058" lon="3.87504">
        <ele>729.3</ele>
        <time>2026-03-05T09:45:17Z</time>
      </trkpt>
      <trkpt lat="45.10057" lon="3.87502">
        <ele>729.3</ele>
        <time>2026-03-05T09:45:18Z</time>
      </trkpt>
      <trkpt lat="45.10056" lon="3.87501">
        <ele>729.3</ele>
        <time>2026-03-05T09:45:19Z</time>
      </trkpt>
      <trkpt lat="45.10055" lon="3.87499">
        <ele>729.3</ele>
        <time>2026-03-05T09:45:20Z</time>
      </trkpt>
      <trkpt lat="45.10054" lon="3.87497">
        <ele>729.3</ele>
        <time>2026-03-05T09:45:21Z</time>
      </trkpt>
      <trkpt lat="45.10054" lon="3.87495">
        <ele>729.3</ele>
        <time>2026-03-05T09:45:22Z</time>
      </trkpt>
      <trkpt lat="45.1005" lon="3.87483">
        <ele>728.82</ele>
        <time>2026-03-05T09:45:30Z</time>
      </trkpt>
      <trkpt lat="45.10049" lon="3.87481">
        <ele>728.34</ele>
        <time>2026-03-05T09:45:31Z</time>
      </trkpt>
      <trkpt lat="45.10049" lon="3.8748">
        <ele>728.34</ele>
        <time>2026-03-05T09:45:32Z</time>
      </trkpt>
      <trkpt lat="45.10048" lon="3.87478">
        <ele>728.34</ele>
        <time>2026-03-05T09:45:33Z</time>
      </trkpt>
      <trkpt lat="45.10047" lon="3.87475">
        <ele>728.34</ele>
        <time>2026-03-05T09:45:34Z</time>
      </trkpt>
      <trkpt lat="45.10046" lon="3.87473">
        <ele>728.34</ele>
        <time>2026-03-05T09:45:35Z</time>
      </trkpt>
      <trkpt lat="45.10045" lon="3.87471">
        <ele>728.34</ele>
        <time>2026-03-05T09:45:36Z</time>
      </trkpt>
      <trkpt lat="45.10045" lon="3.87469">
        <ele>728.34</ele>
        <time>2026-03-05T09:45:37Z</time>
      </trkpt>
      <trkpt lat="45.10044" lon="3.87467">
        <ele>728.34</ele>
        <time>2026-03-05T09:45:38Z</time>
      </trkpt>
      <trkpt lat="45.1004" lon="3.87464">
        <ele>728.34</ele>
        <time>2026-03-05T09:45:42Z</time>
      </trkpt>
      <trkpt lat="45.10039" lon="3.87462">
        <ele>728.34</ele>
        <time>2026-03-05T09:45:43Z</time>
      </trkpt>
      <trkpt lat="45.10038" lon="3.87461">
        <ele>728.34</ele>
        <time>2026-03-05T09:45:44Z</time>
      </trkpt>
      <trkpt lat="45.10037" lon="3.87459">
        <ele>728.82</ele>
        <time>2026-03-05T09:45:45Z</time>
      </trkpt>
      <trkpt lat="45.10037" lon="3.87457">
        <ele>728.82</ele>
        <time>2026-03-05T09:45:46Z</time>
      </trkpt>
      <trkpt lat="45.10032" lon="3.87439">
        <ele>727.86</ele>
        <time>2026-03-05T09:45:56Z</time>
      </trkpt>
      <trkpt lat="45.10031" lon="3.87437">
        <ele>727.37</ele>
        <time>2026-03-05T09:45:57Z</time>
      </trkpt>
      <trkpt lat="45.10031" lon="3.87435">
        <ele>727.37</ele>
        <time>2026-03-05T09:45:58Z</time>
      </trkpt>
      <trkpt lat="45.1002" lon="3.87414">
        <ele>726.41</ele>
        <time>2026-03-05T09:46:11Z</time>
      </trkpt>
      <trkpt lat="45.10011" lon="3.874">
        <ele>727.37</ele>
        <time>2026-03-05T09:46:23Z</time>
      </trkpt>
      <trkpt lat="45.10009" lon="3.87392">
        <ele>726.89</ele>
        <time>2026-03-05T09:46:27Z</time>
      </trkpt>
      <trkpt lat="45.10005" lon="3.87384">
        <ele>726.41</ele>
        <time>2026-03-05T09:46:33Z</time>
      </trkpt>
      <trkpt lat="45.10005" lon="3.87382">
        <ele>726.41</ele>
        <time>2026-03-05T09:46:34Z</time>
      </trkpt>
      <trkpt lat="45.10005" lon="3.87379">
        <ele>725.45</ele>
        <time>2026-03-05T09:46:43Z</time>
      </trkpt>
      <trkpt lat="45.10004" lon="3.87378">
        <ele>724.97</ele>
        <time>2026-03-05T09:46:44Z</time>
      </trkpt>
      <trkpt lat="45.09993" lon="3.87354">
        <ele>724.01</ele>
        <time>2026-03-05T09:46:58Z</time>
      </trkpt>
      <trkpt lat="45.09979" lon="3.87334">
        <ele>727.86</ele>
        <time>2026-03-05T09:47:12Z</time>
      </trkpt>
      <trkpt lat="45.09962" lon="3.87319">
        <ele>731.22</ele>
        <time>2026-03-05T09:47:26Z</time>
      </trkpt>
      <trkpt lat="45.09941" lon="3.87297">
        <ele>731.22</ele>
        <time>2026-03-05T09:47:41Z</time>
      </trkpt>
      <trkpt lat="45.09924" lon="3.87285">
        <ele>730.74</ele>
        <time>2026-03-05T09:47:55Z</time>
      </trkpt>
      <trkpt lat="45.09912" lon="3.87274">
        <ele>730.26</ele>
        <time>2026-03-05T09:48:08Z</time>
      </trkpt>
      <trkpt lat="45.09911" lon="3.87274">
        <ele>729.78</ele>
        <time>2026-03-05T09:48:12Z</time>
      </trkpt>
      <trkpt lat="45.09909" lon="3.87273">
        <ele>729.78</ele>
        <time>2026-03-05T09:48:13Z</time>
      </trkpt>
      <trkpt lat="45.09908" lon="3.87272">
        <ele>729.78</ele>
        <time>2026-03-05T09:48:14Z</time>
      </trkpt>
      <trkpt lat="45.09907" lon="3.87271">
        <ele>729.3</ele>
        <time>2026-03-05T09:48:15Z</time>
      </trkpt>
      <trkpt lat="45.09906" lon="3.8727">
        <ele>728.82</ele>
        <time>2026-03-05T09:48:16Z</time>
      </trkpt>
      <trkpt lat="45.09905" lon="3.87269">
        <ele>728.82</ele>
        <time>2026-03-05T09:48:17Z</time>
      </trkpt>
      <trkpt lat="45.09904" lon="3.87267">
        <ele>728.82</ele>
        <time>2026-03-05T09:48:18Z</time>
      </trkpt>
      <trkpt lat="45.09902" lon="3.87266">
        <ele>728.34</ele>
        <time>2026-03-05T09:48:19Z</time>
      </trkpt>
      <trkpt lat="45.09901" lon="3.87265">
        <ele>728.34</ele>
        <time>2026-03-05T09:48:20Z</time>
      </trkpt>
      <trkpt lat="45.09885" lon="3.87254">
        <ele>727.37</ele>
        <time>2026-03-05T09:48:34Z</time>
      </trkpt>
      <trkpt lat="45.09869" lon="3.87244">
        <ele>724.97</ele>
        <time>2026-03-05T09:48:47Z</time>
      </trkpt>
      <trkpt lat="45.09852" lon="3.87227">
        <ele>720.16</ele>
        <time>2026-03-05T09:49:02Z</time>
      </trkpt>
      <trkpt lat="45.09837" lon="3.87211">
        <ele>716.32</ele>
        <time>2026-03-05T09:49:17Z</time>
      </trkpt>
      <trkpt lat="45.09816" lon="3.87196">
        <ele>718.24</ele>
        <time>2026-03-05T09:49:33Z</time>
      </trkpt>
      <trkpt lat="45.09796" lon="3.87177">
        <ele>719.2</ele>
        <time>2026-03-05T09:49:49Z</time>
      </trkpt>
      <trkpt lat="45.09785" lon="3.87171">
        <ele>720.16</ele>
        <time>2026-03-05T09:49:59Z</time>
      </trkpt>
      <trkpt lat="45.0977" lon="3.8716">
        <ele>720.16</ele>
        <time>2026-03-05T09:50:12Z</time>
      </trkpt>
      <trkpt lat="45.09754" lon="3.87144">
        <ele>718.24</ele>
        <time>2026-03-05T09:50:25Z</time>
      </trkpt>
      <trkpt lat="45.09739" lon="3.87129">
        <ele>715.36</ele>
        <time>2026-03-05T09:50:38Z</time>
      </trkpt>
      <trkpt lat="45.09725" lon="3.87109">
        <ele>713.92</ele>
        <time>2026-03-05T09:50:53Z</time>
      </trkpt>
      <trkpt lat="45.09722" lon="3.87106">
        <ele>713.92</ele>
        <time>2026-03-05T09:50:55Z</time>
      </trkpt>
      <trkpt lat="45.09709" lon="3.87091">
        <ele>713.92</ele>
        <time>2026-03-05T09:51:08Z</time>
      </trkpt>
      <trkpt lat="45.09695" lon="3.8708">
        <ele>713.92</ele>
        <time>2026-03-05T09:51:21Z</time>
      </trkpt>
      <trkpt lat="45.09678" lon="3.87063">
        <ele>711.99</ele>
        <time>2026-03-05T09:51:36Z</time>
      </trkpt>
      <trkpt lat="45.09662" lon="3.87038">
        <ele>707.67</ele>
        <time>2026-03-05T09:51:53Z</time>
      </trkpt>
      <trkpt lat="45.0965" lon="3.87021">
        <ele>706.71</ele>
        <time>2026-03-05T09:52:07Z</time>
      </trkpt>
      <trkpt lat="45.0963" lon="3.87007">
        <ele>703.82</ele>
        <time>2026-03-05T09:52:23Z</time>
      </trkpt>
      <trkpt lat="45.09616" lon="3.86987">
        <ele>703.34</ele>
        <time>2026-03-05T09:52:37Z</time>
      </trkpt>
      <trkpt lat="45.09602" lon="3.86968">
        <ele>702.38</ele>
        <time>2026-03-05T09:52:50Z</time>
      </trkpt>
      <trkpt lat="45.09588" lon="3.8695">
        <ele>702.86</ele>
        <time>2026-03-05T09:53:04Z</time>
      </trkpt>
      <trkpt lat="45.09573" lon="3.86936">
        <ele>702.38</ele>
        <time>2026-03-05T09:53:19Z</time>
      </trkpt>
      <trkpt lat="45.09553" lon="3.86921">
        <ele>702.86</ele>
        <time>2026-03-05T09:53:35Z</time>
      </trkpt>
      <trkpt lat="45.09532" lon="3.86905">
        <ele>699.5</ele>
        <time>2026-03-05T09:53:51Z</time>
      </trkpt>
      <trkpt lat="45.09514" lon="3.8689">
        <ele>695.65</ele>
        <time>2026-03-05T09:54:05Z</time>
      </trkpt>
      <trkpt lat="45.09507" lon="3.86885">
        <ele>694.21</ele>
        <time>2026-03-05T09:54:13Z</time>
      </trkpt>
      <trkpt lat="45.09505" lon="3.86884">
        <ele>693.73</ele>
        <time>2026-03-05T09:54:14Z</time>
      </trkpt>
      <trkpt lat="45.09504" lon="3.86883">
        <ele>693.25</ele>
        <time>2026-03-05T09:54:15Z</time>
      </trkpt>
      <trkpt lat="45.09502" lon="3.86882">
        <ele>692.77</ele>
        <time>2026-03-05T09:54:16Z</time>
      </trkpt>
      <trkpt lat="45.09501" lon="3.86881">
        <ele>692.29</ele>
        <time>2026-03-05T09:54:17Z</time>
      </trkpt>
      <trkpt lat="45.09484" lon="3.86863">
        <ele>687.96</ele>
        <time>2026-03-05T09:54:31Z</time>
      </trkpt>
      <trkpt lat="45.09474" lon="3.86848">
        <ele>686.04</ele>
        <time>2026-03-05T09:54:43Z</time>
      </trkpt>
      <trkpt lat="45.09463" lon="3.86831">
        <ele>682.67</ele>
        <time>2026-03-05T09:54:56Z</time>
      </trkpt>
      <trkpt lat="45.09458" lon="3.86823">
        <ele>679.31</ele>
        <time>2026-03-05T09:55:02Z</time>
      </trkpt>
      <trkpt lat="45.09458" lon="3.86821">
        <ele>679.31</ele>
        <time>2026-03-05T09:55:03Z</time>
      </trkpt>
      <trkpt lat="45.09457" lon="3.86818">
        <ele>678.83</ele>
        <time>2026-03-05T09:55:04Z</time>
      </trkpt>
      <trkpt lat="45.09456" lon="3.86817">
        <ele>678.35</ele>
        <time>2026-03-05T09:55:05Z</time>
      </trkpt>
      <trkpt lat="45.09456" lon="3.86815">
        <ele>678.35</ele>
        <time>2026-03-05T09:55:06Z</time>
      </trkpt>
      <trkpt lat="45.09445" lon="3.86797">
        <ele>675.94</ele>
        <time>2026-03-05T09:55:19Z</time>
      </trkpt>
      <trkpt lat="45.09434" lon="3.8678">
        <ele>673.06</ele>
        <time>2026-03-05T09:55:32Z</time>
      </trkpt>
      <trkpt lat="45.09424" lon="3.86763">
        <ele>671.62</ele>
        <time>2026-03-05T09:55:44Z</time>
      </trkpt>
      <trkpt lat="45.09411" lon="3.86741">
        <ele>670.66</ele>
        <time>2026-03-05T09:55:58Z</time>
      </trkpt>
      <trkpt lat="45.09408" lon="3.86735">
        <ele>669.7</ele>
        <time>2026-03-05T09:56:03Z</time>
      </trkpt>
      <trkpt lat="45.094" lon="3.86718">
        <ele>666.81</ele>
        <time>2026-03-05T09:56:15Z</time>
      </trkpt>
      <trkpt lat="45.094" lon="3.86716">
        <ele>666.81</ele>
        <time>2026-03-05T09:56:16Z</time>
      </trkpt>
      <trkpt lat="45.09399" lon="3.86714">
        <ele>666.33</ele>
        <time>2026-03-05T09:56:17Z</time>
      </trkpt>
      <trkpt lat="45.09398" lon="3.86713">
        <ele>666.33</ele>
        <time>2026-03-05T09:56:18Z</time>
      </trkpt>
      <trkpt lat="45.09397" lon="3.86711">
        <ele>666.33</ele>
        <time>2026-03-05T09:56:19Z</time>
      </trkpt>
      <trkpt lat="45.09395" lon="3.86709">
        <ele>666.33</ele>
        <time>2026-03-05T09:56:20Z</time>
      </trkpt>
      <trkpt lat="45.09394" lon="3.86707">
        <ele>666.33</ele>
        <time>2026-03-05T09:56:21Z</time>
      </trkpt>
      <trkpt lat="45.09377" lon="3.86692">
        <ele>663.45</ele>
        <time>2026-03-05T09:56:38Z</time>
      </trkpt>
      <trkpt lat="45.09359" lon="3.86674">
        <ele>661.52</ele>
        <time>2026-03-05T09:56:49Z</time>
      </trkpt>
      <trkpt lat="45.09346" lon="3.86665">
        <ele>656.72</ele>
        <time>2026-03-05T09:57:03Z</time>
      </trkpt>
      <trkpt lat="45.09323" lon="3.86652">
        <ele>652.39</ele>
        <time>2026-03-05T09:57:15Z</time>
      </trkpt>
      <trkpt lat="45.09313" lon="3.86647">
        <ele>650.95</ele>
        <time>2026-03-05T09:57:26Z</time>
      </trkpt>
      <trkpt lat="45.09306" lon="3.86644">
        <ele>649.99</ele>
        <time>2026-03-05T09:57:32Z</time>
      </trkpt>
      <trkpt lat="45.09286" lon="3.86651">
        <ele>648.07</ele>
        <time>2026-03-05T09:57:50Z</time>
      </trkpt>
      <trkpt lat="45.09268" lon="3.86661">
        <ele>648.55</ele>
        <time>2026-03-05T09:58:11Z</time>
      </trkpt>
      <trkpt lat="45.09267" lon="3.86665">
        <ele>649.03</ele>
        <time>2026-03-05T09:58:13Z</time>
      </trkpt>
      <trkpt lat="45.09238" lon="3.86698">
        <ele>649.51</ele>
        <time>2026-03-05T09:58:37Z</time>
      </trkpt>
      <trkpt lat="45.09233" lon="3.86697">
        <ele>649.03</ele>
        <time>2026-03-05T09:58:40Z</time>
      </trkpt>
      <trkpt lat="45.09232" lon="3.86697">
        <ele>649.03</ele>
        <time>2026-03-05T09:58:41Z</time>
      </trkpt>
      <trkpt lat="45.09231" lon="3.86696">
        <ele>649.03</ele>
        <time>2026-03-05T09:58:42Z</time>
      </trkpt>
      <trkpt lat="45.09207" lon="3.8667">
        <ele>649.51</ele>
        <time>2026-03-05T09:59:04Z</time>
      </trkpt>
      <trkpt lat="45.09193" lon="3.86635">
        <ele>654.31</ele>
        <time>2026-03-05T09:59:26Z</time>
      </trkpt>
      <trkpt lat="45.0918" lon="3.86601">
        <ele>654.31</ele>
        <time>2026-03-05T09:59:45Z</time>
      </trkpt>
      <trkpt lat="45.09157" lon="3.86581">
        <ele>654.31</ele>
        <time>2026-03-05T10:00:04Z</time>
      </trkpt>
      <trkpt lat="45.09124" lon="3.86567">
        <ele>653.83</ele>
        <time>2026-03-05T10:00:28Z</time>
      </trkpt>
      <trkpt lat="45.09083" lon="3.86568">
        <ele>656.24</ele>
        <time>2026-03-05T10:00:49Z</time>
      </trkpt>
      <trkpt lat="45.09072" lon="3.86566">
        <ele>657.68</ele>
        <time>2026-03-05T10:00:57Z</time>
      </trkpt>
      <trkpt lat="45.0907" lon="3.86565">
        <ele>657.68</ele>
        <time>2026-03-05T10:00:58Z</time>
      </trkpt>
      <trkpt lat="45.09069" lon="3.86564">
        <ele>658.16</ele>
        <time>2026-03-05T10:00:59Z</time>
      </trkpt>
      <trkpt lat="45.09067" lon="3.86563">
        <ele>658.16</ele>
        <time>2026-03-05T10:01:00Z</time>
      </trkpt>
      <trkpt lat="45.09065" lon="3.86563">
        <ele>658.64</ele>
        <time>2026-03-05T10:01:01Z</time>
      </trkpt>
      <trkpt lat="45.09064" lon="3.86562">
        <ele>658.64</ele>
        <time>2026-03-05T10:01:02Z</time>
      </trkpt>
      <trkpt lat="45.09037" lon="3.86551">
        <ele>662.49</ele>
        <time>2026-03-05T10:01:22Z</time>
      </trkpt>
      <trkpt lat="45.09011" lon="3.86534">
        <ele>665.37</ele>
        <time>2026-03-05T10:01:44Z</time>
      </trkpt>
      <trkpt lat="45.08979" lon="3.86515">
        <ele>666.81</ele>
        <time>2026-03-05T10:02:08Z</time>
      </trkpt>
      <trkpt lat="45.08966" lon="3.8651">
        <ele>667.77</ele>
        <time>2026-03-05T10:02:19Z</time>
      </trkpt>
      <trkpt lat="45.08965" lon="3.86509">
        <ele>668.25</ele>
        <time>2026-03-05T10:02:20Z</time>
      </trkpt>
      <trkpt lat="45.08944" lon="3.8648">
        <ele>669.7</ele>
        <time>2026-03-05T10:02:41Z</time>
      </trkpt>
      <trkpt lat="45.08921" lon="3.86451">
        <ele>671.14</ele>
        <time>2026-03-05T10:03:04Z</time>
      </trkpt>
      <trkpt lat="45.08887" lon="3.86425">
        <ele>671.62</ele>
        <time>2026-03-05T10:03:30Z</time>
      </trkpt>
      <trkpt lat="45.08872" lon="3.86406">
        <ele>676.42</ele>
        <time>2026-03-05T10:03:46Z</time>
      </trkpt>
      <trkpt lat="45.08848" lon="3.8639">
        <ele>674.98</ele>
        <time>2026-03-05T10:04:07Z</time>
      </trkpt>
      <trkpt lat="45.08836" lon="3.86384">
        <ele>674.02</ele>
        <time>2026-03-05T10:04:26Z</time>
      </trkpt>
      <trkpt lat="45.08811" lon="3.86367">
        <ele>673.06</ele>
        <time>2026-03-05T10:04:43Z</time>
      </trkpt>
      <trkpt lat="45.08788" lon="3.8634">
        <ele>670.66</ele>
        <time>2026-03-05T10:05:04Z</time>
      </trkpt>
      <trkpt lat="45.08763" lon="3.86321">
        <ele>671.62</ele>
        <time>2026-03-05T10:05:24Z</time>
      </trkpt>
      <trkpt lat="45.08731" lon="3.86297">
        <ele>671.14</ele>
        <time>2026-03-05T10:05:48Z</time>
      </trkpt>
      <trkpt lat="45.08693" lon="3.86277">
        <ele>666.81</ele>
        <time>2026-03-05T10:06:15Z</time>
      </trkpt>
      <trkpt lat="45.08654" lon="3.86257">
        <ele>661.52</ele>
        <time>2026-03-05T10:06:43Z</time>
      </trkpt>
      <trkpt lat="45.08626" lon="3.86233">
        <ele>662.01</ele>
        <time>2026-03-05T10:07:06Z</time>
      </trkpt>
      <trkpt lat="45.08588" lon="3.86215">
        <ele>663.45</ele>
        <time>2026-03-05T10:07:33Z</time>
      </trkpt>
      <trkpt lat="45.08554" lon="3.86208">
        <ele>666.33</ele>
        <time>2026-03-05T10:07:56Z</time>
      </trkpt>
      <trkpt lat="45.08534" lon="3.86201">
        <ele>667.77</ele>
        <time>2026-03-05T10:08:13Z</time>
      </trkpt>
      <trkpt lat="45.08508" lon="3.86188">
        <ele>669.22</ele>
        <time>2026-03-05T10:08:32Z</time>
      </trkpt>
      <trkpt lat="45.08503" lon="3.86186">
        <ele>669.7</ele>
        <time>2026-03-05T10:08:37Z</time>
      </trkpt>
      <trkpt lat="45.08477" lon="3.86178">
        <ele>671.62</ele>
        <time>2026-03-05T10:08:58Z</time>
      </trkpt>
      <trkpt lat="45.08454" lon="3.86171">
        <ele>674.98</ele>
        <time>2026-03-05T10:09:19Z</time>
      </trkpt>
      <trkpt lat="45.08442" lon="3.86166">
        <ele>675.46</ele>
        <time>2026-03-05T10:09:37Z</time>
      </trkpt>
      <trkpt lat="45.08441" lon="3.86162">
        <ele>676.42</ele>
        <time>2026-03-05T10:09:59Z</time>
      </trkpt>
      <trkpt lat="45.08436" lon="3.86162">
        <ele>675.46</ele>
        <time>2026-03-05T10:10:25Z</time>
      </trkpt>
      <trkpt lat="45.08438" lon="3.86158">
        <ele>673.54</ele>
        <time>2026-03-05T10:10:57Z</time>
      </trkpt>
      <trkpt lat="45.08429" lon="3.86158">
        <ele>673.06</ele>
        <time>2026-03-05T10:11:22Z</time>
      </trkpt>
      <trkpt lat="45.08409" lon="3.86154">
        <ele>673.54</ele>
        <time>2026-03-05T10:11:42Z</time>
      </trkpt>
      <trkpt lat="45.08381" lon="3.86145">
        <ele>674.98</ele>
        <time>2026-03-05T10:12:02Z</time>
      </trkpt>
      <trkpt lat="45.08353" lon="3.86136">
        <ele>675.46</ele>
        <time>2026-03-05T10:12:23Z</time>
      </trkpt>
      <trkpt lat="45.08329" lon="3.86129">
        <ele>675.46</ele>
        <time>2026-03-05T10:12:40Z</time>
      </trkpt>
      <trkpt lat="45.08301" lon="3.86121">
        <ele>674.98</ele>
        <time>2026-03-05T10:13:00Z</time>
      </trkpt>
      <trkpt lat="45.08273" lon="3.86113">
        <ele>674.5</ele>
        <time>2026-03-05T10:13:22Z</time>
      </trkpt>
      <trkpt lat="45.0824" lon="3.86115">
        <ele>674.5</ele>
        <time>2026-03-05T10:13:45Z</time>
      </trkpt>
      <trkpt lat="45.08213" lon="3.86122">
        <ele>675.46</ele>
        <time>2026-03-05T10:14:07Z</time>
      </trkpt>
      <trkpt lat="45.0819" lon="3.86126">
        <ele>677.39</ele>
        <time>2026-03-05T10:14:27Z</time>
      </trkpt>
      <trkpt lat="45.08165" lon="3.8613">
        <ele>676.42</ele>
        <time>2026-03-05T10:14:44Z</time>
      </trkpt>
      <trkpt lat="45.08149" lon="3.86136">
        <ele>674.98</ele>
        <time>2026-03-05T10:14:58Z</time>
      </trkpt>
      <trkpt lat="45.08131" lon="3.86144">
        <ele>675.46</ele>
        <time>2026-03-05T10:15:12Z</time>
      </trkpt>
      <trkpt lat="45.08114" lon="3.86152">
        <ele>675.94</ele>
        <time>2026-03-05T10:15:23Z</time>
      </trkpt>
      <trkpt lat="45.08097" lon="3.86158">
        <ele>677.87</ele>
        <time>2026-03-05T10:15:35Z</time>
      </trkpt>
      <trkpt lat="45.0807" lon="3.86171">
        <ele>679.31</ele>
        <time>2026-03-05T10:15:58Z</time>
      </trkpt>
      <trkpt lat="45.08048" lon="3.86173">
        <ele>679.79</ele>
        <time>2026-03-05T10:16:15Z</time>
      </trkpt>
      <trkpt lat="45.08032" lon="3.86175">
        <ele>678.83</ele>
        <time>2026-03-05T10:16:27Z</time>
      </trkpt>
      <trkpt lat="45.08016" lon="3.86181">
        <ele>680.27</ele>
        <time>2026-03-05T10:16:39Z</time>
      </trkpt>
      <trkpt lat="45.08009" lon="3.86188">
        <ele>679.31</ele>
        <time>2026-03-05T10:16:46Z</time>
      </trkpt>
      <trkpt lat="45.08008" lon="3.86189">
        <ele>679.31</ele>
        <time>2026-03-05T10:16:47Z</time>
      </trkpt>
      <trkpt lat="45.08006" lon="3.8619">
        <ele>679.31</ele>
        <time>2026-03-05T10:16:48Z</time>
      </trkpt>
      <trkpt lat="45.08005" lon="3.86192">
        <ele>679.31</ele>
        <time>2026-03-05T10:16:49Z</time>
      </trkpt>
      <trkpt lat="45.08003" lon="3.86193">
        <ele>679.31</ele>
        <time>2026-03-05T10:16:50Z</time>
      </trkpt>
      <trkpt lat="45.08002" lon="3.86193">
        <ele>679.31</ele>
        <time>2026-03-05T10:16:51Z</time>
      </trkpt>
      <trkpt lat="45.07983" lon="3.86207">
        <ele>678.35</ele>
        <time>2026-03-05T10:17:07Z</time>
      </trkpt>
      <trkpt lat="45.07965" lon="3.86221">
        <ele>678.83</ele>
        <time>2026-03-05T10:17:21Z</time>
      </trkpt>
      <trkpt lat="45.07946" lon="3.86237">
        <ele>679.79</ele>
        <time>2026-03-05T10:17:35Z</time>
      </trkpt>
      <trkpt lat="45.07927" lon="3.86255">
        <ele>680.27</ele>
        <time>2026-03-05T10:17:48Z</time>
      </trkpt>
      <trkpt lat="45.07909" lon="3.86266">
        <ele>680.27</ele>
        <time>2026-03-05T10:18:03Z</time>
      </trkpt>
      <trkpt lat="45.0789" lon="3.8628">
        <ele>681.71</ele>
        <time>2026-03-05T10:18:17Z</time>
      </trkpt>
      <trkpt lat="45.07867" lon="3.86294">
        <ele>683.15</ele>
        <time>2026-03-05T10:18:34Z</time>
      </trkpt>
      <trkpt lat="45.07854" lon="3.863">
        <ele>684.12</ele>
        <time>2026-03-05T10:18:47Z</time>
      </trkpt>
      <trkpt lat="45.07853" lon="3.863">
        <ele>684.6</ele>
        <time>2026-03-05T10:18:48Z</time>
      </trkpt>
      <trkpt lat="45.07834" lon="3.86301">
        <ele>685.56</ele>
        <time>2026-03-05T10:19:03Z</time>
      </trkpt>
      <trkpt lat="45.0781" lon="3.86295">
        <ele>687.48</ele>
        <time>2026-03-05T10:19:19Z</time>
      </trkpt>
      <trkpt lat="45.07785" lon="3.86292">
        <ele>687</ele>
        <time>2026-03-05T10:19:36Z</time>
      </trkpt>
      <trkpt lat="45.07783" lon="3.86293">
        <ele>687</ele>
        <time>2026-03-05T10:19:38Z</time>
      </trkpt>
      <trkpt lat="45.07781" lon="3.86293">
        <ele>687</ele>
        <time>2026-03-05T10:19:39Z</time>
      </trkpt>
      <trkpt lat="45.0776" lon="3.8629">
        <ele>687.48</ele>
        <time>2026-03-05T10:19:53Z</time>
      </trkpt>
      <trkpt lat="45.07751" lon="3.8629">
        <ele>687.48</ele>
        <time>2026-03-05T10:20:03Z</time>
      </trkpt>
      <trkpt lat="45.07732" lon="3.86299">
        <ele>687.48</ele>
        <time>2026-03-05T10:20:17Z</time>
      </trkpt>
      <trkpt lat="45.07713" lon="3.86309">
        <ele>687.96</ele>
        <time>2026-03-05T10:20:31Z</time>
      </trkpt>
      <trkpt lat="45.07699" lon="3.86317">
        <ele>688.92</ele>
        <time>2026-03-05T10:20:44Z</time>
      </trkpt>
      <trkpt lat="45.07684" lon="3.8633">
        <ele>687.48</ele>
        <time>2026-03-05T10:20:59Z</time>
      </trkpt>
      <trkpt lat="45.07673" lon="3.86346">
        <ele>687.48</ele>
        <time>2026-03-05T10:21:11Z</time>
      </trkpt>
      <trkpt lat="45.0765" lon="3.86359">
        <ele>688.44</ele>
        <time>2026-03-05T10:21:28Z</time>
      </trkpt>
      <trkpt lat="45.0765" lon="3.86362">
        <ele>688.92</ele>
        <time>2026-03-05T10:21:45Z</time>
      </trkpt>
      <trkpt lat="45.07632" lon="3.86374">
        <ele>689.4</ele>
        <time>2026-03-05T10:22:00Z</time>
      </trkpt>
      <trkpt lat="45.07612" lon="3.86401">
        <ele>689.88</ele>
        <time>2026-03-05T10:22:16Z</time>
      </trkpt>
      <trkpt lat="45.07578" lon="3.86427">
        <ele>686.52</ele>
        <time>2026-03-05T10:22:39Z</time>
      </trkpt>
      <trkpt lat="45.07566" lon="3.86428">
        <ele>685.56</ele>
        <time>2026-03-05T10:22:55Z</time>
      </trkpt>
      <trkpt lat="45.07537" lon="3.86409">
        <ele>687.48</ele>
        <time>2026-03-05T10:23:16Z</time>
      </trkpt>
      <trkpt lat="45.07509" lon="3.8638">
        <ele>691.33</ele>
        <time>2026-03-05T10:23:41Z</time>
      </trkpt>
      <trkpt lat="45.07482" lon="3.86352">
        <ele>692.77</ele>
        <time>2026-03-05T10:24:03Z</time>
      </trkpt>
      <trkpt lat="45.07471" lon="3.8634">
        <ele>694.69</ele>
        <time>2026-03-05T10:24:24Z</time>
      </trkpt>
      <trkpt lat="45.07444" lon="3.86317">
        <ele>695.65</ele>
        <time>2026-03-05T10:24:40Z</time>
      </trkpt>
      <trkpt lat="45.07412" lon="3.86287">
        <ele>695.17</ele>
        <time>2026-03-05T10:25:02Z</time>
      </trkpt>
      <trkpt lat="45.07389" lon="3.86264">
        <ele>695.65</ele>
        <time>2026-03-05T10:25:23Z</time>
      </trkpt>
      <trkpt lat="45.07368" lon="3.86249">
        <ele>696.61</ele>
        <time>2026-03-05T10:25:42Z</time>
      </trkpt>
      <trkpt lat="45.07348" lon="3.86239">
        <ele>699.5</ele>
        <time>2026-03-05T10:26:01Z</time>
      </trkpt>
      <trkpt lat="45.07328" lon="3.86226">
        <ele>701.9</ele>
        <time>2026-03-05T10:26:20Z</time>
      </trkpt>
      <trkpt lat="45.07318" lon="3.86215">
        <ele>705.26</ele>
        <time>2026-03-05T10:26:32Z</time>
      </trkpt>
      <trkpt lat="45.07297" lon="3.86196">
        <ele>709.59</ele>
        <time>2026-03-05T10:26:52Z</time>
      </trkpt>
      <trkpt lat="45.0728" lon="3.8618">
        <ele>712.95</ele>
        <time>2026-03-05T10:27:11Z</time>
      </trkpt>
      <trkpt lat="45.07254" lon="3.86161">
        <ele>717.28</ele>
        <time>2026-03-05T10:27:35Z</time>
      </trkpt>
      <trkpt lat="45.07237" lon="3.86147">
        <ele>720.16</ele>
        <time>2026-03-05T10:27:55Z</time>
      </trkpt>
      <trkpt lat="45.0723" lon="3.86141">
        <ele>723.05</ele>
        <time>2026-03-05T10:28:19Z</time>
      </trkpt>
      <trkpt lat="45.07226" lon="3.86114">
        <ele>725.93</ele>
        <time>2026-03-05T10:28:37Z</time>
      </trkpt>
      <trkpt lat="45.07217" lon="3.86082">
        <ele>729.3</ele>
        <time>2026-03-05T10:29:02Z</time>
      </trkpt>
      <trkpt lat="45.07205" lon="3.86071">
        <ele>730.74</ele>
        <time>2026-03-05T10:29:23Z</time>
      </trkpt>
      <trkpt lat="45.07189" lon="3.86066">
        <ele>735.55</ele>
        <time>2026-03-05T10:29:42Z</time>
      </trkpt>
      <trkpt lat="45.07179" lon="3.86058">
        <ele>739.87</ele>
        <time>2026-03-05T10:30:02Z</time>
      </trkpt>
      <trkpt lat="45.07159" lon="3.86051">
        <ele>743.72</ele>
        <time>2026-03-05T10:30:23Z</time>
      </trkpt>
      <trkpt lat="45.07142" lon="3.86046">
        <ele>745.64</ele>
        <time>2026-03-05T10:30:43Z</time>
      </trkpt>
      <trkpt lat="45.07136" lon="3.86039">
        <ele>748.04</ele>
        <time>2026-03-05T10:30:53Z</time>
      </trkpt>
      <trkpt lat="45.07129" lon="3.86028">
        <ele>751.41</ele>
        <time>2026-03-05T10:31:14Z</time>
      </trkpt>
      <trkpt lat="45.07121" lon="3.86001">
        <ele>757.18</ele>
        <time>2026-03-05T10:31:36Z</time>
      </trkpt>
      <trkpt lat="45.07114" lon="3.8599">
        <ele>763.42</ele>
        <time>2026-03-05T10:31:52Z</time>
      </trkpt>
      <trkpt lat="45.0711" lon="3.85993">
        <ele>769.67</ele>
        <time>2026-03-05T10:32:08Z</time>
      </trkpt>
      <trkpt lat="45.07099" lon="3.85994">
        <ele>767.75</ele>
        <time>2026-03-05T10:32:27Z</time>
      </trkpt>
      <trkpt lat="45.07102" lon="3.85988">
        <ele>765.83</ele>
        <time>2026-03-05T10:32:42Z</time>
      </trkpt>
      <trkpt lat="45.07095" lon="3.85984">
        <ele>771.11</ele>
        <time>2026-03-05T10:33:03Z</time>
      </trkpt>
      <trkpt lat="45.07094" lon="3.85993">
        <ele>770.63</ele>
        <time>2026-03-05T10:33:10Z</time>
      </trkpt>
      <trkpt lat="45.07096" lon="3.86016">
        <ele>766.31</ele>
        <time>2026-03-05T10:33:29Z</time>
      </trkpt>
      <trkpt lat="45.07099" lon="3.86027">
        <ele>769.67</ele>
        <time>2026-03-05T10:33:46Z</time>
      </trkpt>
      <trkpt lat="45.07093" lon="3.86038">
        <ele>775.92</ele>
        <time>2026-03-05T10:34:07Z</time>
      </trkpt>
      <trkpt lat="45.07089" lon="3.86045">
        <ele>777.84</ele>
        <time>2026-03-05T10:34:27Z</time>
      </trkpt>
      <trkpt lat="45.07089" lon="3.86049">
        <ele>777.84</ele>
        <time>2026-03-05T10:34:46Z</time>
      </trkpt>
      <trkpt lat="45.07085" lon="3.86056">
        <ele>765.83</ele>
        <time>2026-03-05T10:35:04Z</time>
      </trkpt>
      <trkpt lat="45.07077" lon="3.86057">
        <ele>763.42</ele>
        <time>2026-03-05T10:35:24Z</time>
      </trkpt>
      <trkpt lat="45.07083" lon="3.86065">
        <ele>765.35</ele>
        <time>2026-03-05T10:35:46Z</time>
      </trkpt>
      <trkpt lat="45.07086" lon="3.86064">
        <ele>769.19</ele>
        <time>2026-03-05T10:36:07Z</time>
      </trkpt>
      <trkpt lat="45.07079" lon="3.86079">
        <ele>769.67</ele>
        <time>2026-03-05T10:36:24Z</time>
      </trkpt>
      <trkpt lat="45.0706" lon="3.86104">
        <ele>763.9</ele>
        <time>2026-03-05T10:36:45Z</time>
      </trkpt>
      <trkpt lat="45.07054" lon="3.86125">
        <ele>766.79</ele>
        <time>2026-03-05T10:37:03Z</time>
      </trkpt>
      <trkpt lat="45.07045" lon="3.8615">
        <ele>774.96</ele>
        <time>2026-03-05T10:37:22Z</time>
      </trkpt>
      <trkpt lat="45.0703" lon="3.86176">
        <ele>778.32</ele>
        <time>2026-03-05T10:37:44Z</time>
      </trkpt>
      <trkpt lat="45.07018" lon="3.86199">
        <ele>780.73</ele>
        <time>2026-03-05T10:38:04Z</time>
      </trkpt>
      <trkpt lat="45.06996" lon="3.86219">
        <ele>774.96</ele>
        <time>2026-03-05T10:38:21Z</time>
      </trkpt>
      <trkpt lat="45.06981" lon="3.86241">
        <ele>775.44</ele>
        <time>2026-03-05T10:38:43Z</time>
      </trkpt>
      <trkpt lat="45.06966" lon="3.86261">
        <ele>763.42</ele>
        <time>2026-03-05T10:39:05Z</time>
      </trkpt>
      <trkpt lat="45.06962" lon="3.86261">
        <ele>759.1</ele>
        <time>2026-03-05T10:39:25Z</time>
      </trkpt>
      <trkpt lat="45.06962" lon="3.8626">
        <ele>758.62</ele>
        <time>2026-03-05T10:39:27Z</time>
      </trkpt>
      <trkpt lat="45.06928" lon="3.86263">
        <ele>757.18</ele>
        <time>2026-03-05T10:39:52Z</time>
      </trkpt>
      <trkpt lat="45.06903" lon="3.86266">
        <ele>757.66</ele>
        <time>2026-03-05T10:40:10Z</time>
      </trkpt>
      <trkpt lat="45.06881" lon="3.86275">
        <ele>755.73</ele>
        <time>2026-03-05T10:40:31Z</time>
      </trkpt>
      <trkpt lat="45.06873" lon="3.86288">
        <ele>749.49</ele>
        <time>2026-03-05T10:40:55Z</time>
      </trkpt>
      <trkpt lat="45.06871" lon="3.86315">
        <ele>741.79</ele>
        <time>2026-03-05T10:41:12Z</time>
      </trkpt>
      <trkpt lat="45.06857" lon="3.86352">
        <ele>736.99</ele>
        <time>2026-03-05T10:41:35Z</time>
      </trkpt>
      <trkpt lat="45.06851" lon="3.86364">
        <ele>733.14</ele>
        <time>2026-03-05T10:41:44Z</time>
      </trkpt>
      <trkpt lat="45.06834" lon="3.86405">
        <ele>722.57</ele>
        <time>2026-03-05T10:42:11Z</time>
      </trkpt>
      <trkpt lat="45.06836" lon="3.86405">
        <ele>717.28</ele>
        <time>2026-03-05T10:42:29Z</time>
      </trkpt>
      <trkpt lat="45.06812" lon="3.86418">
        <ele>713.92</ele>
        <time>2026-03-05T10:42:47Z</time>
      </trkpt>
      <trkpt lat="45.06817" lon="3.86431">
        <ele>711.99</ele>
        <time>2026-03-05T10:43:01Z</time>
      </trkpt>
      <trkpt lat="45.06816" lon="3.86449">
        <ele>713.92</ele>
        <time>2026-03-05T10:43:21Z</time>
      </trkpt>
      <trkpt lat="45.06827" lon="3.86473">
        <ele>713.92</ele>
        <time>2026-03-05T10:43:41Z</time>
      </trkpt>
      <trkpt lat="45.06826" lon="3.86496">
        <ele>714.88</ele>
        <time>2026-03-05T10:43:56Z</time>
      </trkpt>
      <trkpt lat="45.06835" lon="3.86508">
        <ele>714.88</ele>
        <time>2026-03-05T10:44:16Z</time>
      </trkpt>
      <trkpt lat="45.06833" lon="3.86508">
        <ele>714.88</ele>
        <time>2026-03-05T10:44:19Z</time>
      </trkpt>
      <trkpt lat="45.06823" lon="3.86555">
        <ele>711.99</ele>
        <time>2026-03-05T10:44:39Z</time>
      </trkpt>
      <trkpt lat="45.06822" lon="3.86583">
        <ele>704.78</ele>
        <time>2026-03-05T10:44:59Z</time>
      </trkpt>
      <trkpt lat="45.06816" lon="3.86598">
        <ele>702.38</ele>
        <time>2026-03-05T10:45:15Z</time>
      </trkpt>
      <trkpt lat="45.06816" lon="3.86608">
        <ele>700.94</ele>
        <time>2026-03-05T10:45:35Z</time>
      </trkpt>
      <trkpt lat="45.06809" lon="3.86637">
        <ele>701.42</ele>
        <time>2026-03-05T10:45:53Z</time>
      </trkpt>
      <trkpt lat="45.06797" lon="3.86681">
        <ele>699.98</ele>
        <time>2026-03-05T10:46:17Z</time>
      </trkpt>
      <trkpt lat="45.06796" lon="3.86697">
        <ele>698.53</ele>
        <time>2026-03-05T10:46:27Z</time>
      </trkpt>
      <trkpt lat="45.06786" lon="3.86746">
        <ele>695.65</ele>
        <time>2026-03-05T10:46:52Z</time>
      </trkpt>
      <trkpt lat="45.06775" lon="3.86797">
        <ele>694.69</ele>
        <time>2026-03-05T10:47:18Z</time>
      </trkpt>
      <trkpt lat="45.06765" lon="3.86842">
        <ele>697.09</ele>
        <time>2026-03-05T10:47:42Z</time>
      </trkpt>
      <trkpt lat="45.06759" lon="3.86886">
        <ele>696.61</ele>
        <time>2026-03-05T10:48:02Z</time>
      </trkpt>
      <trkpt lat="45.06749" lon="3.86927">
        <ele>698.53</ele>
        <time>2026-03-05T10:48:23Z</time>
      </trkpt>
      <trkpt lat="45.06742" lon="3.86971">
        <ele>699.5</ele>
        <time>2026-03-05T10:48:45Z</time>
      </trkpt>
      <trkpt lat="45.06729" lon="3.87011">
        <ele>699.5</ele>
        <time>2026-03-05T10:49:07Z</time>
      </trkpt>
      <trkpt lat="45.06719" lon="3.87046">
        <ele>702.38</ele>
        <time>2026-03-05T10:49:28Z</time>
      </trkpt>
      <trkpt lat="45.06708" lon="3.87081">
        <ele>702.38</ele>
        <time>2026-03-05T10:49:48Z</time>
      </trkpt>
      <trkpt lat="45.0669" lon="3.87119">
        <ele>701.9</ele>
        <time>2026-03-05T10:50:11Z</time>
      </trkpt>
      <trkpt lat="45.06674" lon="3.87158">
        <ele>701.9</ele>
        <time>2026-03-05T10:50:34Z</time>
      </trkpt>
      <trkpt lat="45.06662" lon="3.87204">
        <ele>699.5</ele>
        <time>2026-03-05T10:50:58Z</time>
      </trkpt>
      <trkpt lat="45.0665" lon="3.87253">
        <ele>696.13</ele>
        <time>2026-03-05T10:51:23Z</time>
      </trkpt>
      <trkpt lat="45.06641" lon="3.8729">
        <ele>696.61</ele>
        <time>2026-03-05T10:51:44Z</time>
      </trkpt>
      <trkpt lat="45.06633" lon="3.87331">
        <ele>696.61</ele>
        <time>2026-03-05T10:52:05Z</time>
      </trkpt>
      <trkpt lat="45.06622" lon="3.87367">
        <ele>695.17</ele>
        <time>2026-03-05T10:52:26Z</time>
      </trkpt>
      <trkpt lat="45.06605" lon="3.87395">
        <ele>691.81</ele>
        <time>2026-03-05T10:52:46Z</time>
      </trkpt>
      <trkpt lat="45.06587" lon="3.87426">
        <ele>687.48</ele>
        <time>2026-03-05T10:53:08Z</time>
      </trkpt>
      <trkpt lat="45.06575" lon="3.87465">
        <ele>682.19</ele>
        <time>2026-03-05T10:53:31Z</time>
      </trkpt>
      <trkpt lat="45.0657" lon="3.87507">
        <ele>677.39</ele>
        <time>2026-03-05T10:53:52Z</time>
      </trkpt>
      <trkpt lat="45.0657" lon="3.87546">
        <ele>674.98</ele>
        <time>2026-03-05T10:54:12Z</time>
      </trkpt>
      <trkpt lat="45.06562" lon="3.87581">
        <ele>675.46</ele>
        <time>2026-03-05T10:54:34Z</time>
      </trkpt>
      <trkpt lat="45.06557" lon="3.8758">
        <ele>675.94</ele>
        <time>2026-03-05T10:54:38Z</time>
      </trkpt>
      <trkpt lat="45.06523" lon="3.87584">
        <ele>676.91</ele>
        <time>2026-03-05T10:55:06Z</time>
      </trkpt>
      <trkpt lat="45.06487" lon="3.87562">
        <ele>674.5</ele>
        <time>2026-03-05T10:55:32Z</time>
      </trkpt>
      <trkpt lat="45.0645" lon="3.87562">
        <ele>674.02</ele>
        <time>2026-03-05T10:55:59Z</time>
      </trkpt>
      <trkpt lat="45.06424" lon="3.87562">
        <ele>674.02</ele>
        <time>2026-03-05T10:56:22Z</time>
      </trkpt>
      <trkpt lat="45.06412" lon="3.87587">
        <ele>674.02</ele>
        <time>2026-03-05T10:56:40Z</time>
      </trkpt>
      <trkpt lat="45.06387" lon="3.8759">
        <ele>675.46</ele>
        <time>2026-03-05T10:57:06Z</time>
      </trkpt>
      <trkpt lat="45.06361" lon="3.87596">
        <ele>678.35</ele>
        <time>2026-03-05T10:57:28Z</time>
      </trkpt>
      <trkpt lat="45.06329" lon="3.87602">
        <ele>678.83</ele>
        <time>2026-03-05T10:57:51Z</time>
      </trkpt>
      <trkpt lat="45.06308" lon="3.87613">
        <ele>685.56</ele>
        <time>2026-03-05T10:58:12Z</time>
      </trkpt>
      <trkpt lat="45.06282" lon="3.8761">
        <ele>689.4</ele>
        <time>2026-03-05T10:58:34Z</time>
      </trkpt>
      <trkpt lat="45.06251" lon="3.87601">
        <ele>691.81</ele>
        <time>2026-03-05T10:58:56Z</time>
      </trkpt>
      <trkpt lat="45.06226" lon="3.87589">
        <ele>694.69</ele>
        <time>2026-03-05T10:59:16Z</time>
      </trkpt>
      <trkpt lat="45.06198" lon="3.8759">
        <ele>699.5</ele>
        <time>2026-03-05T10:59:40Z</time>
      </trkpt>
      <trkpt lat="45.06178" lon="3.87602">
        <ele>702.86</ele>
        <time>2026-03-05T10:59:58Z</time>
      </trkpt>
      <trkpt lat="45.06162" lon="3.87621">
        <ele>706.71</ele>
        <time>2026-03-05T11:00:17Z</time>
      </trkpt>
      <trkpt lat="45.06137" lon="3.87636">
        <ele>711.99</ele>
        <time>2026-03-05T11:00:37Z</time>
      </trkpt>
      <trkpt lat="45.06118" lon="3.8765">
        <ele>714.88</ele>
        <time>2026-03-05T11:00:58Z</time>
      </trkpt>
      <trkpt lat="45.06097" lon="3.87659">
        <ele>719.2</ele>
        <time>2026-03-05T11:01:19Z</time>
      </trkpt>
      <trkpt lat="45.0608" lon="3.8766">
        <ele>729.3</ele>
        <time>2026-03-05T11:01:41Z</time>
      </trkpt>
      <trkpt lat="45.06066" lon="3.87658">
        <ele>736.03</ele>
        <time>2026-03-05T11:02:01Z</time>
      </trkpt>
      <trkpt lat="45.0605" lon="3.8766">
        <ele>746.12</ele>
        <time>2026-03-05T11:02:23Z</time>
      </trkpt>
      <trkpt lat="45.06032" lon="3.87652">
        <ele>753.81</ele>
        <time>2026-03-05T11:02:43Z</time>
      </trkpt>
      <trkpt lat="45.06011" lon="3.87662">
        <ele>759.1</ele>
        <time>2026-03-05T11:03:04Z</time>
      </trkpt>
      <trkpt lat="45.0599" lon="3.87675">
        <ele>761.98</ele>
        <time>2026-03-05T11:03:25Z</time>
      </trkpt>
      <trkpt lat="45.05973" lon="3.87692">
        <ele>760.54</ele>
        <time>2026-03-05T11:03:42Z</time>
      </trkpt>
      <trkpt lat="45.05953" lon="3.877">
        <ele>760.54</ele>
        <time>2026-03-05T11:04:02Z</time>
      </trkpt>
      <trkpt lat="45.05931" lon="3.87723">
        <ele>762.46</ele>
        <time>2026-03-05T11:04:26Z</time>
      </trkpt>
      <trkpt lat="45.05909" lon="3.87752">
        <ele>765.35</ele>
        <time>2026-03-05T11:04:47Z</time>
      </trkpt>
      <trkpt lat="45.05902" lon="3.87761">
        <ele>765.35</ele>
        <time>2026-03-05T11:05:07Z</time>
      </trkpt>
      <trkpt lat="45.05902" lon="3.87764">
        <ele>765.35</ele>
        <time>2026-03-05T11:05:13Z</time>
      </trkpt>
      <trkpt lat="45.05911" lon="3.87778">
        <ele>762.94</ele>
        <time>2026-03-05T11:05:28Z</time>
      </trkpt>
      <trkpt lat="45.05924" lon="3.87806">
        <ele>756.69</ele>
        <time>2026-03-05T11:05:48Z</time>
      </trkpt>
      <trkpt lat="45.05926" lon="3.87832">
        <ele>755.73</ele>
        <time>2026-03-05T11:06:05Z</time>
      </trkpt>
      <trkpt lat="45.05928" lon="3.87876">
        <ele>755.73</ele>
        <time>2026-03-05T11:06:25Z</time>
      </trkpt>
      <trkpt lat="45.0593" lon="3.8791">
        <ele>754.29</ele>
        <time>2026-03-05T11:06:45Z</time>
      </trkpt>
      <trkpt lat="45.05929" lon="3.87938">
        <ele>755.73</ele>
        <time>2026-03-05T11:07:03Z</time>
      </trkpt>
      <trkpt lat="45.0593" lon="3.87967">
        <ele>757.66</ele>
        <time>2026-03-05T11:07:21Z</time>
      </trkpt>
      <trkpt lat="45.0593" lon="3.87999">
        <ele>759.1</ele>
        <time>2026-03-05T11:07:40Z</time>
      </trkpt>
      <trkpt lat="45.05927" lon="3.88037">
        <ele>758.14</ele>
        <time>2026-03-05T11:07:59Z</time>
      </trkpt>
      <trkpt lat="45.05923" lon="3.88067">
        <ele>755.73</ele>
        <time>2026-03-05T11:08:14Z</time>
      </trkpt>
      <trkpt lat="45.05921" lon="3.88092">
        <ele>754.29</ele>
        <time>2026-03-05T11:08:31Z</time>
      </trkpt>
      <trkpt lat="45.05919" lon="3.88122">
        <ele>752.37</ele>
        <time>2026-03-05T11:08:50Z</time>
      </trkpt>
      <trkpt lat="45.05919" lon="3.88156">
        <ele>749.97</ele>
        <time>2026-03-05T11:09:08Z</time>
      </trkpt>
      <trkpt lat="45.05925" lon="3.88185">
        <ele>748.52</ele>
        <time>2026-03-05T11:09:24Z</time>
      </trkpt>
      <trkpt lat="45.05931" lon="3.8822">
        <ele>747.56</ele>
        <time>2026-03-05T11:09:43Z</time>
      </trkpt>
      <trkpt lat="45.05934" lon="3.88253">
        <ele>746.12</ele>
        <time>2026-03-05T11:10:03Z</time>
      </trkpt>
      <trkpt lat="45.05927" lon="3.88286">
        <ele>743.72</ele>
        <time>2026-03-05T11:10:22Z</time>
      </trkpt>
      <trkpt lat="45.05924" lon="3.88327">
        <ele>744.2</ele>
        <time>2026-03-05T11:10:43Z</time>
      </trkpt>
      <trkpt lat="45.05922" lon="3.8837">
        <ele>744.68</ele>
        <time>2026-03-05T11:11:06Z</time>
      </trkpt>
      <trkpt lat="45.05933" lon="3.8841">
        <ele>745.16</ele>
        <time>2026-03-05T11:11:26Z</time>
      </trkpt>
      <trkpt lat="45.05948" lon="3.8844">
        <ele>745.64</ele>
        <time>2026-03-05T11:11:45Z</time>
      </trkpt>
      <trkpt lat="45.05955" lon="3.8846">
        <ele>746.12</ele>
        <time>2026-03-05T11:12:00Z</time>
      </trkpt>
      <trkpt lat="45.05964" lon="3.88492">
        <ele>745.16</ele>
        <time>2026-03-05T11:12:18Z</time>
      </trkpt>
      <trkpt lat="45.05967" lon="3.88536">
        <ele>745.64</ele>
        <time>2026-03-05T11:12:37Z</time>
      </trkpt>
      <trkpt lat="45.05968" lon="3.88577">
        <ele>745.64</ele>
        <time>2026-03-05T11:12:58Z</time>
      </trkpt>
      <trkpt lat="45.05972" lon="3.88618">
        <ele>745.64</ele>
        <time>2026-03-05T11:13:18Z</time>
      </trkpt>
      <trkpt lat="45.0597" lon="3.88658">
        <ele>745.16</ele>
        <time>2026-03-05T11:13:40Z</time>
      </trkpt>
      <trkpt lat="45.0597" lon="3.88705">
        <ele>745.16</ele>
        <time>2026-03-05T11:14:04Z</time>
      </trkpt>
      <trkpt lat="45.0597" lon="3.88739">
        <ele>745.16</ele>
        <time>2026-03-05T11:14:26Z</time>
      </trkpt>
      <trkpt lat="45.05965" lon="3.88739">
        <ele>745.16</ele>
        <time>2026-03-05T11:14:55Z</time>
      </trkpt>
      <trkpt lat="45.05951" lon="3.88736">
        <ele>744.68</ele>
        <time>2026-03-05T11:15:10Z</time>
      </trkpt>
      <trkpt lat="45.05917" lon="3.88734">
        <ele>744.68</ele>
        <time>2026-03-05T11:15:35Z</time>
      </trkpt>
      <trkpt lat="45.05891" lon="3.88733">
        <ele>744.68</ele>
        <time>2026-03-05T11:15:57Z</time>
      </trkpt>
      <trkpt lat="45.05866" lon="3.88729">
        <ele>744.68</ele>
        <time>2026-03-05T11:16:19Z</time>
      </trkpt>
      <trkpt lat="45.0583" lon="3.88729">
        <ele>744.2</ele>
        <time>2026-03-05T11:16:44Z</time>
      </trkpt>
      <trkpt lat="45.05802" lon="3.88731">
        <ele>744.2</ele>
        <time>2026-03-05T11:17:06Z</time>
      </trkpt>
      <trkpt lat="45.05764" lon="3.88739">
        <ele>744.2</ele>
        <time>2026-03-05T11:17:29Z</time>
      </trkpt>
      <trkpt lat="45.05744" lon="3.88736">
        <ele>743.24</ele>
        <time>2026-03-05T11:17:53Z</time>
      </trkpt>
      <trkpt lat="45.05715" lon="3.88737">
        <ele>741.79</ele>
        <time>2026-03-05T11:18:15Z</time>
      </trkpt>
      <trkpt lat="45.0568" lon="3.8874">
        <ele>741.31</ele>
        <time>2026-03-05T11:18:41Z</time>
      </trkpt>
      <trkpt lat="45.05652" lon="3.88736">
        <ele>741.79</ele>
        <time>2026-03-05T11:19:03Z</time>
      </trkpt>
      <trkpt lat="45.05638" lon="3.88752">
        <ele>742.28</ele>
        <time>2026-03-05T11:19:15Z</time>
      </trkpt>
      <trkpt lat="45.05641" lon="3.88779">
        <ele>743.24</ele>
        <time>2026-03-05T11:19:31Z</time>
      </trkpt>
      <trkpt lat="45.05641" lon="3.88825">
        <ele>743.24</ele>
        <time>2026-03-05T11:19:54Z</time>
      </trkpt>
      <trkpt lat="45.0564" lon="3.8883">
        <ele>742.28</ele>
        <time>2026-03-05T11:19:57Z</time>
      </trkpt>
      <trkpt lat="45.05633" lon="3.88868">
        <ele>740.35</ele>
        <time>2026-03-05T11:20:19Z</time>
      </trkpt>
      <trkpt lat="45.05626" lon="3.88876">
        <ele>739.87</ele>
        <time>2026-03-05T11:20:37Z</time>
      </trkpt>
      <trkpt lat="45.0562" lon="3.88879">
        <ele>740.35</ele>
        <time>2026-03-05T11:21:00Z</time>
      </trkpt>
      <trkpt lat="45.05634" lon="3.8888">
        <ele>738.43</ele>
        <time>2026-03-05T11:21:20Z</time>
      </trkpt>
      <trkpt lat="45.05635" lon="3.88864">
        <ele>741.31</ele>
        <time>2026-03-05T11:21:44Z</time>
      </trkpt>
      <trkpt lat="45.05634" lon="3.88876">
        <ele>737.47</ele>
        <time>2026-03-05T11:22:10Z</time>
      </trkpt>
      <trkpt lat="45.05634" lon="3.88899">
        <ele>730.26</ele>
        <time>2026-03-05T11:22:34Z</time>
      </trkpt>
      <trkpt lat="45.05633" lon="3.88922">
        <ele>730.26</ele>
        <time>2026-03-05T11:22:50Z</time>
      </trkpt>
      <trkpt lat="45.05629" lon="3.88965">
        <ele>733.14</ele>
        <time>2026-03-05T11:23:14Z</time>
      </trkpt>
      <trkpt lat="45.05619" lon="3.88998">
        <ele>734.1</ele>
        <time>2026-03-05T11:23:35Z</time>
      </trkpt>
      <trkpt lat="45.05605" lon="3.89032">
        <ele>733.14</ele>
        <time>2026-03-05T11:23:56Z</time>
      </trkpt>
      <trkpt lat="45.05595" lon="3.89062">
        <ele>734.58</ele>
        <time>2026-03-05T11:24:14Z</time>
      </trkpt>
      <trkpt lat="45.05589" lon="3.89086">
        <ele>732.18</ele>
        <time>2026-03-05T11:24:28Z</time>
      </trkpt>
      <trkpt lat="45.05582" lon="3.89102">
        <ele>732.18</ele>
        <time>2026-03-05T11:24:38Z</time>
      </trkpt>
      <trkpt lat="45.05579" lon="3.89101">
        <ele>730.26</ele>
        <time>2026-03-05T11:24:53Z</time>
      </trkpt>
      <trkpt lat="45.0558" lon="3.89099">
        <ele>728.82</ele>
        <time>2026-03-05T11:25:05Z</time>
      </trkpt>
      <trkpt lat="45.05578" lon="3.8909">
        <ele>728.34</ele>
        <time>2026-03-05T11:25:19Z</time>
      </trkpt>
      <trkpt lat="45.05581" lon="3.89049">
        <ele>725.93</ele>
        <time>2026-03-05T11:25:41Z</time>
      </trkpt>
      <trkpt lat="45.05588" lon="3.8901">
        <ele>720.65</ele>
        <time>2026-03-05T11:26:02Z</time>
      </trkpt>
      <trkpt lat="45.05589" lon="3.89006">
        <ele>719.68</ele>
        <time>2026-03-05T11:26:04Z</time>
      </trkpt>
      <trkpt lat="45.05591" lon="3.88995">
        <ele>719.2</ele>
        <time>2026-03-05T11:26:10Z</time>
      </trkpt>
      <trkpt lat="45.05593" lon="3.88964">
        <ele>713.92</ele>
        <time>2026-03-05T11:26:29Z</time>
      </trkpt>
      <trkpt lat="45.05592" lon="3.88957">
        <ele>713.44</ele>
        <time>2026-03-05T11:26:35Z</time>
      </trkpt>
      <trkpt lat="45.05587" lon="3.88954">
        <ele>711.99</ele>
        <time>2026-03-05T11:26:41Z</time>
      </trkpt>
      <trkpt lat="45.05582" lon="3.88958">
        <ele>711.03</ele>
        <time>2026-03-05T11:26:45Z</time>
      </trkpt>
      <trkpt lat="45.05575" lon="3.88986">
        <ele>708.63</ele>
        <time>2026-03-05T11:27:06Z</time>
      </trkpt>
      <trkpt lat="45.05561" lon="3.89008">
        <ele>707.19</ele>
        <time>2026-03-05T11:27:24Z</time>
      </trkpt>
      <trkpt lat="45.05548" lon="3.88996">
        <ele>703.82</ele>
        <time>2026-03-05T11:27:39Z</time>
      </trkpt>
      <trkpt lat="45.05548" lon="3.88976">
        <ele>700.94</ele>
        <time>2026-03-05T11:27:50Z</time>
      </trkpt>
      <trkpt lat="45.05552" lon="3.88935">
        <ele>699.02</ele>
        <time>2026-03-05T11:28:11Z</time>
      </trkpt>
      <trkpt lat="45.05553" lon="3.889">
        <ele>697.57</ele>
        <time>2026-03-05T11:28:30Z</time>
      </trkpt>
      <trkpt lat="45.0555" lon="3.88886">
        <ele>696.61</ele>
        <time>2026-03-05T11:28:39Z</time>
      </trkpt>
      <trkpt lat="45.05547" lon="3.88878">
        <ele>697.09</ele>
        <time>2026-03-05T11:28:51Z</time>
      </trkpt>
      <trkpt lat="45.05536" lon="3.8888">
        <ele>693.73</ele>
        <time>2026-03-05T11:29:05Z</time>
      </trkpt>
      <trkpt lat="45.05529" lon="3.88881">
        <ele>691.33</ele>
        <time>2026-03-05T11:29:13Z</time>
      </trkpt>
      <trkpt lat="45.05528" lon="3.88881">
        <ele>690.84</ele>
        <time>2026-03-05T11:29:14Z</time>
      </trkpt>
      <trkpt lat="45.05517" lon="3.88882">
        <ele>687</ele>
        <time>2026-03-05T11:29:26Z</time>
      </trkpt>
      <trkpt lat="45.05504" lon="3.88882">
        <ele>684.6</ele>
        <time>2026-03-05T11:29:39Z</time>
      </trkpt>
      <trkpt lat="45.05499" lon="3.88881">
        <ele>683.63</ele>
        <time>2026-03-05T11:29:42Z</time>
      </trkpt>
      <trkpt lat="45.05498" lon="3.88881">
        <ele>683.63</ele>
        <time>2026-03-05T11:29:43Z</time>
      </trkpt>
      <trkpt lat="45.05487" lon="3.88873">
        <ele>681.71</ele>
        <time>2026-03-05T11:29:56Z</time>
      </trkpt>
      <trkpt lat="45.05476" lon="3.88865">
        <ele>679.31</ele>
        <time>2026-03-05T11:30:08Z</time>
      </trkpt>
      <trkpt lat="45.0547" lon="3.88862">
        <ele>678.83</ele>
        <time>2026-03-05T11:30:13Z</time>
      </trkpt>
      <trkpt lat="45.05469" lon="3.88862">
        <ele>678.83</ele>
        <time>2026-03-05T11:30:14Z</time>
      </trkpt>
      <trkpt lat="45.05467" lon="3.88863">
        <ele>678.83</ele>
        <time>2026-03-05T11:30:15Z</time>
      </trkpt>
      <trkpt lat="45.05459" lon="3.88873">
        <ele>678.35</ele>
        <time>2026-03-05T11:30:25Z</time>
      </trkpt>
      <trkpt lat="45.05453" lon="3.88895">
        <ele>677.39</ele>
        <time>2026-03-05T11:30:37Z</time>
      </trkpt>
      <trkpt lat="45.05449" lon="3.8892">
        <ele>676.42</ele>
        <time>2026-03-05T11:30:51Z</time>
      </trkpt>
      <trkpt lat="45.05441" lon="3.88929">
        <ele>675.46</ele>
        <time>2026-03-05T11:31:05Z</time>
      </trkpt>
      <trkpt lat="45.05438" lon="3.8892">
        <ele>674.02</ele>
        <time>2026-03-05T11:31:10Z</time>
      </trkpt>
      <trkpt lat="45.0543" lon="3.88902">
        <ele>670.66</ele>
        <time>2026-03-05T11:31:23Z</time>
      </trkpt>
      <trkpt lat="45.05421" lon="3.8889">
        <ele>667.77</ele>
        <time>2026-03-05T11:31:33Z</time>
      </trkpt>
      <trkpt lat="45.05411" lon="3.88878">
        <ele>667.77</ele>
        <time>2026-03-05T11:31:44Z</time>
      </trkpt>
      <trkpt lat="45.05396" lon="3.88857">
        <ele>664.89</ele>
        <time>2026-03-05T11:31:59Z</time>
      </trkpt>
      <trkpt lat="45.05396" lon="3.88849">
        <ele>662.97</ele>
        <time>2026-03-05T11:32:05Z</time>
      </trkpt>
      <trkpt lat="45.05395" lon="3.88846">
        <ele>662.49</ele>
        <time>2026-03-05T11:32:06Z</time>
      </trkpt>
      <trkpt lat="45.05388" lon="3.88825">
        <ele>658.64</ele>
        <time>2026-03-05T11:32:21Z</time>
      </trkpt>
      <trkpt lat="45.05369" lon="3.88801">
        <ele>653.83</ele>
        <time>2026-03-05T11:32:47Z</time>
      </trkpt>
      <trkpt lat="45.05351" lon="3.88767">
        <ele>650.95</ele>
        <time>2026-03-05T11:33:08Z</time>
      </trkpt>
      <trkpt lat="45.05352" lon="3.88737">
        <ele>643.74</ele>
        <time>2026-03-05T11:33:32Z</time>
      </trkpt>
      <trkpt lat="45.05355" lon="3.88709">
        <ele>638.93</ele>
        <time>2026-03-05T11:33:50Z</time>
      </trkpt>
      <trkpt lat="45.05363" lon="3.88687">
        <ele>636.05</ele>
        <time>2026-03-05T11:34:13Z</time>
      </trkpt>
      <trkpt lat="45.0536" lon="3.88667">
        <ele>633.65</ele>
        <time>2026-03-05T11:34:25Z</time>
      </trkpt>
      <trkpt lat="45.05347" lon="3.88646">
        <ele>633.65</ele>
        <time>2026-03-05T11:34:37Z</time>
      </trkpt>
      <trkpt lat="45.05345" lon="3.88645">
        <ele>633.65</ele>
        <time>2026-03-05T11:34:38Z</time>
      </trkpt>
      <trkpt lat="45.05343" lon="3.88644">
        <ele>633.65</ele>
        <time>2026-03-05T11:34:39Z</time>
      </trkpt>
      <trkpt lat="45.05313" lon="3.88662">
        <ele>629.32</ele>
        <time>2026-03-05T11:34:59Z</time>
      </trkpt>
      <trkpt lat="45.05313" lon="3.8866">
        <ele>623.07</ele>
        <time>2026-03-05T11:35:27Z</time>
      </trkpt>
      <trkpt lat="45.05295" lon="3.88672">
        <ele>619.23</ele>
        <time>2026-03-05T11:35:42Z</time>
      </trkpt>
      <trkpt lat="45.05268" lon="3.887">
        <ele>620.19</ele>
        <time>2026-03-05T11:35:59Z</time>
      </trkpt>
      <trkpt lat="45.05243" lon="3.88723">
        <ele>621.63</ele>
        <time>2026-03-05T11:36:20Z</time>
      </trkpt>
      <trkpt lat="45.05239" lon="3.88725">
        <ele>621.63</ele>
        <time>2026-03-05T11:36:22Z</time>
      </trkpt>
      <trkpt lat="45.05237" lon="3.88727">
        <ele>621.63</ele>
        <time>2026-03-05T11:36:23Z</time>
      </trkpt>
      <trkpt lat="45.05213" lon="3.88738">
        <ele>624.99</ele>
        <time>2026-03-05T11:36:41Z</time>
      </trkpt>
      <trkpt lat="45.05191" lon="3.88744">
        <ele>629.32</ele>
        <time>2026-03-05T11:37:00Z</time>
      </trkpt>
      <trkpt lat="45.05178" lon="3.88731">
        <ele>627.88</ele>
        <time>2026-03-05T11:37:16Z</time>
      </trkpt>
      <trkpt lat="45.05179" lon="3.88729">
        <ele>627.88</ele>
        <time>2026-03-05T11:37:18Z</time>
      </trkpt>
      <trkpt lat="45.05172" lon="3.88702">
        <ele>628.36</ele>
        <time>2026-03-05T11:37:36Z</time>
      </trkpt>
      <trkpt lat="45.05136" lon="3.88671">
        <ele>628.36</ele>
        <time>2026-03-05T11:37:58Z</time>
      </trkpt>
      <trkpt lat="45.05124" lon="3.8866">
        <ele>628.36</ele>
        <time>2026-03-05T11:38:10Z</time>
      </trkpt>
      <trkpt lat="45.05104" lon="3.88638">
        <ele>628.36</ele>
        <time>2026-03-05T11:38:32Z</time>
      </trkpt>
      <trkpt lat="45.05094" lon="3.88628">
        <ele>627.88</ele>
        <time>2026-03-05T11:38:50Z</time>
      </trkpt>
      <trkpt lat="45.05093" lon="3.88626">
        <ele>626.92</ele>
        <time>2026-03-05T11:39:01Z</time>
      </trkpt>
      <trkpt lat="45.05065" lon="3.88597">
        <ele>624.03</ele>
        <time>2026-03-05T11:39:22Z</time>
      </trkpt>
      <trkpt lat="45.05057" lon="3.88559">
        <ele>623.55</ele>
        <time>2026-03-05T11:39:46Z</time>
      </trkpt>
      <trkpt lat="45.05045" lon="3.88555">
        <ele>622.11</ele>
        <time>2026-03-05T11:40:04Z</time>
      </trkpt>
      <trkpt lat="45.05041" lon="3.88588">
        <ele>618.26</ele>
        <time>2026-03-05T11:40:27Z</time>
      </trkpt>
      <trkpt lat="45.05034" lon="3.88612">
        <ele>619.71</ele>
        <time>2026-03-05T11:40:44Z</time>
      </trkpt>
      <trkpt lat="45.05028" lon="3.88642">
        <ele>621.63</ele>
        <time>2026-03-05T11:41:05Z</time>
      </trkpt>
      <trkpt lat="45.05029" lon="3.88655">
        <ele>624.51</ele>
        <time>2026-03-05T11:41:26Z</time>
      </trkpt>
      <trkpt lat="45.0501" lon="3.88683">
        <ele>626.44</ele>
        <time>2026-03-05T11:41:50Z</time>
      </trkpt>
      <trkpt lat="45.04998" lon="3.887">
        <ele>625.47</ele>
        <time>2026-03-05T11:42:10Z</time>
      </trkpt>
      <trkpt lat="45.04992" lon="3.88733">
        <ele>626.92</ele>
        <time>2026-03-05T11:42:32Z</time>
      </trkpt>
      <trkpt lat="45.05002" lon="3.88733">
        <ele>629.32</ele>
        <time>2026-03-05T11:43:00Z</time>
      </trkpt>
      <trkpt lat="45.05004" lon="3.88735">
        <ele>628.84</ele>
        <time>2026-03-05T11:43:24Z</time>
      </trkpt>
      <trkpt lat="45.05001" lon="3.88733">
        <ele>628.84</ele>
        <time>2026-03-05T11:43:54Z</time>
      </trkpt>
      <trkpt lat="45.05004" lon="3.88737">
        <ele>624.03</ele>
        <time>2026-03-05T11:44:23Z</time>
      </trkpt>
      <trkpt lat="45.04999" lon="3.88741">
        <ele>621.15</ele>
        <time>2026-03-05T11:44:51Z</time>
      </trkpt>
      <trkpt lat="45.04998" lon="3.88749">
        <ele>623.55</ele>
        <time>2026-03-05T11:45:12Z</time>
      </trkpt>
      <trkpt lat="45.05003" lon="3.88745">
        <ele>623.07</ele>
        <time>2026-03-05T11:45:38Z</time>
      </trkpt>
      <trkpt lat="45.04998" lon="3.88743">
        <ele>619.71</ele>
        <time>2026-03-05T11:46:04Z</time>
      </trkpt>
      <trkpt lat="45.04997" lon="3.88745">
        <ele>621.15</ele>
        <time>2026-03-05T11:46:27Z</time>
      </trkpt>
      <trkpt lat="45.04998" lon="3.88733">
        <ele>623.55</ele>
        <time>2026-03-05T11:46:51Z</time>
      </trkpt>
      <trkpt lat="45.05006" lon="3.88726">
        <ele>628.84</ele>
        <time>2026-03-05T11:47:20Z</time>
      </trkpt>
      <trkpt lat="45.05004" lon="3.88735">
        <ele>631.72</ele>
        <time>2026-03-05T11:47:55Z</time>
      </trkpt>
      <trkpt lat="45.04999" lon="3.88738">
        <ele>644.22</ele>
        <time>2026-03-05T11:48:30Z</time>
      </trkpt>
      <trkpt lat="45.04999" lon="3.88734">
        <ele>644.7</ele>
        <time>2026-03-05T11:49:04Z</time>
      </trkpt>
      <trkpt lat="45.05005" lon="3.88735">
        <ele>641.34</ele>
        <time>2026-03-05T11:49:35Z</time>
      </trkpt>
      <trkpt lat="45.05004" lon="3.88736">
        <ele>641.82</ele>
        <time>2026-03-05T11:50:07Z</time>
      </trkpt>
      <trkpt lat="45.05003" lon="3.88733">
        <ele>647.59</ele>
        <time>2026-03-05T11:50:31Z</time>
      </trkpt>
      <trkpt lat="45.05002" lon="3.88738">
        <ele>648.07</ele>
        <time>2026-03-05T11:51:04Z</time>
      </trkpt>
      <trkpt lat="45.0501" lon="3.88729">
        <ele>639.41</ele>
        <time>2026-03-05T11:51:36Z</time>
      </trkpt>
      <trkpt lat="45.05007" lon="3.88728">
        <ele>632.2</ele>
        <time>2026-03-05T11:52:07Z</time>
      </trkpt>
      <trkpt lat="45.05011" lon="3.88727">
        <ele>629.8</ele>
        <time>2026-03-05T11:52:36Z</time>
      </trkpt>
      <trkpt lat="45.05006" lon="3.88733">
        <ele>627.88</ele>
        <time>2026-03-05T11:53:11Z</time>
      </trkpt>
      <trkpt lat="45.05003" lon="3.88737">
        <ele>624.99</ele>
        <time>2026-03-05T11:53:47Z</time>
      </trkpt>
      <trkpt lat="45.05008" lon="3.88735">
        <ele>628.36</ele>
        <time>2026-03-05T11:54:20Z</time>
      </trkpt>
      <trkpt lat="45.05009" lon="3.88731">
        <ele>623.55</ele>
        <time>2026-03-05T11:54:54Z</time>
      </trkpt>
      <trkpt lat="45.05009" lon="3.88732">
        <ele>617.78</ele>
        <time>2026-03-05T11:55:28Z</time>
      </trkpt>
      <trkpt lat="45.0501" lon="3.88734">
        <ele>618.26</ele>
        <time>2026-03-05T11:56:01Z</time>
      </trkpt>
      <trkpt lat="45.0501" lon="3.88734">
        <ele>615.86</ele>
        <time>2026-03-05T11:56:32Z</time>
      </trkpt>
      <trkpt lat="45.04999" lon="3.88745">
        <ele>612.02</ele>
        <time>2026-03-05T11:56:59Z</time>
      </trkpt>
      <trkpt lat="45.05004" lon="3.88742">
        <ele>607.21</ele>
        <time>2026-03-05T11:57:27Z</time>
      </trkpt>
      <trkpt lat="45.0501" lon="3.88733">
        <ele>602.88</ele>
        <time>2026-03-05T11:57:55Z</time>
      </trkpt>
      <trkpt lat="45.05008" lon="3.88733">
        <ele>602.4</ele>
        <time>2026-03-05T11:58:27Z</time>
      </trkpt>
      <trkpt lat="45.05011" lon="3.88723">
        <ele>602.88</ele>
        <time>2026-03-05T11:58:51Z</time>
      </trkpt>
      <trkpt lat="45.0501" lon="3.88732">
        <ele>609.13</ele>
        <time>2026-03-05T11:59:28Z</time>
      </trkpt>
      <trkpt lat="45.05016" lon="3.88725">
        <ele>614.42</ele>
        <time>2026-03-05T12:00:00Z</time>
      </trkpt>
      <trkpt lat="45.05001" lon="3.88738">
        <ele>612.98</ele>
        <time>2026-03-05T12:00:34Z</time>
      </trkpt>
      <trkpt lat="45.05" lon="3.8874">
        <ele>620.19</ele>
        <time>2026-03-05T12:00:55Z</time>
      </trkpt>
      <trkpt lat="45.05002" lon="3.88738">
        <ele>618.26</ele>
        <time>2026-03-05T12:01:24Z</time>
      </trkpt>
      <trkpt lat="45.05004" lon="3.88736">
        <ele>611.06</ele>
        <time>2026-03-05T12:01:50Z</time>
      </trkpt>
      <trkpt lat="45.05002" lon="3.88735">
        <ele>611.54</ele>
        <time>2026-03-05T12:02:17Z</time>
      </trkpt>
      <trkpt lat="45.05001" lon="3.88738">
        <ele>613.46</ele>
        <time>2026-03-05T12:02:53Z</time>
      </trkpt>
      <trkpt lat="45.05002" lon="3.88744">
        <ele>613.94</ele>
        <time>2026-03-05T12:03:22Z</time>
      </trkpt>
      <trkpt lat="45.05002" lon="3.8874">
        <ele>622.59</ele>
        <time>2026-03-05T12:03:55Z</time>
      </trkpt>
      <trkpt lat="45.05004" lon="3.88743">
        <ele>618.75</ele>
        <time>2026-03-05T12:04:17Z</time>
      </trkpt>
      <trkpt lat="45.05004" lon="3.88737">
        <ele>616.34</ele>
        <time>2026-03-05T12:04:39Z</time>
      </trkpt>
      <trkpt lat="45.05002" lon="3.88744">
        <ele>616.34</ele>
        <time>2026-03-05T12:04:55Z</time>
      </trkpt>
      <trkpt lat="45.05003" lon="3.88749">
        <ele>610.09</ele>
        <time>2026-03-05T12:05:23Z</time>
      </trkpt>
      <trkpt lat="45.05006" lon="3.88743">
        <ele>610.09</ele>
        <time>2026-03-05T12:05:39Z</time>
      </trkpt>
      <trkpt lat="45.05005" lon="3.88739">
        <ele>610.09</ele>
        <time>2026-03-05T12:05:55Z</time>
      </trkpt>
      <trkpt lat="45.05003" lon="3.88736">
        <ele>609.13</ele>
        <time>2026-03-05T12:06:17Z</time>
      </trkpt>
      <trkpt lat="45.05003" lon="3.88736">
        <ele>610.57</ele>
        <time>2026-03-05T12:06:34Z</time>
      </trkpt>
      <trkpt lat="45.05004" lon="3.88737">
        <ele>610.09</ele>
        <time>2026-03-05T12:06:47Z</time>
      </trkpt>
      <trkpt lat="45.05003" lon="3.88739">
        <ele>610.09</ele>
        <time>2026-03-05T12:07:02Z</time>
      </trkpt>
      <trkpt lat="45.05007" lon="3.88741">
        <ele>612.02</ele>
        <time>2026-03-05T12:07:21Z</time>
      </trkpt>
      <trkpt lat="45.05004" lon="3.88744">
        <ele>613.94</ele>
        <time>2026-03-05T12:07:40Z</time>
      </trkpt>
      <trkpt lat="45.05003" lon="3.88743">
        <ele>609.61</ele>
        <time>2026-03-05T12:08:02Z</time>
      </trkpt>
      <trkpt lat="45.05" lon="3.88748">
        <ele>611.06</ele>
        <time>2026-03-05T12:08:24Z</time>
      </trkpt>
      <trkpt lat="45.04999" lon="3.88747">
        <ele>610.57</ele>
        <time>2026-03-05T12:08:43Z</time>
      </trkpt>
      <trkpt lat="45.05001" lon="3.88743">
        <ele>611.54</ele>
        <time>2026-03-05T12:08:59Z</time>
      </trkpt>
      <trkpt lat="45.05004" lon="3.88735">
        <ele>608.65</ele>
        <time>2026-03-05T12:09:20Z</time>
      </trkpt>
      <trkpt lat="45.05003" lon="3.88736">
        <ele>609.13</ele>
        <time>2026-03-05T12:09:34Z</time>
      </trkpt>
      <trkpt lat="45.05005" lon="3.88737">
        <ele>612.02</ele>
        <time>2026-03-05T12:09:48Z</time>
      </trkpt>
      <trkpt lat="45.05006" lon="3.8874">
        <ele>615.38</ele>
        <time>2026-03-05T12:10:14Z</time>
      </trkpt>
      <trkpt lat="45.05008" lon="3.88741">
        <ele>614.42</ele>
        <time>2026-03-05T12:10:34Z</time>
      </trkpt>
      <trkpt lat="45.05006" lon="3.88742">
        <ele>614.9</ele>
        <time>2026-03-05T12:10:55Z</time>
      </trkpt>
      <trkpt lat="45.05005" lon="3.88741">
        <ele>614.9</ele>
        <time>2026-03-05T12:11:13Z</time>
      </trkpt>
      <trkpt lat="45.05005" lon="3.88744">
        <ele>617.3</ele>
        <time>2026-03-05T12:11:40Z</time>
      </trkpt>
      <trkpt lat="45.05007" lon="3.88741">
        <ele>616.34</ele>
        <time>2026-03-05T12:11:55Z</time>
      </trkpt>
      <trkpt lat="45.05005" lon="3.88744">
        <ele>616.34</ele>
        <time>2026-03-05T12:12:17Z</time>
      </trkpt>
      <trkpt lat="45.05006" lon="3.88744">
        <ele>617.3</ele>
        <time>2026-03-05T12:12:40Z</time>
      </trkpt>
      <trkpt lat="45.05" lon="3.88744">
        <ele>613.46</ele>
        <time>2026-03-05T12:13:00Z</time>
      </trkpt>
      <trkpt lat="45.05003" lon="3.88744">
        <ele>612.02</ele>
        <time>2026-03-05T12:13:16Z</time>
      </trkpt>
      <trkpt lat="45.05003" lon="3.88746">
        <ele>611.06</ele>
        <time>2026-03-05T12:13:30Z</time>
      </trkpt>
      <trkpt lat="45.04999" lon="3.88751">
        <ele>612.5</ele>
        <time>2026-03-05T12:13:43Z</time>
      </trkpt>
      <trkpt lat="45.04996" lon="3.88756">
        <ele>612.02</ele>
        <time>2026-03-05T12:13:46Z</time>
      </trkpt>
      <trkpt lat="45.04992" lon="3.88777">
        <ele>612.98</ele>
        <time>2026-03-05T12:13:59Z</time>
      </trkpt>
      <trkpt lat="45.04986" lon="3.88798">
        <ele>613.94</ele>
        <time>2026-03-05T12:14:14Z</time>
      </trkpt>
      <trkpt lat="45.04983" lon="3.88819">
        <ele>614.9</ele>
        <time>2026-03-05T12:14:27Z</time>
      </trkpt>
      <trkpt lat="45.04979" lon="3.88839">
        <ele>614.9</ele>
        <time>2026-03-05T12:14:39Z</time>
      </trkpt>
      <trkpt lat="45.04975" lon="3.88861">
        <ele>615.86</ele>
        <time>2026-03-05T12:14:53Z</time>
      </trkpt>
      <trkpt lat="45.04975" lon="3.88882">
        <ele>615.38</ele>
        <time>2026-03-05T12:15:07Z</time>
      </trkpt>
      <trkpt lat="45.04977" lon="3.88905">
        <ele>614.9</ele>
        <time>2026-03-05T12:15:20Z</time>
      </trkpt>
      <trkpt lat="45.04978" lon="3.88913">
        <ele>614.9</ele>
        <time>2026-03-05T12:15:25Z</time>
      </trkpt>
      <trkpt lat="45.04983" lon="3.88936">
        <ele>612.98</ele>
        <time>2026-03-05T12:15:41Z</time>
      </trkpt>
      <trkpt lat="45.04986" lon="3.8896">
        <ele>612.5</ele>
        <time>2026-03-05T12:15:55Z</time>
      </trkpt>
      <trkpt lat="45.04987" lon="3.88983">
        <ele>614.42</ele>
        <time>2026-03-05T12:16:09Z</time>
      </trkpt>
      <trkpt lat="45.04988" lon="3.89009">
        <ele>613.94</ele>
        <time>2026-03-05T12:16:23Z</time>
      </trkpt>
      <trkpt lat="45.04985" lon="3.89037">
        <ele>614.9</ele>
        <time>2026-03-05T12:16:37Z</time>
      </trkpt>
      <trkpt lat="45.04985" lon="3.89068">
        <ele>616.82</ele>
        <time>2026-03-05T12:16:53Z</time>
      </trkpt>
      <trkpt lat="45.04985" lon="3.89075">
        <ele>616.82</ele>
        <time>2026-03-05T12:16:58Z</time>
      </trkpt>
      <trkpt lat="45.04983" lon="3.89098">
        <ele>618.75</ele>
        <time>2026-03-05T12:17:12Z</time>
      </trkpt>
      <trkpt lat="45.04982" lon="3.8911">
        <ele>619.23</ele>
        <time>2026-03-05T12:17:18Z</time>
      </trkpt>
      <trkpt lat="45.04979" lon="3.89128">
        <ele>618.75</ele>
        <time>2026-03-05T12:17:32Z</time>
      </trkpt>
      <trkpt lat="45.04978" lon="3.89145">
        <ele>618.26</ele>
        <time>2026-03-05T12:17:44Z</time>
      </trkpt>
      <trkpt lat="45.04975" lon="3.8917">
        <ele>616.82</ele>
        <time>2026-03-05T12:17:59Z</time>
      </trkpt>
      <trkpt lat="45.04976" lon="3.89175">
        <ele>616.34</ele>
        <time>2026-03-05T12:18:02Z</time>
      </trkpt>
      <trkpt lat="45.04979" lon="3.89202">
        <ele>614.9</ele>
        <time>2026-03-05T12:18:18Z</time>
      </trkpt>
      <trkpt lat="45.0498" lon="3.89206">
        <ele>614.42</ele>
        <time>2026-03-05T12:18:20Z</time>
      </trkpt>
      <trkpt lat="45.04984" lon="3.89214">
        <ele>613.94</ele>
        <time>2026-03-05T12:18:26Z</time>
      </trkpt>
      <trkpt lat="45.04985" lon="3.89217">
        <ele>613.46</ele>
        <time>2026-03-05T12:18:28Z</time>
      </trkpt>
      <trkpt lat="45.05001" lon="3.89248">
        <ele>611.54</ele>
        <time>2026-03-05T12:18:46Z</time>
      </trkpt>
      <trkpt lat="45.05015" lon="3.89265">
        <ele>612.98</ele>
        <time>2026-03-05T12:19:01Z</time>
      </trkpt>
      <trkpt lat="45.05031" lon="3.89279">
        <ele>611.06</ele>
        <time>2026-03-05T12:19:16Z</time>
      </trkpt>
      <trkpt lat="45.05042" lon="3.89295">
        <ele>610.57</ele>
        <time>2026-03-05T12:19:29Z</time>
      </trkpt>
      <trkpt lat="45.05046" lon="3.89325">
        <ele>612.5</ele>
        <time>2026-03-05T12:19:47Z</time>
      </trkpt>
      <trkpt lat="45.05045" lon="3.89354">
        <ele>613.46</ele>
        <time>2026-03-05T12:20:03Z</time>
      </trkpt>
      <trkpt lat="45.05043" lon="3.8938">
        <ele>612.98</ele>
        <time>2026-03-05T12:20:19Z</time>
      </trkpt>
      <trkpt lat="45.05044" lon="3.89405">
        <ele>612.5</ele>
        <time>2026-03-05T12:20:33Z</time>
      </trkpt>
      <trkpt lat="45.05043" lon="3.8943">
        <ele>612.02</ele>
        <time>2026-03-05T12:20:47Z</time>
      </trkpt>
      <trkpt lat="45.05041" lon="3.89461">
        <ele>612.5</ele>
        <time>2026-03-05T12:21:04Z</time>
      </trkpt>
      <trkpt lat="45.05039" lon="3.89486">
        <ele>613.94</ele>
        <time>2026-03-05T12:21:18Z</time>
      </trkpt>
      <trkpt lat="45.05037" lon="3.89504">
        <ele>614.9</ele>
        <time>2026-03-05T12:21:29Z</time>
      </trkpt>
      <trkpt lat="45.05036" lon="3.89509">
        <ele>615.38</ele>
        <time>2026-03-05T12:21:45Z</time>
      </trkpt>
      <trkpt lat="45.05036" lon="3.89509">
        <ele>614.9</ele>
        <time>2026-03-05T12:21:46Z</time>
      </trkpt>
      <trkpt lat="45.05038" lon="3.89507">
        <ele>614.42</ele>
        <time>2026-03-05T12:21:48Z</time>
      </trkpt>
      <trkpt lat="45.05041" lon="3.89478">
        <ele>613.94</ele>
        <time>2026-03-05T12:22:02Z</time>
      </trkpt>
      <trkpt lat="45.05045" lon="3.89448">
        <ele>611.54</ele>
        <time>2026-03-05T12:22:17Z</time>
      </trkpt>
      <trkpt lat="45.05048" lon="3.89423">
        <ele>609.13</ele>
        <time>2026-03-05T12:22:31Z</time>
      </trkpt>
      <trkpt lat="45.05048" lon="3.89412">
        <ele>607.69</ele>
        <time>2026-03-05T12:22:38Z</time>
      </trkpt>
      <trkpt lat="45.05056" lon="3.89406">
        <ele>606.25</ele>
        <time>2026-03-05T12:22:46Z</time>
      </trkpt>
      <trkpt lat="45.0506" lon="3.89407">
        <ele>606.73</ele>
        <time>2026-03-05T12:22:54Z</time>
      </trkpt>
      <trkpt lat="45.05071" lon="3.89409">
        <ele>606.25</ele>
        <time>2026-03-05T12:23:05Z</time>
      </trkpt>
      <trkpt lat="45.05072" lon="3.89441">
        <ele>609.61</ele>
        <time>2026-03-05T12:23:22Z</time>
      </trkpt>
      <trkpt lat="45.05074" lon="3.89455">
        <ele>612.5</ele>
        <time>2026-03-05T12:23:30Z</time>
      </trkpt>
      <trkpt lat="45.05075" lon="3.89461">
        <ele>612.5</ele>
        <time>2026-03-05T12:23:35Z</time>
      </trkpt>
      <trkpt lat="45.05075" lon="3.89469">
        <ele>612.5</ele>
        <time>2026-03-05T12:23:39Z</time>
      </trkpt>
      <trkpt lat="45.05077" lon="3.89499">
        <ele>612.98</ele>
        <time>2026-03-05T12:23:56Z</time>
      </trkpt>
      <trkpt lat="45.05078" lon="3.89529">
        <ele>613.46</ele>
        <time>2026-03-05T12:24:12Z</time>
      </trkpt>
      <trkpt lat="45.05076" lon="3.89556">
        <ele>612.5</ele>
        <time>2026-03-05T12:24:27Z</time>
      </trkpt>
      <trkpt lat="45.05074" lon="3.89579">
        <ele>610.57</ele>
        <time>2026-03-05T12:24:40Z</time>
      </trkpt>
      <trkpt lat="45.05067" lon="3.89603">
        <ele>609.13</ele>
        <time>2026-03-05T12:24:56Z</time>
      </trkpt>
      <trkpt lat="45.05054" lon="3.89626">
        <ele>612.5</ele>
        <time>2026-03-05T12:25:10Z</time>
      </trkpt>
      <trkpt lat="45.05053" lon="3.89634">
        <ele>612.02</ele>
        <time>2026-03-05T12:25:14Z</time>
      </trkpt>
      <trkpt lat="45.05053" lon="3.89666">
        <ele>612.5</ele>
        <time>2026-03-05T12:25:29Z</time>
      </trkpt>
      <trkpt lat="45.05056" lon="3.89696">
        <ele>611.06</ele>
        <time>2026-03-05T12:25:44Z</time>
      </trkpt>
      <trkpt lat="45.05058" lon="3.89722">
        <ele>611.06</ele>
        <time>2026-03-05T12:25:59Z</time>
      </trkpt>
      <trkpt lat="45.05065" lon="3.89739">
        <ele>611.54</ele>
        <time>2026-03-05T12:26:09Z</time>
      </trkpt>
      <trkpt lat="45.05072" lon="3.89756">
        <ele>612.02</ele>
        <time>2026-03-05T12:26:25Z</time>
      </trkpt>
      <trkpt lat="45.05081" lon="3.89775">
        <ele>610.57</ele>
        <time>2026-03-05T12:26:35Z</time>
      </trkpt>
      <trkpt lat="45.0509" lon="3.89808">
        <ele>605.77</ele>
        <time>2026-03-05T12:26:50Z</time>
      </trkpt>
      <trkpt lat="45.05101" lon="3.89837">
        <ele>603.36</ele>
        <time>2026-03-05T12:27:05Z</time>
      </trkpt>
      <trkpt lat="45.05113" lon="3.89856">
        <ele>604.33</ele>
        <time>2026-03-05T12:27:19Z</time>
      </trkpt>
      <trkpt lat="45.05128" lon="3.89882">
        <ele>602.4</ele>
        <time>2026-03-05T12:27:35Z</time>
      </trkpt>
      <trkpt lat="45.05147" lon="3.89895">
        <ele>599.04</ele>
        <time>2026-03-05T12:27:51Z</time>
      </trkpt>
      <trkpt lat="45.05151" lon="3.89898">
        <ele>598.56</ele>
        <time>2026-03-05T12:27:55Z</time>
      </trkpt>
      <trkpt lat="45.05152" lon="3.899">
        <ele>598.56</ele>
        <time>2026-03-05T12:27:56Z</time>
      </trkpt>
      <trkpt lat="45.05153" lon="3.89901">
        <ele>598.08</ele>
        <time>2026-03-05T12:27:57Z</time>
      </trkpt>
      <trkpt lat="45.05169" lon="3.8993">
        <ele>600.96</ele>
        <time>2026-03-05T12:28:13Z</time>
      </trkpt>
      <trkpt lat="45.05186" lon="3.89944">
        <ele>600</ele>
        <time>2026-03-05T12:28:28Z</time>
      </trkpt>
      <trkpt lat="45.05204" lon="3.89963">
        <ele>600.96</ele>
        <time>2026-03-05T12:28:43Z</time>
      </trkpt>
      <trkpt lat="45.05209" lon="3.89974">
        <ele>601.92</ele>
        <time>2026-03-05T12:28:49Z</time>
      </trkpt>
      <trkpt lat="45.05209" lon="3.89976">
        <ele>601.92</ele>
        <time>2026-03-05T12:28:50Z</time>
      </trkpt>
      <trkpt lat="45.05209" lon="3.89978">
        <ele>601.92</ele>
        <time>2026-03-05T12:28:51Z</time>
      </trkpt>
      <trkpt lat="45.05208" lon="3.8998">
        <ele>601.92</ele>
        <time>2026-03-05T12:28:52Z</time>
      </trkpt>
      <trkpt lat="45.05208" lon="3.89982">
        <ele>601.92</ele>
        <time>2026-03-05T12:28:53Z</time>
      </trkpt>
      <trkpt lat="45.05207" lon="3.89984">
        <ele>602.4</ele>
        <time>2026-03-05T12:28:54Z</time>
      </trkpt>
      <trkpt lat="45.05206" lon="3.89987">
        <ele>602.4</ele>
        <time>2026-03-05T12:28:55Z</time>
      </trkpt>
      <trkpt lat="45.05202" lon="3.89998">
        <ele>604.81</ele>
        <time>2026-03-05T12:29:02Z</time>
      </trkpt>
      <trkpt lat="45.05202" lon="3.90002">
        <ele>605.77</ele>
        <time>2026-03-05T12:29:04Z</time>
      </trkpt>
      <trkpt lat="45.05202" lon="3.90004">
        <ele>605.77</ele>
        <time>2026-03-05T12:29:05Z</time>
      </trkpt>
      <trkpt lat="45.05201" lon="3.90011">
        <ele>606.73</ele>
        <time>2026-03-05T12:29:08Z</time>
      </trkpt>
      <trkpt lat="45.05201" lon="3.90013">
        <ele>607.21</ele>
        <time>2026-03-05T12:29:09Z</time>
      </trkpt>
      <trkpt lat="45.05202" lon="3.90014">
        <ele>607.21</ele>
        <time>2026-03-05T12:29:10Z</time>
      </trkpt>
      <trkpt lat="45.0522" lon="3.90031">
        <ele>606.73</ele>
        <time>2026-03-05T12:29:26Z</time>
      </trkpt>
      <trkpt lat="45.05228" lon="3.90036">
        <ele>606.25</ele>
        <time>2026-03-05T12:29:33Z</time>
      </trkpt>
      <trkpt lat="45.05248" lon="3.90046">
        <ele>605.77</ele>
        <time>2026-03-05T12:29:48Z</time>
      </trkpt>
      <trkpt lat="45.05266" lon="3.90053">
        <ele>604.81</ele>
        <time>2026-03-05T12:30:02Z</time>
      </trkpt>
      <trkpt lat="45.05286" lon="3.9006">
        <ele>604.81</ele>
        <time>2026-03-05T12:30:18Z</time>
      </trkpt>
      <trkpt lat="45.05292" lon="3.90062">
        <ele>604.81</ele>
        <time>2026-03-05T12:30:23Z</time>
      </trkpt>
      <trkpt lat="45.05294" lon="3.90061">
        <ele>604.81</ele>
        <time>2026-03-05T12:30:24Z</time>
      </trkpt>
      <trkpt lat="45.05313" lon="3.9006">
        <ele>604.33</ele>
        <time>2026-03-05T12:30:37Z</time>
      </trkpt>
      <trkpt lat="45.05333" lon="3.90046">
        <ele>605.29</ele>
        <time>2026-03-05T12:30:52Z</time>
      </trkpt>
      <trkpt lat="45.05355" lon="3.90037">
        <ele>606.73</ele>
        <time>2026-03-05T12:31:08Z</time>
      </trkpt>
      <trkpt lat="45.05379" lon="3.90039">
        <ele>607.69</ele>
        <time>2026-03-05T12:31:26Z</time>
      </trkpt>
      <trkpt lat="45.05403" lon="3.9004">
        <ele>607.69</ele>
        <time>2026-03-05T12:31:44Z</time>
      </trkpt>
      <trkpt lat="45.05423" lon="3.90041">
        <ele>606.73</ele>
        <time>2026-03-05T12:31:59Z</time>
      </trkpt>
      <trkpt lat="45.05443" lon="3.90042">
        <ele>606.25</ele>
        <time>2026-03-05T12:32:14Z</time>
      </trkpt>
      <trkpt lat="45.05464" lon="3.90047">
        <ele>606.73</ele>
        <time>2026-03-05T12:32:30Z</time>
      </trkpt>
      <trkpt lat="45.05485" lon="3.90065">
        <ele>607.69</ele>
        <time>2026-03-05T12:32:47Z</time>
      </trkpt>
      <trkpt lat="45.05502" lon="3.90082">
        <ele>609.61</ele>
        <time>2026-03-05T12:33:03Z</time>
      </trkpt>
      <trkpt lat="45.05519" lon="3.901">
        <ele>609.61</ele>
        <time>2026-03-05T12:33:20Z</time>
      </trkpt>
      <trkpt lat="45.05535" lon="3.90115">
        <ele>608.65</ele>
        <time>2026-03-05T12:33:35Z</time>
      </trkpt>
      <trkpt lat="45.05555" lon="3.90134">
        <ele>607.21</ele>
        <time>2026-03-05T12:33:53Z</time>
      </trkpt>
      <trkpt lat="45.05558" lon="3.90139">
        <ele>607.21</ele>
        <time>2026-03-05T12:33:57Z</time>
      </trkpt>
      <trkpt lat="45.05558" lon="3.9014">
        <ele>607.21</ele>
        <time>2026-03-05T12:33:58Z</time>
      </trkpt>
      <trkpt lat="45.05559" lon="3.90142">
        <ele>607.21</ele>
        <time>2026-03-05T12:33:59Z</time>
      </trkpt>
      <trkpt lat="45.05559" lon="3.90143">
        <ele>607.21</ele>
        <time>2026-03-05T12:34:00Z</time>
      </trkpt>
      <trkpt lat="45.05559" lon="3.90145">
        <ele>607.21</ele>
        <time>2026-03-05T12:34:01Z</time>
      </trkpt>
      <trkpt lat="45.0556" lon="3.90146">
        <ele>607.21</ele>
        <time>2026-03-05T12:34:02Z</time>
      </trkpt>
      <trkpt lat="45.0556" lon="3.90147">
        <ele>607.21</ele>
        <time>2026-03-05T12:34:03Z</time>
      </trkpt>
      <trkpt lat="45.05561" lon="3.90149">
        <ele>607.21</ele>
        <time>2026-03-05T12:34:04Z</time>
      </trkpt>
      <trkpt lat="45.05561" lon="3.90151">
        <ele>607.21</ele>
        <time>2026-03-05T12:34:05Z</time>
      </trkpt>
      <trkpt lat="45.05561" lon="3.90155">
        <ele>607.69</ele>
        <time>2026-03-05T12:34:08Z</time>
      </trkpt>
      <trkpt lat="45.05563" lon="3.9018">
        <ele>609.61</ele>
        <time>2026-03-05T12:34:22Z</time>
      </trkpt>
      <trkpt lat="45.05564" lon="3.90182">
        <ele>609.61</ele>
        <time>2026-03-05T12:34:23Z</time>
      </trkpt>
      <trkpt lat="45.05565" lon="3.90183">
        <ele>609.61</ele>
        <time>2026-03-05T12:34:24Z</time>
      </trkpt>
      <trkpt lat="45.05567" lon="3.90183">
        <ele>609.13</ele>
        <time>2026-03-05T12:34:25Z</time>
      </trkpt>
      <trkpt lat="45.05568" lon="3.90183">
        <ele>609.13</ele>
        <time>2026-03-05T12:34:26Z</time>
      </trkpt>
      <trkpt lat="45.0557" lon="3.90184">
        <ele>609.13</ele>
        <time>2026-03-05T12:34:27Z</time>
      </trkpt>
      <trkpt lat="45.05571" lon="3.90184">
        <ele>609.13</ele>
        <time>2026-03-05T12:34:28Z</time>
      </trkpt>
      <trkpt lat="45.05575" lon="3.90185">
        <ele>608.17</ele>
        <time>2026-03-05T12:34:31Z</time>
      </trkpt>
      <trkpt lat="45.05593" lon="3.90185">
        <ele>607.69</ele>
        <time>2026-03-05T12:34:45Z</time>
      </trkpt>
      <trkpt lat="45.05611" lon="3.9017">
        <ele>612.98</ele>
        <time>2026-03-05T12:35:00Z</time>
      </trkpt>
      <trkpt lat="45.0563" lon="3.90163">
        <ele>613.46</ele>
        <time>2026-03-05T12:35:16Z</time>
      </trkpt>
      <trkpt lat="45.05637" lon="3.90164">
        <ele>612.5</ele>
        <time>2026-03-05T12:35:23Z</time>
      </trkpt>
      <trkpt lat="45.05655" lon="3.90177">
        <ele>611.06</ele>
        <time>2026-03-05T12:35:39Z</time>
      </trkpt>
      <trkpt lat="45.05668" lon="3.90192">
        <ele>610.57</ele>
        <time>2026-03-05T12:35:55Z</time>
      </trkpt>
      <trkpt lat="45.05682" lon="3.90208">
        <ele>609.13</ele>
        <time>2026-03-05T12:36:10Z</time>
      </trkpt>
      <trkpt lat="45.05696" lon="3.90227">
        <ele>602.4</ele>
        <time>2026-03-05T12:36:24Z</time>
      </trkpt>
      <trkpt lat="45.05714" lon="3.9025">
        <ele>603.36</ele>
        <time>2026-03-05T12:36:40Z</time>
      </trkpt>
      <trkpt lat="45.05728" lon="3.90276">
        <ele>602.88</ele>
        <time>2026-03-05T12:36:58Z</time>
      </trkpt>
      <trkpt lat="45.0574" lon="3.90302">
        <ele>604.81</ele>
        <time>2026-03-05T12:37:14Z</time>
      </trkpt>
      <trkpt lat="45.05748" lon="3.90332">
        <ele>607.21</ele>
        <time>2026-03-05T12:37:32Z</time>
      </trkpt>
      <trkpt lat="45.0575" lon="3.90362">
        <ele>608.17</ele>
        <time>2026-03-05T12:37:48Z</time>
      </trkpt>
      <trkpt lat="45.05736" lon="3.9039">
        <ele>608.17</ele>
        <time>2026-03-05T12:38:07Z</time>
      </trkpt>
      <trkpt lat="45.05722" lon="3.9041">
        <ele>607.21</ele>
        <time>2026-03-05T12:38:21Z</time>
      </trkpt>
      <trkpt lat="45.05707" lon="3.90433">
        <ele>605.77</ele>
        <time>2026-03-05T12:38:39Z</time>
      </trkpt>
      <trkpt lat="45.05693" lon="3.90457">
        <ele>606.73</ele>
        <time>2026-03-05T12:38:54Z</time>
      </trkpt>
      <trkpt lat="45.0568" lon="3.90484">
        <ele>607.69</ele>
        <time>2026-03-05T12:39:09Z</time>
      </trkpt>
      <trkpt lat="45.05668" lon="3.90513">
        <ele>605.77</ele>
        <time>2026-03-05T12:39:27Z</time>
      </trkpt>
      <trkpt lat="45.05654" lon="3.90543">
        <ele>606.25</ele>
        <time>2026-03-05T12:39:45Z</time>
      </trkpt>
      <trkpt lat="45.05644" lon="3.90575">
        <ele>606.25</ele>
        <time>2026-03-05T12:40:00Z</time>
      </trkpt>
      <trkpt lat="45.05636" lon="3.90606">
        <ele>608.17</ele>
        <time>2026-03-05T12:40:16Z</time>
      </trkpt>
      <trkpt lat="45.05628" lon="3.9064">
        <ele>607.21</ele>
        <time>2026-03-05T12:40:34Z</time>
      </trkpt>
      <trkpt lat="45.05624" lon="3.90665">
        <ele>606.73</ele>
        <time>2026-03-05T12:40:47Z</time>
      </trkpt>
      <trkpt lat="45.05619" lon="3.90688">
        <ele>606.73</ele>
        <time>2026-03-05T12:41:00Z</time>
      </trkpt>
      <trkpt lat="45.0561" lon="3.9071">
        <ele>608.17</ele>
        <time>2026-03-05T12:41:12Z</time>
      </trkpt>
      <trkpt lat="45.0561" lon="3.90712">
        <ele>608.65</ele>
        <time>2026-03-05T12:41:13Z</time>
      </trkpt>
      <trkpt lat="45.05609" lon="3.90714">
        <ele>609.13</ele>
        <time>2026-03-05T12:41:14Z</time>
      </trkpt>
      <trkpt lat="45.05608" lon="3.90715">
        <ele>609.13</ele>
        <time>2026-03-05T12:41:15Z</time>
      </trkpt>
      <trkpt lat="45.05608" lon="3.90717">
        <ele>609.61</ele>
        <time>2026-03-05T12:41:16Z</time>
      </trkpt>
      <trkpt lat="45.05607" lon="3.9072">
        <ele>609.61</ele>
        <time>2026-03-05T12:41:17Z</time>
      </trkpt>
      <trkpt lat="45.05606" lon="3.90722">
        <ele>609.61</ele>
        <time>2026-03-05T12:41:18Z</time>
      </trkpt>
      <trkpt lat="45.05593" lon="3.90756">
        <ele>609.61</ele>
        <time>2026-03-05T12:41:36Z</time>
      </trkpt>
      <trkpt lat="45.05576" lon="3.90797">
        <ele>608.65</ele>
        <time>2026-03-05T12:41:58Z</time>
      </trkpt>
      <trkpt lat="45.0556" lon="3.90834">
        <ele>608.17</ele>
        <time>2026-03-05T12:42:20Z</time>
      </trkpt>
      <trkpt lat="45.05545" lon="3.90864">
        <ele>609.61</ele>
        <time>2026-03-05T12:42:38Z</time>
      </trkpt>
      <trkpt lat="45.05536" lon="3.90897">
        <ele>612.02</ele>
        <time>2026-03-05T12:42:55Z</time>
      </trkpt>
      <trkpt lat="45.05539" lon="3.90934">
        <ele>613.94</ele>
        <time>2026-03-05T12:43:13Z</time>
      </trkpt>
      <trkpt lat="45.05549" lon="3.90966">
        <ele>611.06</ele>
        <time>2026-03-05T12:43:29Z</time>
      </trkpt>
      <trkpt lat="45.05558" lon="3.90999">
        <ele>607.69</ele>
        <time>2026-03-05T12:43:47Z</time>
      </trkpt>
      <trkpt lat="45.05568" lon="3.91032">
        <ele>605.77</ele>
        <time>2026-03-05T12:44:05Z</time>
      </trkpt>
      <trkpt lat="45.05576" lon="3.91065">
        <ele>604.81</ele>
        <time>2026-03-05T12:44:23Z</time>
      </trkpt>
      <trkpt lat="45.05586" lon="3.91089">
        <ele>604.33</ele>
        <time>2026-03-05T12:44:37Z</time>
      </trkpt>
      <trkpt lat="45.05601" lon="3.91117">
        <ele>602.4</ele>
        <time>2026-03-05T12:44:54Z</time>
      </trkpt>
      <trkpt lat="45.05612" lon="3.9115">
        <ele>601.44</ele>
        <time>2026-03-05T12:45:12Z</time>
      </trkpt>
      <trkpt lat="45.05616" lon="3.91183">
        <ele>601.44</ele>
        <time>2026-03-05T12:45:29Z</time>
      </trkpt>
      <trkpt lat="45.05619" lon="3.91213">
        <ele>600.48</ele>
        <time>2026-03-05T12:45:46Z</time>
      </trkpt>
      <trkpt lat="45.0562" lon="3.91218">
        <ele>600.96</ele>
        <time>2026-03-05T12:46:02Z</time>
      </trkpt>
      <trkpt lat="45.05621" lon="3.91216">
        <ele>600.48</ele>
        <time>2026-03-05T12:46:16Z</time>
      </trkpt>
      <trkpt lat="45.05622" lon="3.9122">
        <ele>601.44</ele>
        <time>2026-03-05T12:46:34Z</time>
      </trkpt>
      <trkpt lat="45.05622" lon="3.91233">
        <ele>601.92</ele>
        <time>2026-03-05T12:46:50Z</time>
      </trkpt>
      <trkpt lat="45.05625" lon="3.91259">
        <ele>602.4</ele>
        <time>2026-03-05T12:47:05Z</time>
      </trkpt>
      <trkpt lat="45.05628" lon="3.91288">
        <ele>601.92</ele>
        <time>2026-03-05T12:47:21Z</time>
      </trkpt>
      <trkpt lat="45.05627" lon="3.91308">
        <ele>602.4</ele>
        <time>2026-03-05T12:47:33Z</time>
      </trkpt>
      <trkpt lat="45.05627" lon="3.91309">
        <ele>602.4</ele>
        <time>2026-03-05T12:47:34Z</time>
      </trkpt>
      <trkpt lat="45.05619" lon="3.91321">
        <ele>601.92</ele>
        <time>2026-03-05T12:47:43Z</time>
      </trkpt>
      <trkpt lat="45.05618" lon="3.91322">
        <ele>601.92</ele>
        <time>2026-03-05T12:47:44Z</time>
      </trkpt>
      <trkpt lat="45.05593" lon="3.91331">
        <ele>601.44</ele>
        <time>2026-03-05T12:48:05Z</time>
      </trkpt>
      <trkpt lat="45.0559" lon="3.9133">
        <ele>601.44</ele>
        <time>2026-03-05T12:48:07Z</time>
      </trkpt>
      <trkpt lat="45.05589" lon="3.91328">
        <ele>601.44</ele>
        <time>2026-03-05T12:48:08Z</time>
      </trkpt>
      <trkpt lat="45.05587" lon="3.91327">
        <ele>601.44</ele>
        <time>2026-03-05T12:48:09Z</time>
      </trkpt>
      <trkpt lat="45.05585" lon="3.91326">
        <ele>601.92</ele>
        <time>2026-03-05T12:48:10Z</time>
      </trkpt>
      <trkpt lat="45.05583" lon="3.91326">
        <ele>601.92</ele>
        <time>2026-03-05T12:48:11Z</time>
      </trkpt>
      <trkpt lat="45.05581" lon="3.91327">
        <ele>602.4</ele>
        <time>2026-03-05T12:48:12Z</time>
      </trkpt>
      <trkpt lat="45.05579" lon="3.91328">
        <ele>602.4</ele>
        <time>2026-03-05T12:48:13Z</time>
      </trkpt>
      <trkpt lat="45.05578" lon="3.91329">
        <ele>602.88</ele>
        <time>2026-03-05T12:48:14Z</time>
      </trkpt>
      <trkpt lat="45.05577" lon="3.9133">
        <ele>602.88</ele>
        <time>2026-03-05T12:48:15Z</time>
      </trkpt>
      <trkpt lat="45.0556" lon="3.91346">
        <ele>605.77</ele>
        <time>2026-03-05T12:48:29Z</time>
      </trkpt>
      <trkpt lat="45.05542" lon="3.91362">
        <ele>606.73</ele>
        <time>2026-03-05T12:48:46Z</time>
      </trkpt>
      <trkpt lat="45.05529" lon="3.91372">
        <ele>606.25</ele>
        <time>2026-03-05T12:48:56Z</time>
      </trkpt>
      <trkpt lat="45.05515" lon="3.91384">
        <ele>605.29</ele>
        <time>2026-03-05T12:49:10Z</time>
      </trkpt>
      <trkpt lat="45.05493" lon="3.91401">
        <ele>605.77</ele>
        <time>2026-03-05T12:49:28Z</time>
      </trkpt>
      <trkpt lat="45.05476" lon="3.91415">
        <ele>606.25</ele>
        <time>2026-03-05T12:49:44Z</time>
      </trkpt>
      <trkpt lat="45.05459" lon="3.91431">
        <ele>605.29</ele>
        <time>2026-03-05T12:50:00Z</time>
      </trkpt>
      <trkpt lat="45.0544" lon="3.91446">
        <ele>606.25</ele>
        <time>2026-03-05T12:50:16Z</time>
      </trkpt>
      <trkpt lat="45.05432" lon="3.91453">
        <ele>606.25</ele>
        <time>2026-03-05T12:50:28Z</time>
      </trkpt>
      <trkpt lat="45.0541" lon="3.91469">
        <ele>606.73</ele>
        <time>2026-03-05T12:50:45Z</time>
      </trkpt>
      <trkpt lat="45.05392" lon="3.91484">
        <ele>608.17</ele>
        <time>2026-03-05T12:50:58Z</time>
      </trkpt>
      <trkpt lat="45.05374" lon="3.91503">
        <ele>605.77</ele>
        <time>2026-03-05T12:51:14Z</time>
      </trkpt>
      <trkpt lat="45.05354" lon="3.91522">
        <ele>604.33</ele>
        <time>2026-03-05T12:51:31Z</time>
      </trkpt>
      <trkpt lat="45.05335" lon="3.91541">
        <ele>603.36</ele>
        <time>2026-03-05T12:51:50Z</time>
      </trkpt>
      <trkpt lat="45.05316" lon="3.91564">
        <ele>603.36</ele>
        <time>2026-03-05T12:52:08Z</time>
      </trkpt>
      <trkpt lat="45.05298" lon="3.9158">
        <ele>605.29</ele>
        <time>2026-03-05T12:52:25Z</time>
      </trkpt>
      <trkpt lat="45.05295" lon="3.91582">
        <ele>604.81</ele>
        <time>2026-03-05T12:52:32Z</time>
      </trkpt>
      <trkpt lat="45.05294" lon="3.91582">
        <ele>604.81</ele>
        <time>2026-03-05T12:52:33Z</time>
      </trkpt>
      <trkpt lat="45.05292" lon="3.91582">
        <ele>604.81</ele>
        <time>2026-03-05T12:52:34Z</time>
      </trkpt>
      <trkpt lat="45.05291" lon="3.91583">
        <ele>604.81</ele>
        <time>2026-03-05T12:52:35Z</time>
      </trkpt>
      <trkpt lat="45.0529" lon="3.91584">
        <ele>604.81</ele>
        <time>2026-03-05T12:52:36Z</time>
      </trkpt>
      <trkpt lat="45.05289" lon="3.91586">
        <ele>604.81</ele>
        <time>2026-03-05T12:52:37Z</time>
      </trkpt>
      <trkpt lat="45.05288" lon="3.91613">
        <ele>603.85</ele>
        <time>2026-03-05T12:52:51Z</time>
      </trkpt>
      <trkpt lat="45.05296" lon="3.9164">
        <ele>605.29</ele>
        <time>2026-03-05T12:53:07Z</time>
      </trkpt>
      <trkpt lat="45.05301" lon="3.9166">
        <ele>606.25</ele>
        <time>2026-03-05T12:53:21Z</time>
      </trkpt>
      <trkpt lat="45.05311" lon="3.91685">
        <ele>607.21</ele>
        <time>2026-03-05T12:53:37Z</time>
      </trkpt>
      <trkpt lat="45.0532" lon="3.91713">
        <ele>604.81</ele>
        <time>2026-03-05T12:53:53Z</time>
      </trkpt>
      <trkpt lat="45.05327" lon="3.91734">
        <ele>603.36</ele>
        <time>2026-03-05T12:54:07Z</time>
      </trkpt>
      <trkpt lat="45.0534" lon="3.91764">
        <ele>601.44</ele>
        <time>2026-03-05T12:54:26Z</time>
      </trkpt>
      <trkpt lat="45.05352" lon="3.91788">
        <ele>600</ele>
        <time>2026-03-05T12:54:41Z</time>
      </trkpt>
      <trkpt lat="45.05366" lon="3.91809">
        <ele>602.4</ele>
        <time>2026-03-05T12:54:57Z</time>
      </trkpt>
      <trkpt lat="45.05378" lon="3.9183">
        <ele>603.85</ele>
        <time>2026-03-05T12:55:13Z</time>
      </trkpt>
      <trkpt lat="45.05387" lon="3.91843">
        <ele>604.33</ele>
        <time>2026-03-05T12:55:23Z</time>
      </trkpt>
      <trkpt lat="45.05388" lon="3.91843">
        <ele>604.33</ele>
        <time>2026-03-05T12:55:24Z</time>
      </trkpt>
      <trkpt lat="45.05389" lon="3.91843">
        <ele>604.33</ele>
        <time>2026-03-05T12:55:25Z</time>
      </trkpt>
      <trkpt lat="45.0539" lon="3.91844">
        <ele>604.33</ele>
        <time>2026-03-05T12:55:26Z</time>
      </trkpt>
      <trkpt lat="45.05406" lon="3.91852">
        <ele>605.77</ele>
        <time>2026-03-05T12:55:42Z</time>
      </trkpt>
      <trkpt lat="45.05416" lon="3.91858">
        <ele>606.25</ele>
        <time>2026-03-05T12:55:51Z</time>
      </trkpt>
      <trkpt lat="45.05418" lon="3.91859">
        <ele>606.25</ele>
        <time>2026-03-05T12:55:52Z</time>
      </trkpt>
      <trkpt lat="45.05432" lon="3.91881">
        <ele>607.21</ele>
        <time>2026-03-05T12:56:08Z</time>
      </trkpt>
      <trkpt lat="45.05441" lon="3.91907">
        <ele>609.13</ele>
        <time>2026-03-05T12:56:24Z</time>
      </trkpt>
      <trkpt lat="45.05452" lon="3.91932">
        <ele>610.09</ele>
        <time>2026-03-05T12:56:40Z</time>
      </trkpt>
      <trkpt lat="45.05461" lon="3.91952">
        <ele>610.57</ele>
        <time>2026-03-05T12:56:53Z</time>
      </trkpt>
      <trkpt lat="45.05464" lon="3.91959">
        <ele>610.57</ele>
        <time>2026-03-05T12:56:58Z</time>
      </trkpt>
      <trkpt lat="45.05465" lon="3.9196">
        <ele>610.57</ele>
        <time>2026-03-05T12:56:59Z</time>
      </trkpt>
      <trkpt lat="45.05466" lon="3.91962">
        <ele>610.57</ele>
        <time>2026-03-05T12:57:00Z</time>
      </trkpt>
      <trkpt lat="45.05467" lon="3.91964">
        <ele>610.57</ele>
        <time>2026-03-05T12:57:01Z</time>
      </trkpt>
      <trkpt lat="45.05468" lon="3.91966">
        <ele>610.57</ele>
        <time>2026-03-05T12:57:02Z</time>
      </trkpt>
      <trkpt lat="45.05468" lon="3.91967">
        <ele>610.57</ele>
        <time>2026-03-05T12:57:03Z</time>
      </trkpt>
      <trkpt lat="45.05477" lon="3.91991">
        <ele>608.65</ele>
        <time>2026-03-05T12:57:18Z</time>
      </trkpt>
      <trkpt lat="45.05484" lon="3.92015">
        <ele>610.09</ele>
        <time>2026-03-05T12:57:33Z</time>
      </trkpt>
      <trkpt lat="45.05484" lon="3.92041">
        <ele>611.06</ele>
        <time>2026-03-05T12:57:48Z</time>
      </trkpt>
      <trkpt lat="45.0548" lon="3.92063">
        <ele>613.94</ele>
        <time>2026-03-05T12:58:02Z</time>
      </trkpt>
      <trkpt lat="45.05475" lon="3.92082">
        <ele>614.9</ele>
        <time>2026-03-05T12:58:15Z</time>
      </trkpt>
      <trkpt lat="45.05469" lon="3.92102">
        <ele>615.86</ele>
        <time>2026-03-05T12:58:29Z</time>
      </trkpt>
      <trkpt lat="45.05468" lon="3.92106">
        <ele>616.34</ele>
        <time>2026-03-05T12:58:32Z</time>
      </trkpt>
      <trkpt lat="45.05468" lon="3.92108">
        <ele>616.34</ele>
        <time>2026-03-05T12:58:33Z</time>
      </trkpt>
      <trkpt lat="45.05469" lon="3.92114">
        <ele>617.3</ele>
        <time>2026-03-05T12:58:37Z</time>
      </trkpt>
      <trkpt lat="45.05469" lon="3.92116">
        <ele>617.3</ele>
        <time>2026-03-05T12:58:38Z</time>
      </trkpt>
      <trkpt lat="45.05468" lon="3.92125">
        <ele>618.26</ele>
        <time>2026-03-05T12:58:44Z</time>
      </trkpt>
      <trkpt lat="45.05474" lon="3.92144">
        <ele>618.75</ele>
        <time>2026-03-05T12:58:57Z</time>
      </trkpt>
      <trkpt lat="45.05486" lon="3.92174">
        <ele>618.26</ele>
        <time>2026-03-05T12:59:14Z</time>
      </trkpt>
      <trkpt lat="45.05495" lon="3.92201">
        <ele>617.3</ele>
        <time>2026-03-05T12:59:30Z</time>
      </trkpt>
      <trkpt lat="45.05496" lon="3.92202">
        <ele>617.3</ele>
        <time>2026-03-05T12:59:31Z</time>
      </trkpt>
      <trkpt lat="45.05496" lon="3.92204">
        <ele>617.3</ele>
        <time>2026-03-05T12:59:32Z</time>
      </trkpt>
      <trkpt lat="45.055" lon="3.92232">
        <ele>617.3</ele>
        <time>2026-03-05T12:59:48Z</time>
      </trkpt>
      <trkpt lat="45.05499" lon="3.92248">
        <ele>616.82</ele>
        <time>2026-03-05T12:59:57Z</time>
      </trkpt>
      <trkpt lat="45.05499" lon="3.9225">
        <ele>617.3</ele>
        <time>2026-03-05T12:59:58Z</time>
      </trkpt>
      <trkpt lat="45.05497" lon="3.92285">
        <ele>618.75</ele>
        <time>2026-03-05T13:00:15Z</time>
      </trkpt>
      <trkpt lat="45.05499" lon="3.92302">
        <ele>619.71</ele>
        <time>2026-03-05T13:00:25Z</time>
      </trkpt>
      <trkpt lat="45.055" lon="3.92304">
        <ele>620.19</ele>
        <time>2026-03-05T13:00:26Z</time>
      </trkpt>
      <trkpt lat="45.055" lon="3.92306">
        <ele>620.19</ele>
        <time>2026-03-05T13:00:27Z</time>
      </trkpt>
      <trkpt lat="45.05519" lon="3.92319">
        <ele>622.59</ele>
        <time>2026-03-05T13:00:43Z</time>
      </trkpt>
      <trkpt lat="45.05536" lon="3.92328">
        <ele>627.4</ele>
        <time>2026-03-05T13:00:57Z</time>
      </trkpt>
      <trkpt lat="45.05552" lon="3.92333">
        <ele>628.36</ele>
        <time>2026-03-05T13:01:10Z</time>
      </trkpt>
      <trkpt lat="45.05554" lon="3.92334">
        <ele>628.36</ele>
        <time>2026-03-05T13:01:12Z</time>
      </trkpt>
      <trkpt lat="45.05555" lon="3.92335">
        <ele>628.84</ele>
        <time>2026-03-05T13:01:13Z</time>
      </trkpt>
      <trkpt lat="45.05563" lon="3.92339">
        <ele>630.76</ele>
        <time>2026-03-05T13:01:20Z</time>
      </trkpt>
      <trkpt lat="45.05564" lon="3.92339">
        <ele>631.24</ele>
        <time>2026-03-05T13:01:21Z</time>
      </trkpt>
      <trkpt lat="45.05566" lon="3.9234">
        <ele>631.72</ele>
        <time>2026-03-05T13:01:22Z</time>
      </trkpt>
      <trkpt lat="45.05566" lon="3.92341">
        <ele>632.2</ele>
        <time>2026-03-05T13:01:23Z</time>
      </trkpt>
      <trkpt lat="45.0557" lon="3.92348">
        <ele>633.65</ele>
        <time>2026-03-05T13:01:31Z</time>
      </trkpt>
      <trkpt lat="45.0557" lon="3.9235">
        <ele>634.13</ele>
        <time>2026-03-05T13:01:32Z</time>
      </trkpt>
      <trkpt lat="45.05568" lon="3.92373">
        <ele>635.57</ele>
        <time>2026-03-05T13:01:47Z</time>
      </trkpt>
      <trkpt lat="45.05565" lon="3.92392">
        <ele>636.05</ele>
        <time>2026-03-05T13:01:59Z</time>
      </trkpt>
      <trkpt lat="45.05565" lon="3.92394">
        <ele>636.05</ele>
        <time>2026-03-05T13:02:00Z</time>
      </trkpt>
      <trkpt lat="45.05565" lon="3.92396">
        <ele>636.53</ele>
        <time>2026-03-05T13:02:01Z</time>
      </trkpt>
      <trkpt lat="45.05564" lon="3.92398">
        <ele>636.05</ele>
        <time>2026-03-05T13:02:02Z</time>
      </trkpt>
      <trkpt lat="45.05564" lon="3.92399">
        <ele>636.53</ele>
        <time>2026-03-05T13:02:03Z</time>
      </trkpt>
      <trkpt lat="45.0556" lon="3.92424">
        <ele>635.57</ele>
        <time>2026-03-05T13:02:18Z</time>
      </trkpt>
      <trkpt lat="45.05556" lon="3.92449">
        <ele>635.09</ele>
        <time>2026-03-05T13:02:33Z</time>
      </trkpt>
      <trkpt lat="45.05555" lon="3.9248">
        <ele>632.68</ele>
        <time>2026-03-05T13:02:50Z</time>
      </trkpt>
      <trkpt lat="45.05556" lon="3.9251">
        <ele>633.65</ele>
        <time>2026-03-05T13:03:06Z</time>
      </trkpt>
      <trkpt lat="45.05556" lon="3.92532">
        <ele>635.09</ele>
        <time>2026-03-05T13:03:19Z</time>
      </trkpt>
      <trkpt lat="45.05551" lon="3.92548">
        <ele>636.53</ele>
        <time>2026-03-05T13:03:29Z</time>
      </trkpt>
      <trkpt lat="45.05551" lon="3.92549">
        <ele>636.53</ele>
        <time>2026-03-05T13:03:30Z</time>
      </trkpt>
      <trkpt lat="45.05551" lon="3.92551">
        <ele>636.53</ele>
        <time>2026-03-05T13:03:31Z</time>
      </trkpt>
      <trkpt lat="45.0555" lon="3.92558">
        <ele>636.05</ele>
        <time>2026-03-05T13:03:35Z</time>
      </trkpt>
      <trkpt lat="45.05551" lon="3.92562">
        <ele>635.57</ele>
        <time>2026-03-05T13:03:37Z</time>
      </trkpt>
      <trkpt lat="45.05555" lon="3.92587">
        <ele>635.57</ele>
        <time>2026-03-05T13:03:52Z</time>
      </trkpt>
      <trkpt lat="45.05559" lon="3.92612">
        <ele>635.57</ele>
        <time>2026-03-05T13:04:07Z</time>
      </trkpt>
      <trkpt lat="45.05563" lon="3.92636">
        <ele>637.97</ele>
        <time>2026-03-05T13:04:21Z</time>
      </trkpt>
      <trkpt lat="45.05566" lon="3.92663">
        <ele>639.89</ele>
        <time>2026-03-05T13:04:36Z</time>
      </trkpt>
      <trkpt lat="45.05572" lon="3.9269">
        <ele>640.38</ele>
        <time>2026-03-05T13:04:51Z</time>
      </trkpt>
      <trkpt lat="45.05574" lon="3.92698">
        <ele>640.86</ele>
        <time>2026-03-05T13:04:56Z</time>
      </trkpt>
      <trkpt lat="45.05574" lon="3.92699">
        <ele>641.34</ele>
        <time>2026-03-05T13:04:57Z</time>
      </trkpt>
      <trkpt lat="45.05577" lon="3.92704">
        <ele>641.82</ele>
        <time>2026-03-05T13:05:00Z</time>
      </trkpt>
      <trkpt lat="45.05591" lon="3.92721">
        <ele>643.26</ele>
        <time>2026-03-05T13:05:14Z</time>
      </trkpt>
      <trkpt lat="45.05604" lon="3.92743">
        <ele>645.18</ele>
        <time>2026-03-05T13:05:29Z</time>
      </trkpt>
      <trkpt lat="45.05611" lon="3.92763">
        <ele>649.03</ele>
        <time>2026-03-05T13:05:44Z</time>
      </trkpt>
      <trkpt lat="45.0562" lon="3.92785">
        <ele>651.43</ele>
        <time>2026-03-05T13:05:59Z</time>
      </trkpt>
      <trkpt lat="45.05627" lon="3.92804">
        <ele>654.31</ele>
        <time>2026-03-05T13:06:11Z</time>
      </trkpt>
      <trkpt lat="45.05638" lon="3.92828">
        <ele>656.72</ele>
        <time>2026-03-05T13:06:27Z</time>
      </trkpt>
      <trkpt lat="45.05648" lon="3.92849">
        <ele>659.12</ele>
        <time>2026-03-05T13:06:42Z</time>
      </trkpt>
      <trkpt lat="45.05657" lon="3.9287">
        <ele>662.49</ele>
        <time>2026-03-05T13:06:56Z</time>
      </trkpt>
      <trkpt lat="45.05665" lon="3.92888">
        <ele>665.85</ele>
        <time>2026-03-05T13:07:10Z</time>
      </trkpt>
      <trkpt lat="45.05675" lon="3.92906">
        <ele>667.29</ele>
        <time>2026-03-05T13:07:25Z</time>
      </trkpt>
      <trkpt lat="45.05685" lon="3.92927">
        <ele>670.18</ele>
        <time>2026-03-05T13:07:41Z</time>
      </trkpt>
      <trkpt lat="45.05693" lon="3.92945">
        <ele>671.14</ele>
        <time>2026-03-05T13:07:54Z</time>
      </trkpt>
      <trkpt lat="45.05706" lon="3.9297">
        <ele>674.02</ele>
        <time>2026-03-05T13:08:11Z</time>
      </trkpt>
      <trkpt lat="45.05717" lon="3.9299">
        <ele>674.98</ele>
        <time>2026-03-05T13:08:25Z</time>
      </trkpt>
      <trkpt lat="45.05727" lon="3.93012">
        <ele>676.42</ele>
        <time>2026-03-05T13:08:39Z</time>
      </trkpt>
      <trkpt lat="45.0574" lon="3.93037">
        <ele>678.35</ele>
        <time>2026-03-05T13:08:55Z</time>
      </trkpt>
      <trkpt lat="45.05752" lon="3.93063">
        <ele>677.87</ele>
        <time>2026-03-05T13:09:11Z</time>
      </trkpt>
      <trkpt lat="45.05764" lon="3.93085">
        <ele>678.83</ele>
        <time>2026-03-05T13:09:26Z</time>
      </trkpt>
      <trkpt lat="45.05778" lon="3.93112">
        <ele>679.79</ele>
        <time>2026-03-05T13:09:42Z</time>
      </trkpt>
      <trkpt lat="45.05789" lon="3.93135">
        <ele>682.19</ele>
        <time>2026-03-05T13:09:56Z</time>
      </trkpt>
      <trkpt lat="45.058" lon="3.93157">
        <ele>685.08</ele>
        <time>2026-03-05T13:10:11Z</time>
      </trkpt>
      <trkpt lat="45.05809" lon="3.93175">
        <ele>687</ele>
        <time>2026-03-05T13:10:23Z</time>
      </trkpt>
      <trkpt lat="45.05823" lon="3.93203">
        <ele>688.92</ele>
        <time>2026-03-05T13:10:40Z</time>
      </trkpt>
      <trkpt lat="45.05833" lon="3.93235">
        <ele>692.77</ele>
        <time>2026-03-05T13:10:58Z</time>
      </trkpt>
      <trkpt lat="45.0584" lon="3.93269">
        <ele>695.65</ele>
        <time>2026-03-05T13:11:18Z</time>
      </trkpt>
      <trkpt lat="45.05845" lon="3.93293">
        <ele>698.05</ele>
        <time>2026-03-05T13:11:33Z</time>
      </trkpt>
      <trkpt lat="45.05854" lon="3.9329">
        <ele>698.53</ele>
        <time>2026-03-05T13:11:44Z</time>
      </trkpt>
      <trkpt lat="45.05855" lon="3.9329">
        <ele>698.53</ele>
        <time>2026-03-05T13:11:45Z</time>
      </trkpt>
      <trkpt lat="45.05857" lon="3.93289">
        <ele>698.53</ele>
        <time>2026-03-05T13:11:46Z</time>
      </trkpt>
      <trkpt lat="45.05858" lon="3.93289">
        <ele>698.53</ele>
        <time>2026-03-05T13:11:47Z</time>
      </trkpt>
      <trkpt lat="45.05859" lon="3.93288">
        <ele>698.53</ele>
        <time>2026-03-05T13:11:48Z</time>
      </trkpt>
      <trkpt lat="45.05885" lon="3.93277">
        <ele>699.98</ele>
        <time>2026-03-05T13:12:09Z</time>
      </trkpt>
      <trkpt lat="45.05899" lon="3.93282">
        <ele>701.9</ele>
        <time>2026-03-05T13:12:25Z</time>
      </trkpt>
      <trkpt lat="45.05902" lon="3.93326">
        <ele>702.86</ele>
        <time>2026-03-05T13:12:46Z</time>
      </trkpt>
      <trkpt lat="45.05907" lon="3.93349">
        <ele>700.94</ele>
        <time>2026-03-05T13:12:57Z</time>
      </trkpt>
      <trkpt lat="45.05913" lon="3.93368">
        <ele>699.02</ele>
        <time>2026-03-05T13:13:09Z</time>
      </trkpt>
      <trkpt lat="45.05925" lon="3.9339">
        <ele>698.53</ele>
        <time>2026-03-05T13:13:23Z</time>
      </trkpt>
      <trkpt lat="45.05937" lon="3.9341">
        <ele>697.57</ele>
        <time>2026-03-05T13:13:37Z</time>
      </trkpt>
      <trkpt lat="45.05956" lon="3.9343">
        <ele>697.57</ele>
        <time>2026-03-05T13:13:52Z</time>
      </trkpt>
      <trkpt lat="45.05967" lon="3.93442">
        <ele>697.09</ele>
        <time>2026-03-05T13:14:05Z</time>
      </trkpt>
      <trkpt lat="45.05979" lon="3.93459">
        <ele>697.09</ele>
        <time>2026-03-05T13:14:16Z</time>
      </trkpt>
      <trkpt lat="45.0599" lon="3.93472">
        <ele>695.65</ele>
        <time>2026-03-05T13:14:27Z</time>
      </trkpt>
      <trkpt lat="45.06001" lon="3.93487">
        <ele>694.21</ele>
        <time>2026-03-05T13:14:38Z</time>
      </trkpt>
      <trkpt lat="45.06013" lon="3.93504">
        <ele>692.77</ele>
        <time>2026-03-05T13:14:50Z</time>
      </trkpt>
      <trkpt lat="45.06021" lon="3.93514">
        <ele>690.84</ele>
        <time>2026-03-05T13:15:01Z</time>
      </trkpt>
      <trkpt lat="45.06033" lon="3.93534">
        <ele>688.92</ele>
        <time>2026-03-05T13:15:14Z</time>
      </trkpt>
      <trkpt lat="45.06043" lon="3.93549">
        <ele>688.44</ele>
        <time>2026-03-05T13:15:25Z</time>
      </trkpt>
      <trkpt lat="45.06057" lon="3.93566">
        <ele>688.44</ele>
        <time>2026-03-05T13:15:37Z</time>
      </trkpt>
      <trkpt lat="45.0607" lon="3.93576">
        <ele>688.44</ele>
        <time>2026-03-05T13:15:50Z</time>
      </trkpt>
      <trkpt lat="45.06072" lon="3.93577">
        <ele>688.44</ele>
        <time>2026-03-05T13:15:51Z</time>
      </trkpt>
      <trkpt lat="45.06074" lon="3.93579">
        <ele>687.96</ele>
        <time>2026-03-05T13:15:52Z</time>
      </trkpt>
      <trkpt lat="45.06076" lon="3.9358">
        <ele>687.96</ele>
        <time>2026-03-05T13:15:53Z</time>
      </trkpt>
      <trkpt lat="45.06079" lon="3.93582">
        <ele>687.96</ele>
        <time>2026-03-05T13:15:54Z</time>
      </trkpt>
      <trkpt lat="45.06081" lon="3.93583">
        <ele>687.96</ele>
        <time>2026-03-05T13:15:55Z</time>
      </trkpt>
      <trkpt lat="45.06083" lon="3.93584">
        <ele>688.44</ele>
        <time>2026-03-05T13:15:56Z</time>
      </trkpt>
      <trkpt lat="45.06084" lon="3.93585">
        <ele>688.44</ele>
        <time>2026-03-05T13:15:57Z</time>
      </trkpt>
      <trkpt lat="45.06085" lon="3.93585">
        <ele>688.44</ele>
        <time>2026-03-05T13:15:58Z</time>
      </trkpt>
      <trkpt lat="45.06095" lon="3.93586">
        <ele>688.44</ele>
        <time>2026-03-05T13:16:09Z</time>
      </trkpt>
      <trkpt lat="45.06114" lon="3.93592">
        <ele>688.92</ele>
        <time>2026-03-05T13:16:22Z</time>
      </trkpt>
      <trkpt lat="45.06131" lon="3.93602">
        <ele>688.44</ele>
        <time>2026-03-05T13:16:35Z</time>
      </trkpt>
      <trkpt lat="45.0615" lon="3.93613">
        <ele>688.44</ele>
        <time>2026-03-05T13:16:47Z</time>
      </trkpt>
      <trkpt lat="45.06165" lon="3.93619">
        <ele>688.44</ele>
        <time>2026-03-05T13:16:59Z</time>
      </trkpt>
      <trkpt lat="45.06179" lon="3.93627">
        <ele>690.84</ele>
        <time>2026-03-05T13:17:12Z</time>
      </trkpt>
      <trkpt lat="45.06202" lon="3.93633">
        <ele>691.81</ele>
        <time>2026-03-05T13:17:26Z</time>
      </trkpt>
      <trkpt lat="45.06214" lon="3.93648">
        <ele>690.84</ele>
        <time>2026-03-05T13:17:37Z</time>
      </trkpt>
      <trkpt lat="45.0623" lon="3.93678">
        <ele>686.52</ele>
        <time>2026-03-05T13:17:55Z</time>
      </trkpt>
      <trkpt lat="45.06231" lon="3.93692">
        <ele>684.12</ele>
        <time>2026-03-05T13:18:07Z</time>
      </trkpt>
      <trkpt lat="45.06231" lon="3.93694">
        <ele>683.63</ele>
        <time>2026-03-05T13:18:08Z</time>
      </trkpt>
      <trkpt lat="45.06231" lon="3.9372">
        <ele>678.83</ele>
        <time>2026-03-05T13:18:20Z</time>
      </trkpt>
      <trkpt lat="45.06236" lon="3.93724">
        <ele>677.87</ele>
        <time>2026-03-05T13:18:28Z</time>
      </trkpt>
      <trkpt lat="45.06238" lon="3.93724">
        <ele>677.87</ele>
        <time>2026-03-05T13:18:30Z</time>
      </trkpt>
      <trkpt lat="45.06241" lon="3.93725">
        <ele>678.35</ele>
        <time>2026-03-05T13:18:31Z</time>
      </trkpt>
      <trkpt lat="45.06243" lon="3.93725">
        <ele>678.35</ele>
        <time>2026-03-05T13:18:32Z</time>
      </trkpt>
      <trkpt lat="45.06257" lon="3.93722">
        <ele>678.83</ele>
        <time>2026-03-05T13:18:43Z</time>
      </trkpt>
      <trkpt lat="45.06264" lon="3.93725">
        <ele>679.79</ele>
        <time>2026-03-05T13:18:51Z</time>
      </trkpt>
      <trkpt lat="45.06265" lon="3.93725">
        <ele>679.79</ele>
        <time>2026-03-05T13:18:52Z</time>
      </trkpt>
      <trkpt lat="45.06273" lon="3.93726">
        <ele>680.27</ele>
        <time>2026-03-05T13:18:57Z</time>
      </trkpt>
      <trkpt lat="45.06284" lon="3.93722">
        <ele>680.75</ele>
        <time>2026-03-05T13:19:09Z</time>
      </trkpt>
      <trkpt lat="45.06287" lon="3.93723">
        <ele>680.75</ele>
        <time>2026-03-05T13:19:11Z</time>
      </trkpt>
      <trkpt lat="45.06288" lon="3.93722">
        <ele>680.75</ele>
        <time>2026-03-05T13:19:12Z</time>
      </trkpt>
      <trkpt lat="45.0629" lon="3.93722">
        <ele>680.75</ele>
        <time>2026-03-05T13:19:13Z</time>
      </trkpt>
      <trkpt lat="45.06292" lon="3.93721">
        <ele>680.75</ele>
        <time>2026-03-05T13:19:14Z</time>
      </trkpt>
      <trkpt lat="45.06294" lon="3.9372">
        <ele>680.75</ele>
        <time>2026-03-05T13:19:15Z</time>
      </trkpt>
      <trkpt lat="45.06296" lon="3.93719">
        <ele>680.75</ele>
        <time>2026-03-05T13:19:16Z</time>
      </trkpt>
      <trkpt lat="45.06298" lon="3.93718">
        <ele>680.75</ele>
        <time>2026-03-05T13:19:17Z</time>
      </trkpt>
      <trkpt lat="45.06309" lon="3.93715">
        <ele>684.6</ele>
        <time>2026-03-05T13:19:28Z</time>
      </trkpt>
      <trkpt lat="45.06328" lon="3.93715">
        <ele>685.56</ele>
        <time>2026-03-05T13:19:40Z</time>
      </trkpt>
      <trkpt lat="45.06333" lon="3.93714">
        <ele>686.04</ele>
        <time>2026-03-05T13:19:43Z</time>
      </trkpt>
      <trkpt lat="45.06334" lon="3.93714">
        <ele>686.04</ele>
        <time>2026-03-05T13:19:44Z</time>
      </trkpt>
      <trkpt lat="45.06348" lon="3.93718">
        <ele>687</ele>
        <time>2026-03-05T13:19:57Z</time>
      </trkpt>
      <trkpt lat="45.06353" lon="3.93723">
        <ele>687</ele>
        <time>2026-03-05T13:20:02Z</time>
      </trkpt>
      <trkpt lat="45.06353" lon="3.93725">
        <ele>687</ele>
        <time>2026-03-05T13:20:03Z</time>
      </trkpt>
      <trkpt lat="45.06354" lon="3.93727">
        <ele>686.52</ele>
        <time>2026-03-05T13:20:04Z</time>
      </trkpt>
      <trkpt lat="45.06354" lon="3.93729">
        <ele>686.04</ele>
        <time>2026-03-05T13:20:05Z</time>
      </trkpt>
      <trkpt lat="45.06355" lon="3.93731">
        <ele>686.04</ele>
        <time>2026-03-05T13:20:06Z</time>
      </trkpt>
      <trkpt lat="45.06356" lon="3.93739">
        <ele>685.56</ele>
        <time>2026-03-05T13:20:12Z</time>
      </trkpt>
      <trkpt lat="45.06357" lon="3.93742">
        <ele>685.56</ele>
        <time>2026-03-05T13:20:13Z</time>
      </trkpt>
      <trkpt lat="45.06365" lon="3.93753">
        <ele>683.15</ele>
        <time>2026-03-05T13:20:22Z</time>
      </trkpt>
      <trkpt lat="45.06367" lon="3.93753">
        <ele>682.67</ele>
        <time>2026-03-05T13:20:23Z</time>
      </trkpt>
      <trkpt lat="45.06369" lon="3.93753">
        <ele>682.67</ele>
        <time>2026-03-05T13:20:24Z</time>
      </trkpt>
      <trkpt lat="45.0637" lon="3.93753">
        <ele>682.19</ele>
        <time>2026-03-05T13:20:25Z</time>
      </trkpt>
      <trkpt lat="45.06372" lon="3.93753">
        <ele>682.19</ele>
        <time>2026-03-05T13:20:26Z</time>
      </trkpt>
      <trkpt lat="45.06373" lon="3.93753">
        <ele>681.71</ele>
        <time>2026-03-05T13:20:27Z</time>
      </trkpt>
      <trkpt lat="45.06384" lon="3.93753">
        <ele>679.79</ele>
        <time>2026-03-05T13:20:37Z</time>
      </trkpt>
      <trkpt lat="45.06406" lon="3.93734">
        <ele>676.42</ele>
        <time>2026-03-05T13:20:58Z</time>
      </trkpt>
      <trkpt lat="45.06427" lon="3.93711">
        <ele>670.18</ele>
        <time>2026-03-05T13:21:17Z</time>
      </trkpt>
      <trkpt lat="45.06451" lon="3.93699">
        <ele>668.73</ele>
        <time>2026-03-05T13:21:38Z</time>
      </trkpt>
      <trkpt lat="45.06463" lon="3.93697">
        <ele>668.25</ele>
        <time>2026-03-05T13:21:49Z</time>
      </trkpt>
      <trkpt lat="45.06485" lon="3.93698">
        <ele>664.89</ele>
        <time>2026-03-05T13:22:06Z</time>
      </trkpt>
      <trkpt lat="45.06491" lon="3.93695">
        <ele>662.97</ele>
        <time>2026-03-05T13:22:12Z</time>
      </trkpt>
      <trkpt lat="45.06515" lon="3.9368">
        <ele>659.6</ele>
        <time>2026-03-05T13:22:31Z</time>
      </trkpt>
      <trkpt lat="45.06518" lon="3.9367">
        <ele>658.16</ele>
        <time>2026-03-05T13:22:35Z</time>
      </trkpt>
      <trkpt lat="45.06519" lon="3.93667">
        <ele>657.68</ele>
        <time>2026-03-05T13:22:36Z</time>
      </trkpt>
      <trkpt lat="45.0652" lon="3.93665">
        <ele>657.2</ele>
        <time>2026-03-05T13:22:37Z</time>
      </trkpt>
      <trkpt lat="45.06533" lon="3.93647">
        <ele>653.83</ele>
        <time>2026-03-05T13:22:51Z</time>
      </trkpt>
      <trkpt lat="45.06557" lon="3.93645">
        <ele>648.07</ele>
        <time>2026-03-05T13:23:09Z</time>
      </trkpt>
      <trkpt lat="45.06577" lon="3.93642">
        <ele>644.22</ele>
        <time>2026-03-05T13:23:26Z</time>
      </trkpt>
      <trkpt lat="45.06601" lon="3.93634">
        <ele>641.34</ele>
        <time>2026-03-05T13:23:46Z</time>
      </trkpt>
      <trkpt lat="45.06622" lon="3.9363">
        <ele>638.93</ele>
        <time>2026-03-05T13:24:02Z</time>
      </trkpt>
      <trkpt lat="45.06644" lon="3.93644">
        <ele>635.57</ele>
        <time>2026-03-05T13:24:22Z</time>
      </trkpt>
      <trkpt lat="45.0666" lon="3.93658">
        <ele>633.17</ele>
        <time>2026-03-05T13:24:38Z</time>
      </trkpt>
      <trkpt lat="45.06681" lon="3.93674">
        <ele>630.76</ele>
        <time>2026-03-05T13:24:58Z</time>
      </trkpt>
      <trkpt lat="45.06685" lon="3.93674">
        <ele>630.28</ele>
        <time>2026-03-05T13:25:00Z</time>
      </trkpt>
      <trkpt lat="45.06686" lon="3.93675">
        <ele>630.28</ele>
        <time>2026-03-05T13:25:01Z</time>
      </trkpt>
      <trkpt lat="45.06688" lon="3.93675">
        <ele>630.28</ele>
        <time>2026-03-05T13:25:02Z</time>
      </trkpt>
      <trkpt lat="45.06716" lon="3.93683">
        <ele>627.88</ele>
        <time>2026-03-05T13:25:24Z</time>
      </trkpt>
      <trkpt lat="45.06724" lon="3.9369">
        <ele>628.36</ele>
        <time>2026-03-05T13:25:32Z</time>
      </trkpt>
      <trkpt lat="45.0674" lon="3.93703">
        <ele>628.84</ele>
        <time>2026-03-05T13:25:47Z</time>
      </trkpt>
      <trkpt lat="45.06743" lon="3.93704">
        <ele>628.36</ele>
        <time>2026-03-05T13:25:49Z</time>
      </trkpt>
      <trkpt lat="45.06744" lon="3.93705">
        <ele>628.36</ele>
        <time>2026-03-05T13:25:50Z</time>
      </trkpt>
      <trkpt lat="45.06763" lon="3.93712">
        <ele>626.44</ele>
        <time>2026-03-05T13:26:06Z</time>
      </trkpt>
      <trkpt lat="45.06786" lon="3.93711">
        <ele>624.51</ele>
        <time>2026-03-05T13:26:22Z</time>
      </trkpt>
      <trkpt lat="45.06798" lon="3.93702">
        <ele>623.07</ele>
        <time>2026-03-05T13:26:38Z</time>
      </trkpt>
      <trkpt lat="45.0682" lon="3.93706">
        <ele>622.11</ele>
        <time>2026-03-05T13:26:59Z</time>
      </trkpt>
      <trkpt lat="45.06845" lon="3.93729">
        <ele>623.07</ele>
        <time>2026-03-05T13:27:25Z</time>
      </trkpt>
      <trkpt lat="45.06868" lon="3.93753">
        <ele>626.92</ele>
        <time>2026-03-05T13:27:47Z</time>
      </trkpt>
      <trkpt lat="45.06889" lon="3.9377">
        <ele>625.47</ele>
        <time>2026-03-05T13:28:07Z</time>
      </trkpt>
      <trkpt lat="45.06894" lon="3.93772">
        <ele>625.47</ele>
        <time>2026-03-05T13:28:10Z</time>
      </trkpt>
      <trkpt lat="45.06903" lon="3.93785">
        <ele>624.03</ele>
        <time>2026-03-05T13:28:21Z</time>
      </trkpt>
      <trkpt lat="45.06904" lon="3.93787">
        <ele>624.03</ele>
        <time>2026-03-05T13:28:22Z</time>
      </trkpt>
      <trkpt lat="45.06923" lon="3.93814">
        <ele>621.15</ele>
        <time>2026-03-05T13:28:42Z</time>
      </trkpt>
      <trkpt lat="45.06931" lon="3.93813">
        <ele>622.59</ele>
        <time>2026-03-05T13:28:56Z</time>
      </trkpt>
      <trkpt lat="45.06933" lon="3.93812">
        <ele>623.07</ele>
        <time>2026-03-05T13:28:58Z</time>
      </trkpt>
      <trkpt lat="45.06934" lon="3.93812">
        <ele>623.07</ele>
        <time>2026-03-05T13:28:59Z</time>
      </trkpt>
      <trkpt lat="45.06951" lon="3.93808">
        <ele>623.07</ele>
        <time>2026-03-05T13:29:11Z</time>
      </trkpt>
      <trkpt lat="45.06965" lon="3.938">
        <ele>623.55</ele>
        <time>2026-03-05T13:29:24Z</time>
      </trkpt>
      <trkpt lat="45.06978" lon="3.93787">
        <ele>624.99</ele>
        <time>2026-03-05T13:29:37Z</time>
      </trkpt>
      <trkpt lat="45.06979" lon="3.93784">
        <ele>625.47</ele>
        <time>2026-03-05T13:30:01Z</time>
      </trkpt>
      <trkpt lat="45.06977" lon="3.93786">
        <ele>625.96</ele>
        <time>2026-03-05T13:30:30Z</time>
      </trkpt>
      <trkpt lat="45.06968" lon="3.93796">
        <ele>626.44</ele>
        <time>2026-03-05T13:30:54Z</time>
      </trkpt>
      <trkpt lat="45.06965" lon="3.93795">
        <ele>630.76</ele>
        <time>2026-03-05T13:31:28Z</time>
      </trkpt>
      <trkpt lat="45.06989" lon="3.93782">
        <ele>627.88</ele>
        <time>2026-03-05T13:31:48Z</time>
      </trkpt>
      <trkpt lat="45.07012" lon="3.93775">
        <ele>630.28</ele>
        <time>2026-03-05T13:32:11Z</time>
      </trkpt>
      <trkpt lat="45.07039" lon="3.93764">
        <ele>637.01</ele>
        <time>2026-03-05T13:32:36Z</time>
      </trkpt>
      <trkpt lat="45.07068" lon="3.93749">
        <ele>644.22</ele>
        <time>2026-03-05T13:33:03Z</time>
      </trkpt>
      <trkpt lat="45.07091" lon="3.93739">
        <ele>652.87</ele>
        <time>2026-03-05T13:33:29Z</time>
      </trkpt>
      <trkpt lat="45.07113" lon="3.93725">
        <ele>657.2</ele>
        <time>2026-03-05T13:33:53Z</time>
      </trkpt>
      <trkpt lat="45.07132" lon="3.93714">
        <ele>661.04</ele>
        <time>2026-03-05T13:34:13Z</time>
      </trkpt>
      <trkpt lat="45.0715" lon="3.93704">
        <ele>664.89</ele>
        <time>2026-03-05T13:34:38Z</time>
      </trkpt>
      <trkpt lat="45.07163" lon="3.93696">
        <ele>674.98</ele>
        <time>2026-03-05T13:35:00Z</time>
      </trkpt>
      <trkpt lat="45.07181" lon="3.9369">
        <ele>682.19</ele>
        <time>2026-03-05T13:35:22Z</time>
      </trkpt>
      <trkpt lat="45.07209" lon="3.93695">
        <ele>686.52</ele>
        <time>2026-03-05T13:35:47Z</time>
      </trkpt>
      <trkpt lat="45.07226" lon="3.93696">
        <ele>690.36</ele>
        <time>2026-03-05T13:36:09Z</time>
      </trkpt>
      <trkpt lat="45.07245" lon="3.93708">
        <ele>691.81</ele>
        <time>2026-03-05T13:36:32Z</time>
      </trkpt>
      <trkpt lat="45.07259" lon="3.93713">
        <ele>694.69</ele>
        <time>2026-03-05T13:36:52Z</time>
      </trkpt>
      <trkpt lat="45.07273" lon="3.93725">
        <ele>698.05</ele>
        <time>2026-03-05T13:37:13Z</time>
      </trkpt>
      <trkpt lat="45.07278" lon="3.9374">
        <ele>699.98</ele>
        <time>2026-03-05T13:37:34Z</time>
      </trkpt>
      <trkpt lat="45.0729" lon="3.9376">
        <ele>703.82</ele>
        <time>2026-03-05T13:37:55Z</time>
      </trkpt>
      <trkpt lat="45.07313" lon="3.93774">
        <ele>705.75</ele>
        <time>2026-03-05T13:38:18Z</time>
      </trkpt>
      <trkpt lat="45.07332" lon="3.93789">
        <ele>713.92</ele>
        <time>2026-03-05T13:38:44Z</time>
      </trkpt>
      <trkpt lat="45.07345" lon="3.93802">
        <ele>717.28</ele>
        <time>2026-03-05T13:39:07Z</time>
      </trkpt>
      <trkpt lat="45.07355" lon="3.93804">
        <ele>716.32</ele>
        <time>2026-03-05T13:39:30Z</time>
      </trkpt>
      <trkpt lat="45.0737" lon="3.93816">
        <ele>718.24</ele>
        <time>2026-03-05T13:39:53Z</time>
      </trkpt>
      <trkpt lat="45.07389" lon="3.93822">
        <ele>727.37</ele>
        <time>2026-03-05T13:40:17Z</time>
      </trkpt>
      <trkpt lat="45.07397" lon="3.93835">
        <ele>733.62</ele>
        <time>2026-03-05T13:40:42Z</time>
      </trkpt>
      <trkpt lat="45.07411" lon="3.9383">
        <ele>735.55</ele>
        <time>2026-03-05T13:41:04Z</time>
      </trkpt>
      <trkpt lat="45.07417" lon="3.93829">
        <ele>748.52</ele>
        <time>2026-03-05T13:41:33Z</time>
      </trkpt>
      <trkpt lat="45.07419" lon="3.93824">
        <ele>742.76</ele>
        <time>2026-03-05T13:41:56Z</time>
      </trkpt>
      <trkpt lat="45.07413" lon="3.93827">
        <ele>734.1</ele>
        <time>2026-03-05T13:42:22Z</time>
      </trkpt>
      <trkpt lat="45.07417" lon="3.9383">
        <ele>733.62</ele>
        <time>2026-03-05T13:42:55Z</time>
      </trkpt>
      <trkpt lat="45.07405" lon="3.93838">
        <ele>733.14</ele>
        <time>2026-03-05T13:43:25Z</time>
      </trkpt>
      <trkpt lat="45.0741" lon="3.93837">
        <ele>741.79</ele>
        <time>2026-03-05T13:43:54Z</time>
      </trkpt>
      <trkpt lat="45.07397" lon="3.93833">
        <ele>740.35</ele>
        <time>2026-03-05T13:44:16Z</time>
      </trkpt>
      <trkpt lat="45.07391" lon="3.93832">
        <ele>743.24</ele>
        <time>2026-03-05T13:44:41Z</time>
      </trkpt>
      <trkpt lat="45.07394" lon="3.93824">
        <ele>742.28</ele>
        <time>2026-03-05T13:45:11Z</time>
      </trkpt>
      <trkpt lat="45.07392" lon="3.93822">
        <ele>747.56</ele>
        <time>2026-03-05T13:45:33Z</time>
      </trkpt>
      <trkpt lat="45.07393" lon="3.93828">
        <ele>749</ele>
        <time>2026-03-05T13:45:58Z</time>
      </trkpt>
      <trkpt lat="45.0739" lon="3.93827">
        <ele>749.97</ele>
        <time>2026-03-05T13:46:25Z</time>
      </trkpt>
      <trkpt lat="45.07393" lon="3.93829">
        <ele>750.45</ele>
        <time>2026-03-05T13:46:47Z</time>
      </trkpt>
      <trkpt lat="45.07394" lon="3.93827">
        <ele>751.41</ele>
        <time>2026-03-05T13:47:11Z</time>
      </trkpt>
      <trkpt lat="45.07392" lon="3.93835">
        <ele>753.33</ele>
        <time>2026-03-05T13:47:36Z</time>
      </trkpt>
      <trkpt lat="45.07395" lon="3.93838">
        <ele>757.18</ele>
        <time>2026-03-05T13:48:06Z</time>
      </trkpt>
      <trkpt lat="45.07385" lon="3.93824">
        <ele>760.06</ele>
        <time>2026-03-05T13:48:36Z</time>
      </trkpt>
      <trkpt lat="45.07369" lon="3.93827">
        <ele>761.98</ele>
        <time>2026-03-05T13:48:57Z</time>
      </trkpt>
      <trkpt lat="45.07349" lon="3.93833">
        <ele>768.71</ele>
        <time>2026-03-05T13:49:18Z</time>
      </trkpt>
      <trkpt lat="45.07327" lon="3.93837">
        <ele>769.19</ele>
        <time>2026-03-05T13:49:38Z</time>
      </trkpt>
      <trkpt lat="45.07301" lon="3.9384">
        <ele>773.04</ele>
        <time>2026-03-05T13:49:57Z</time>
      </trkpt>
      <trkpt lat="45.07277" lon="3.93843">
        <ele>777.84</ele>
        <time>2026-03-05T13:50:20Z</time>
      </trkpt>
      <trkpt lat="45.07259" lon="3.93849">
        <ele>776.4</ele>
        <time>2026-03-05T13:50:42Z</time>
      </trkpt>
      <trkpt lat="45.07241" lon="3.93854">
        <ele>777.36</ele>
        <time>2026-03-05T13:51:01Z</time>
      </trkpt>
      <trkpt lat="45.07222" lon="3.93864">
        <ele>777.84</ele>
        <time>2026-03-05T13:51:25Z</time>
      </trkpt>
      <trkpt lat="45.07205" lon="3.93874">
        <ele>780.73</ele>
        <time>2026-03-05T13:51:44Z</time>
      </trkpt>
      <trkpt lat="45.07192" lon="3.93888">
        <ele>781.69</ele>
        <time>2026-03-05T13:52:03Z</time>
      </trkpt>
      <trkpt lat="45.07206" lon="3.93903">
        <ele>779.29</ele>
        <time>2026-03-05T13:52:21Z</time>
      </trkpt>
      <trkpt lat="45.07221" lon="3.93919">
        <ele>778.81</ele>
        <time>2026-03-05T13:52:42Z</time>
      </trkpt>
      <trkpt lat="45.07241" lon="3.93931">
        <ele>779.77</ele>
        <time>2026-03-05T13:53:06Z</time>
      </trkpt>
      <trkpt lat="45.07262" lon="3.93951">
        <ele>781.69</ele>
        <time>2026-03-05T13:53:27Z</time>
      </trkpt>
      <trkpt lat="45.07279" lon="3.93963">
        <ele>783.61</ele>
        <time>2026-03-05T13:53:51Z</time>
      </trkpt>
      <trkpt lat="45.07303" lon="3.93978">
        <ele>785.53</ele>
        <time>2026-03-05T13:54:15Z</time>
      </trkpt>
      <trkpt lat="45.07322" lon="3.93993">
        <ele>789.38</ele>
        <time>2026-03-05T13:54:35Z</time>
      </trkpt>
      <trkpt lat="45.07347" lon="3.94002">
        <ele>795.15</ele>
        <time>2026-03-05T13:54:58Z</time>
      </trkpt>
      <trkpt lat="45.0737" lon="3.94012">
        <ele>799.95</ele>
        <time>2026-03-05T13:55:17Z</time>
      </trkpt>
      <trkpt lat="45.07389" lon="3.9402">
        <ele>802.36</ele>
        <time>2026-03-05T13:55:38Z</time>
      </trkpt>
      <trkpt lat="45.07394" lon="3.94017">
        <ele>813.41</ele>
        <time>2026-03-05T13:55:59Z</time>
      </trkpt>
      <trkpt lat="45.0739" lon="3.9402">
        <ele>820.62</ele>
        <time>2026-03-05T13:56:25Z</time>
      </trkpt>
      <trkpt lat="45.07394" lon="3.94018">
        <ele>819.66</ele>
        <time>2026-03-05T13:56:50Z</time>
      </trkpt>
      <trkpt lat="45.07391" lon="3.94033">
        <ele>822.55</ele>
        <time>2026-03-05T13:57:11Z</time>
      </trkpt>
      <trkpt lat="45.074" lon="3.94064">
        <ele>824.47</ele>
        <time>2026-03-05T13:57:32Z</time>
      </trkpt>
      <trkpt lat="45.07427" lon="3.94079">
        <ele>823.03</ele>
        <time>2026-03-05T13:57:58Z</time>
      </trkpt>
      <trkpt lat="45.0746" lon="3.94066">
        <ele>822.06</ele>
        <time>2026-03-05T13:58:22Z</time>
      </trkpt>
      <trkpt lat="45.07489" lon="3.94049">
        <ele>820.62</ele>
        <time>2026-03-05T13:58:46Z</time>
      </trkpt>
      <trkpt lat="45.07518" lon="3.94052">
        <ele>823.03</ele>
        <time>2026-03-05T13:59:12Z</time>
      </trkpt>
      <trkpt lat="45.07554" lon="3.94059">
        <ele>825.91</ele>
        <time>2026-03-05T13:59:37Z</time>
      </trkpt>
      <trkpt lat="45.07579" lon="3.94071">
        <ele>822.55</ele>
        <time>2026-03-05T13:59:59Z</time>
      </trkpt>
      <trkpt lat="45.07605" lon="3.94074">
        <ele>821.1</ele>
        <time>2026-03-05T14:00:21Z</time>
      </trkpt>
      <trkpt lat="45.07622" lon="3.94075">
        <ele>819.18</ele>
        <time>2026-03-05T14:00:38Z</time>
      </trkpt>
      <trkpt lat="45.07626" lon="3.94077">
        <ele>816.78</ele>
        <time>2026-03-05T14:01:01Z</time>
      </trkpt>
      <trkpt lat="45.07641" lon="3.94077">
        <ele>819.66</ele>
        <time>2026-03-05T14:01:19Z</time>
      </trkpt>
      <trkpt lat="45.07647" lon="3.94082">
        <ele>820.62</ele>
        <time>2026-03-05T14:01:25Z</time>
      </trkpt>
      <trkpt lat="45.07662" lon="3.9411">
        <ele>825.91</ele>
        <time>2026-03-05T14:01:44Z</time>
      </trkpt>
      <trkpt lat="45.0768" lon="3.94113">
        <ele>828.31</ele>
        <time>2026-03-05T14:02:04Z</time>
      </trkpt>
      <trkpt lat="45.07696" lon="3.94109">
        <ele>833.6</ele>
        <time>2026-03-05T14:02:22Z</time>
      </trkpt>
      <trkpt lat="45.07721" lon="3.94105">
        <ele>836.48</ele>
        <time>2026-03-05T14:02:45Z</time>
      </trkpt>
      <trkpt lat="45.07748" lon="3.941">
        <ele>839.37</ele>
        <time>2026-03-05T14:03:11Z</time>
      </trkpt>
      <trkpt lat="45.07756" lon="3.94095">
        <ele>838.89</ele>
        <time>2026-03-05T14:03:18Z</time>
      </trkpt>
      <trkpt lat="45.07782" lon="3.94087">
        <ele>843.21</ele>
        <time>2026-03-05T14:03:41Z</time>
      </trkpt>
      <trkpt lat="45.07802" lon="3.94096">
        <ele>847.54</ele>
        <time>2026-03-05T14:04:01Z</time>
      </trkpt>
      <trkpt lat="45.07806" lon="3.941">
        <ele>848.98</ele>
        <time>2026-03-05T14:04:05Z</time>
      </trkpt>
      <trkpt lat="45.07828" lon="3.94116">
        <ele>856.67</ele>
        <time>2026-03-05T14:04:27Z</time>
      </trkpt>
      <trkpt lat="45.07848" lon="3.94124">
        <ele>860.52</ele>
        <time>2026-03-05T14:04:48Z</time>
      </trkpt>
      <trkpt lat="45.07853" lon="3.94124">
        <ele>862.44</ele>
        <time>2026-03-05T14:05:08Z</time>
      </trkpt>
      <trkpt lat="45.07856" lon="3.94122">
        <ele>861.96</ele>
        <time>2026-03-05T14:05:29Z</time>
      </trkpt>
      <trkpt lat="45.07855" lon="3.9412">
        <ele>861.96</ele>
        <time>2026-03-05T14:06:01Z</time>
      </trkpt>
      <trkpt lat="45.07857" lon="3.9412">
        <ele>862.44</ele>
        <time>2026-03-05T14:06:35Z</time>
      </trkpt>
      <trkpt lat="45.07857" lon="3.94118">
        <ele>863.4</ele>
        <time>2026-03-05T14:07:05Z</time>
      </trkpt>
      <trkpt lat="45.07855" lon="3.9412">
        <ele>861</ele>
        <time>2026-03-05T14:07:36Z</time>
      </trkpt>
      <trkpt lat="45.07866" lon="3.94127">
        <ele>861.48</ele>
        <time>2026-03-05T14:07:54Z</time>
      </trkpt>
      <trkpt lat="45.0789" lon="3.94137">
        <ele>858.59</ele>
        <time>2026-03-05T14:08:18Z</time>
      </trkpt>
      <trkpt lat="45.07914" lon="3.9415">
        <ele>855.23</ele>
        <time>2026-03-05T14:08:40Z</time>
      </trkpt>
      <trkpt lat="45.07936" lon="3.94165">
        <ele>855.23</ele>
        <time>2026-03-05T14:09:02Z</time>
      </trkpt>
      <trkpt lat="45.0796" lon="3.94172">
        <ele>858.59</ele>
        <time>2026-03-05T14:09:25Z</time>
      </trkpt>
      <trkpt lat="45.07981" lon="3.94174">
        <ele>861.48</ele>
        <time>2026-03-05T14:09:45Z</time>
      </trkpt>
      <trkpt lat="45.08011" lon="3.9418">
        <ele>865.32</ele>
        <time>2026-03-05T14:10:06Z</time>
      </trkpt>
      <trkpt lat="45.08048" lon="3.94192">
        <ele>865.8</ele>
        <time>2026-03-05T14:10:32Z</time>
      </trkpt>
      <trkpt lat="45.08078" lon="3.94204">
        <ele>864.84</ele>
        <time>2026-03-05T14:10:53Z</time>
      </trkpt>
      <trkpt lat="45.08107" lon="3.94213">
        <ele>862.44</ele>
        <time>2026-03-05T14:11:16Z</time>
      </trkpt>
      <trkpt lat="45.08136" lon="3.94211">
        <ele>859.08</ele>
        <time>2026-03-05T14:11:38Z</time>
      </trkpt>
      <trkpt lat="45.0816" lon="3.9421">
        <ele>857.15</ele>
        <time>2026-03-05T14:11:57Z</time>
      </trkpt>
      <trkpt lat="45.08191" lon="3.94202">
        <ele>857.63</ele>
        <time>2026-03-05T14:12:21Z</time>
      </trkpt>
      <trkpt lat="45.0822" lon="3.94192">
        <ele>862.44</ele>
        <time>2026-03-05T14:12:45Z</time>
      </trkpt>
      <trkpt lat="45.08242" lon="3.94174">
        <ele>867.73</ele>
        <time>2026-03-05T14:13:07Z</time>
      </trkpt>
      <trkpt lat="45.08271" lon="3.94166">
        <ele>871.57</ele>
        <time>2026-03-05T14:13:28Z</time>
      </trkpt>
      <trkpt lat="45.08283" lon="3.94171">
        <ele>870.13</ele>
        <time>2026-03-05T14:13:40Z</time>
      </trkpt>
      <trkpt lat="45.08301" lon="3.94193">
        <ele>866.29</ele>
        <time>2026-03-05T14:13:59Z</time>
      </trkpt>
      <trkpt lat="45.08322" lon="3.94223">
        <ele>863.88</ele>
        <time>2026-03-05T14:14:23Z</time>
      </trkpt>
      <trkpt lat="45.08332" lon="3.94246">
        <ele>862.92</ele>
        <time>2026-03-05T14:14:38Z</time>
      </trkpt>
      <trkpt lat="45.08346" lon="3.94259">
        <ele>861.96</ele>
        <time>2026-03-05T14:14:51Z</time>
      </trkpt>
      <trkpt lat="45.08361" lon="3.94268">
        <ele>863.88</ele>
        <time>2026-03-05T14:15:04Z</time>
      </trkpt>
      <trkpt lat="45.08368" lon="3.94271">
        <ele>864.36</ele>
        <time>2026-03-05T14:15:11Z</time>
      </trkpt>
      <trkpt lat="45.08391" lon="3.94272">
        <ele>863.88</ele>
        <time>2026-03-05T14:15:30Z</time>
      </trkpt>
      <trkpt lat="45.08393" lon="3.94266">
        <ele>862.44</ele>
        <time>2026-03-05T14:15:45Z</time>
      </trkpt>
      <trkpt lat="45.08395" lon="3.94268">
        <ele>861.48</ele>
        <time>2026-03-05T14:16:06Z</time>
      </trkpt>
      <trkpt lat="45.08397" lon="3.9427">
        <ele>860.04</ele>
        <time>2026-03-05T14:16:26Z</time>
      </trkpt>
      <trkpt lat="45.08412" lon="3.9427">
        <ele>861.96</ele>
        <time>2026-03-05T14:16:42Z</time>
      </trkpt>
      <trkpt lat="45.0843" lon="3.94268">
        <ele>861.96</ele>
        <time>2026-03-05T14:17:01Z</time>
      </trkpt>
      <trkpt lat="45.08448" lon="3.94264">
        <ele>862.92</ele>
        <time>2026-03-05T14:17:18Z</time>
      </trkpt>
      <trkpt lat="45.08469" lon="3.94256">
        <ele>862.92</ele>
        <time>2026-03-05T14:17:37Z</time>
      </trkpt>
      <trkpt lat="45.08496" lon="3.94247">
        <ele>864.84</ele>
        <time>2026-03-05T14:17:56Z</time>
      </trkpt>
      <trkpt lat="45.08523" lon="3.94238">
        <ele>865.32</ele>
        <time>2026-03-05T14:18:17Z</time>
      </trkpt>
      <trkpt lat="45.08548" lon="3.94229">
        <ele>868.21</ele>
        <time>2026-03-05T14:18:38Z</time>
      </trkpt>
      <trkpt lat="45.08573" lon="3.9422">
        <ele>870.61</ele>
        <time>2026-03-05T14:19:00Z</time>
      </trkpt>
      <trkpt lat="45.08597" lon="3.94218">
        <ele>877.34</ele>
        <time>2026-03-05T14:19:16Z</time>
      </trkpt>
      <trkpt lat="45.08608" lon="3.94223">
        <ele>876.86</ele>
        <time>2026-03-05T14:19:27Z</time>
      </trkpt>
      <trkpt lat="45.08615" lon="3.94226">
        <ele>877.34</ele>
        <time>2026-03-05T14:19:34Z</time>
      </trkpt>
      <trkpt lat="45.08638" lon="3.94236">
        <ele>877.34</ele>
        <time>2026-03-05T14:19:54Z</time>
      </trkpt>
      <trkpt lat="45.08664" lon="3.94249">
        <ele>878.3</ele>
        <time>2026-03-05T14:20:14Z</time>
      </trkpt>
      <trkpt lat="45.08694" lon="3.94262">
        <ele>879.74</ele>
        <time>2026-03-05T14:20:37Z</time>
      </trkpt>
      <trkpt lat="45.08726" lon="3.94273">
        <ele>877.82</ele>
        <time>2026-03-05T14:21:00Z</time>
      </trkpt>
      <trkpt lat="45.08746" lon="3.94281">
        <ele>879.26</ele>
        <time>2026-03-05T14:21:18Z</time>
      </trkpt>
      <trkpt lat="45.08765" lon="3.94272">
        <ele>882.15</ele>
        <time>2026-03-05T14:21:36Z</time>
      </trkpt>
      <trkpt lat="45.08783" lon="3.94242">
        <ele>880.22</ele>
        <time>2026-03-05T14:21:55Z</time>
      </trkpt>
      <trkpt lat="45.08794" lon="3.94212">
        <ele>881.19</ele>
        <time>2026-03-05T14:22:15Z</time>
      </trkpt>
      <trkpt lat="45.08802" lon="3.94193">
        <ele>882.63</ele>
        <time>2026-03-05T14:22:27Z</time>
      </trkpt>
      <trkpt lat="45.08812" lon="3.94163">
        <ele>883.59</ele>
        <time>2026-03-05T14:22:47Z</time>
      </trkpt>
      <trkpt lat="45.08817" lon="3.9413">
        <ele>886.95</ele>
        <time>2026-03-05T14:23:07Z</time>
      </trkpt>
      <trkpt lat="45.08817" lon="3.94098">
        <ele>887.91</ele>
        <time>2026-03-05T14:23:26Z</time>
      </trkpt>
      <trkpt lat="45.08829" lon="3.94073">
        <ele>886.47</ele>
        <time>2026-03-05T14:23:45Z</time>
      </trkpt>
      <trkpt lat="45.08841" lon="3.94058">
        <ele>885.51</ele>
        <time>2026-03-05T14:23:58Z</time>
      </trkpt>
      <trkpt lat="45.08842" lon="3.94057">
        <ele>885.51</ele>
        <time>2026-03-05T14:23:59Z</time>
      </trkpt>
      <trkpt lat="45.08867" lon="3.94043">
        <ele>883.11</ele>
        <time>2026-03-05T14:24:20Z</time>
      </trkpt>
      <trkpt lat="45.0889" lon="3.94031">
        <ele>881.19</ele>
        <time>2026-03-05T14:24:42Z</time>
      </trkpt>
      <trkpt lat="45.08909" lon="3.94032">
        <ele>879.74</ele>
        <time>2026-03-05T14:25:00Z</time>
      </trkpt>
      <trkpt lat="45.0894" lon="3.94035">
        <ele>878.78</ele>
        <time>2026-03-05T14:25:21Z</time>
      </trkpt>
      <trkpt lat="45.08957" lon="3.94033">
        <ele>877.82</ele>
        <time>2026-03-05T14:25:36Z</time>
      </trkpt>
      <trkpt lat="45.08959" lon="3.94032">
        <ele>877.82</ele>
        <time>2026-03-05T14:25:37Z</time>
      </trkpt>
      <trkpt lat="45.0896" lon="3.94032">
        <ele>877.82</ele>
        <time>2026-03-05T14:25:38Z</time>
      </trkpt>
      <trkpt lat="45.08972" lon="3.94008">
        <ele>878.78</ele>
        <time>2026-03-05T14:25:53Z</time>
      </trkpt>
      <trkpt lat="45.08973" lon="3.93964">
        <ele>880.71</ele>
        <time>2026-03-05T14:26:14Z</time>
      </trkpt>
      <trkpt lat="45.08972" lon="3.93936">
        <ele>882.63</ele>
        <time>2026-03-05T14:26:32Z</time>
      </trkpt>
      <trkpt lat="45.08975" lon="3.93909">
        <ele>887.43</ele>
        <time>2026-03-05T14:26:50Z</time>
      </trkpt>
      <trkpt lat="45.08978" lon="3.93885">
        <ele>893.2</ele>
        <time>2026-03-05T14:27:07Z</time>
      </trkpt>
      <trkpt lat="45.08976" lon="3.93858">
        <ele>893.68</ele>
        <time>2026-03-05T14:27:23Z</time>
      </trkpt>
      <trkpt lat="45.08974" lon="3.93823">
        <ele>897.53</ele>
        <time>2026-03-05T14:27:42Z</time>
      </trkpt>
      <trkpt lat="45.08975" lon="3.9381">
        <ele>899.93</ele>
        <time>2026-03-05T14:27:58Z</time>
      </trkpt>
      <trkpt lat="45.08979" lon="3.93791">
        <ele>901.37</ele>
        <time>2026-03-05T14:28:13Z</time>
      </trkpt>
      <trkpt lat="45.0899" lon="3.93765">
        <ele>900.89</ele>
        <time>2026-03-05T14:28:33Z</time>
      </trkpt>
      <trkpt lat="45.08998" lon="3.9374">
        <ele>898.97</ele>
        <time>2026-03-05T14:28:47Z</time>
      </trkpt>
      <trkpt lat="45.09006" lon="3.93704">
        <ele>898.01</ele>
        <time>2026-03-05T14:29:06Z</time>
      </trkpt>
      <trkpt lat="45.0901" lon="3.93675">
        <ele>899.93</ele>
        <time>2026-03-05T14:29:23Z</time>
      </trkpt>
      <trkpt lat="45.09011" lon="3.9364">
        <ele>902.82</ele>
        <time>2026-03-05T14:29:43Z</time>
      </trkpt>
      <trkpt lat="45.09001" lon="3.93618">
        <ele>906.18</ele>
        <time>2026-03-05T14:29:59Z</time>
      </trkpt>
      <trkpt lat="45.09001" lon="3.93596">
        <ele>908.1</ele>
        <time>2026-03-05T14:30:19Z</time>
      </trkpt>
      <trkpt lat="45.09004" lon="3.93572">
        <ele>915.79</ele>
        <time>2026-03-05T14:30:40Z</time>
      </trkpt>
      <trkpt lat="45.09008" lon="3.93543">
        <ele>918.2</ele>
        <time>2026-03-05T14:31:00Z</time>
      </trkpt>
      <trkpt lat="45.09012" lon="3.93524">
        <ele>921.08</ele>
        <time>2026-03-05T14:31:19Z</time>
      </trkpt>
      <trkpt lat="45.09019" lon="3.93486">
        <ele>923</ele>
        <time>2026-03-05T14:31:40Z</time>
      </trkpt>
      <trkpt lat="45.0902" lon="3.93453">
        <ele>923</ele>
        <time>2026-03-05T14:32:00Z</time>
      </trkpt>
      <trkpt lat="45.09013" lon="3.93457">
        <ele>923.48</ele>
        <time>2026-03-05T14:32:26Z</time>
      </trkpt>
      <trkpt lat="45.09011" lon="3.93453">
        <ele>922.52</ele>
        <time>2026-03-05T14:32:48Z</time>
      </trkpt>
      <trkpt lat="45.0901" lon="3.93453">
        <ele>919.16</ele>
        <time>2026-03-05T14:33:19Z</time>
      </trkpt>
      <trkpt lat="45.09015" lon="3.93429">
        <ele>919.16</ele>
        <time>2026-03-05T14:33:45Z</time>
      </trkpt>
      <trkpt lat="45.0903" lon="3.93397">
        <ele>916.27</ele>
        <time>2026-03-05T14:34:07Z</time>
      </trkpt>
      <trkpt lat="45.0904" lon="3.93373">
        <ele>915.31</ele>
        <time>2026-03-05T14:34:26Z</time>
      </trkpt>
      <trkpt lat="45.09046" lon="3.93365">
        <ele>914.83</ele>
        <time>2026-03-05T14:34:32Z</time>
      </trkpt>
      <trkpt lat="45.09047" lon="3.93364">
        <ele>914.83</ele>
        <time>2026-03-05T14:34:33Z</time>
      </trkpt>
      <trkpt lat="45.09048" lon="3.93363">
        <ele>914.83</ele>
        <time>2026-03-05T14:34:34Z</time>
      </trkpt>
      <trkpt lat="45.09049" lon="3.93362">
        <ele>914.83</ele>
        <time>2026-03-05T14:34:35Z</time>
      </trkpt>
      <trkpt lat="45.0905" lon="3.93362">
        <ele>914.35</ele>
        <time>2026-03-05T14:34:36Z</time>
      </trkpt>
      <trkpt lat="45.09051" lon="3.93361">
        <ele>914.35</ele>
        <time>2026-03-05T14:34:37Z</time>
      </trkpt>
      <trkpt lat="45.09052" lon="3.9336">
        <ele>914.35</ele>
        <time>2026-03-05T14:34:38Z</time>
      </trkpt>
      <trkpt lat="45.09066" lon="3.93331">
        <ele>911.47</ele>
        <time>2026-03-05T14:34:58Z</time>
      </trkpt>
      <trkpt lat="45.09079" lon="3.93306">
        <ele>909.06</ele>
        <time>2026-03-05T14:35:17Z</time>
      </trkpt>
      <trkpt lat="45.09095" lon="3.93278">
        <ele>905.7</ele>
        <time>2026-03-05T14:35:36Z</time>
      </trkpt>
      <trkpt lat="45.09108" lon="3.93258">
        <ele>903.78</ele>
        <time>2026-03-05T14:35:50Z</time>
      </trkpt>
      <trkpt lat="45.09123" lon="3.93241">
        <ele>904.26</ele>
        <time>2026-03-05T14:36:07Z</time>
      </trkpt>
      <trkpt lat="45.09142" lon="3.93219">
        <ele>902.82</ele>
        <time>2026-03-05T14:36:24Z</time>
      </trkpt>
      <trkpt lat="45.09156" lon="3.93195">
        <ele>901.37</ele>
        <time>2026-03-05T14:36:39Z</time>
      </trkpt>
      <trkpt lat="45.09155" lon="3.93167">
        <ele>898.97</ele>
        <time>2026-03-05T14:36:55Z</time>
      </trkpt>
      <trkpt lat="45.09127" lon="3.93149">
        <ele>894.16</ele>
        <time>2026-03-05T14:37:16Z</time>
      </trkpt>
      <trkpt lat="45.09111" lon="3.9314">
        <ele>893.2</ele>
        <time>2026-03-05T14:37:35Z</time>
      </trkpt>
      <trkpt lat="45.09094" lon="3.93126">
        <ele>892.24</ele>
        <time>2026-03-05T14:37:50Z</time>
      </trkpt>
      <trkpt lat="45.09092" lon="3.93104">
        <ele>890.8</ele>
        <time>2026-03-05T14:38:04Z</time>
      </trkpt>
      <trkpt lat="45.09108" lon="3.93087">
        <ele>889.84</ele>
        <time>2026-03-05T14:38:20Z</time>
      </trkpt>
      <trkpt lat="45.09119" lon="3.93064">
        <ele>888.88</ele>
        <time>2026-03-05T14:38:36Z</time>
      </trkpt>
      <trkpt lat="45.09119" lon="3.93062">
        <ele>889.36</ele>
        <time>2026-03-05T14:38:37Z</time>
      </trkpt>
      <trkpt lat="45.09103" lon="3.93029">
        <ele>887.91</ele>
        <time>2026-03-05T14:38:58Z</time>
      </trkpt>
      <trkpt lat="45.09088" lon="3.93002">
        <ele>887.91</ele>
        <time>2026-03-05T14:39:18Z</time>
      </trkpt>
      <trkpt lat="45.09067" lon="3.9298">
        <ele>886.47</ele>
        <time>2026-03-05T14:39:37Z</time>
      </trkpt>
      <trkpt lat="45.09045" lon="3.92962">
        <ele>883.59</ele>
        <time>2026-03-05T14:39:56Z</time>
      </trkpt>
      <trkpt lat="45.09042" lon="3.92949">
        <ele>881.19</ele>
        <time>2026-03-05T14:40:04Z</time>
      </trkpt>
      <trkpt lat="45.09043" lon="3.92918">
        <ele>880.22</ele>
        <time>2026-03-05T14:40:21Z</time>
      </trkpt>
      <trkpt lat="45.09029" lon="3.92893">
        <ele>877.82</ele>
        <time>2026-03-05T14:40:38Z</time>
      </trkpt>
      <trkpt lat="45.09018" lon="3.92869">
        <ele>873.5</ele>
        <time>2026-03-05T14:40:54Z</time>
      </trkpt>
      <trkpt lat="45.09004" lon="3.92839">
        <ele>870.61</ele>
        <time>2026-03-05T14:41:14Z</time>
      </trkpt>
      <trkpt lat="45.08991" lon="3.92807">
        <ele>868.69</ele>
        <time>2026-03-05T14:41:34Z</time>
      </trkpt>
      <trkpt lat="45.08973" lon="3.92781">
        <ele>866.29</ele>
        <time>2026-03-05T14:41:54Z</time>
      </trkpt>
      <trkpt lat="45.08959" lon="3.92752">
        <ele>861.96</ele>
        <time>2026-03-05T14:42:14Z</time>
      </trkpt>
      <trkpt lat="45.08955" lon="3.92714">
        <ele>861.48</ele>
        <time>2026-03-05T14:42:33Z</time>
      </trkpt>
      <trkpt lat="45.08952" lon="3.92674">
        <ele>860.04</ele>
        <time>2026-03-05T14:42:55Z</time>
      </trkpt>
      <trkpt lat="45.08951" lon="3.92633">
        <ele>860.52</ele>
        <time>2026-03-05T14:43:16Z</time>
      </trkpt>
      <trkpt lat="45.08957" lon="3.92591">
        <ele>861.48</ele>
        <time>2026-03-05T14:43:37Z</time>
      </trkpt>
      <trkpt lat="45.08959" lon="3.92554">
        <ele>862.44</ele>
        <time>2026-03-05T14:43:56Z</time>
      </trkpt>
      <trkpt lat="45.08961" lon="3.92517">
        <ele>862.92</ele>
        <time>2026-03-05T14:44:15Z</time>
      </trkpt>
      <trkpt lat="45.08967" lon="3.92478">
        <ele>861.48</ele>
        <time>2026-03-05T14:44:35Z</time>
      </trkpt>
      <trkpt lat="45.08972" lon="3.92441">
        <ele>860.04</ele>
        <time>2026-03-05T14:44:54Z</time>
      </trkpt>
      <trkpt lat="45.08979" lon="3.92403">
        <ele>858.11</ele>
        <time>2026-03-05T14:45:14Z</time>
      </trkpt>
      <trkpt lat="45.08985" lon="3.92373">
        <ele>857.15</ele>
        <time>2026-03-05T14:45:33Z</time>
      </trkpt>
      <trkpt lat="45.09002" lon="3.92343">
        <ele>856.19</ele>
        <time>2026-03-05T14:45:55Z</time>
      </trkpt>
      <trkpt lat="45.09004" lon="3.92339">
        <ele>856.19</ele>
        <time>2026-03-05T14:46:12Z</time>
      </trkpt>
      <trkpt lat="45.09006" lon="3.92333">
        <ele>855.71</ele>
        <time>2026-03-05T14:46:37Z</time>
      </trkpt>
      <trkpt lat="45.09006" lon="3.92321">
        <ele>854.27</ele>
        <time>2026-03-05T14:46:55Z</time>
      </trkpt>
      <trkpt lat="45.09009" lon="3.92301">
        <ele>852.83</ele>
        <time>2026-03-05T14:47:06Z</time>
      </trkpt>
      <trkpt lat="45.09018" lon="3.92261">
        <ele>849.46</ele>
        <time>2026-03-05T14:47:31Z</time>
      </trkpt>
      <trkpt lat="45.09031" lon="3.92237">
        <ele>845.62</ele>
        <time>2026-03-05T14:47:51Z</time>
      </trkpt>
      <trkpt lat="45.09054" lon="3.92206">
        <ele>844.66</ele>
        <time>2026-03-05T14:48:14Z</time>
      </trkpt>
      <trkpt lat="45.09067" lon="3.92179">
        <ele>844.66</ele>
        <time>2026-03-05T14:48:32Z</time>
      </trkpt>
      <trkpt lat="45.09064" lon="3.92149">
        <ele>844.18</ele>
        <time>2026-03-05T14:48:49Z</time>
      </trkpt>
      <trkpt lat="45.09063" lon="3.92146">
        <ele>844.18</ele>
        <time>2026-03-05T14:48:51Z</time>
      </trkpt>
      <trkpt lat="45.09042" lon="3.92126">
        <ele>840.81</ele>
        <time>2026-03-05T14:49:10Z</time>
      </trkpt>
      <trkpt lat="45.09033" lon="3.92107">
        <ele>839.37</ele>
        <time>2026-03-05T14:49:26Z</time>
      </trkpt>
      <trkpt lat="45.09046" lon="3.92082">
        <ele>837.45</ele>
        <time>2026-03-05T14:49:45Z</time>
      </trkpt>
      <trkpt lat="45.09061" lon="3.92063">
        <ele>838.41</ele>
        <time>2026-03-05T14:50:04Z</time>
      </trkpt>
      <trkpt lat="45.09078" lon="3.92032">
        <ele>834.08</ele>
        <time>2026-03-05T14:50:27Z</time>
      </trkpt>
      <trkpt lat="45.09097" lon="3.9201">
        <ele>829.76</ele>
        <time>2026-03-05T14:50:49Z</time>
      </trkpt>
      <trkpt lat="45.0912" lon="3.92">
        <ele>825.91</ele>
        <time>2026-03-05T14:51:09Z</time>
      </trkpt>
      <trkpt lat="45.09134" lon="3.91994">
        <ele>823.03</ele>
        <time>2026-03-05T14:51:21Z</time>
      </trkpt>
      <trkpt lat="45.09149" lon="3.91967">
        <ele>818.7</ele>
        <time>2026-03-05T14:51:40Z</time>
      </trkpt>
      <trkpt lat="45.09164" lon="3.91937">
        <ele>812.45</ele>
        <time>2026-03-05T14:52:00Z</time>
      </trkpt>
      <trkpt lat="45.09186" lon="3.91917">
        <ele>810.05</ele>
        <time>2026-03-05T14:52:22Z</time>
      </trkpt>
      <trkpt lat="45.09205" lon="3.91895">
        <ele>809.09</ele>
        <time>2026-03-05T14:52:42Z</time>
      </trkpt>
      <trkpt lat="45.09222" lon="3.91876">
        <ele>807.64</ele>
        <time>2026-03-05T14:53:00Z</time>
      </trkpt>
      <trkpt lat="45.09244" lon="3.9186">
        <ele>807.64</ele>
        <time>2026-03-05T14:53:18Z</time>
      </trkpt>
      <trkpt lat="45.09244" lon="3.91856">
        <ele>807.64</ele>
        <time>2026-03-05T14:53:20Z</time>
      </trkpt>
      <trkpt lat="45.09219" lon="3.91841">
        <ele>806.68</ele>
        <time>2026-03-05T14:53:38Z</time>
      </trkpt>
      <trkpt lat="45.09194" lon="3.91835">
        <ele>802.84</ele>
        <time>2026-03-05T14:53:55Z</time>
      </trkpt>
      <trkpt lat="45.09171" lon="3.9183">
        <ele>799.95</ele>
        <time>2026-03-05T14:54:12Z</time>
      </trkpt>
      <trkpt lat="45.09148" lon="3.91818">
        <ele>796.59</ele>
        <time>2026-03-05T14:54:30Z</time>
      </trkpt>
      <trkpt lat="45.09143" lon="3.91816">
        <ele>796.11</ele>
        <time>2026-03-05T14:54:34Z</time>
      </trkpt>
      <trkpt lat="45.09121" lon="3.918">
        <ele>796.11</ele>
        <time>2026-03-05T14:54:52Z</time>
      </trkpt>
      <trkpt lat="45.09098" lon="3.91781">
        <ele>790.34</ele>
        <time>2026-03-05T14:55:12Z</time>
      </trkpt>
      <trkpt lat="45.09075" lon="3.91759">
        <ele>785.53</ele>
        <time>2026-03-05T14:55:33Z</time>
      </trkpt>
      <trkpt lat="45.09057" lon="3.91743">
        <ele>782.65</ele>
        <time>2026-03-05T14:55:51Z</time>
      </trkpt>
      <trkpt lat="45.09032" lon="3.91738">
        <ele>778.81</ele>
        <time>2026-03-05T14:56:12Z</time>
      </trkpt>
      <trkpt lat="45.09022" lon="3.91734">
        <ele>780.73</ele>
        <time>2026-03-05T14:56:18Z</time>
      </trkpt>
      <trkpt lat="45.08991" lon="3.91726">
        <ele>798.99</ele>
        <time>2026-03-05T14:56:41Z</time>
      </trkpt>
      <trkpt lat="45.0897" lon="3.91719">
        <ele>807.16</ele>
        <time>2026-03-05T14:57:01Z</time>
      </trkpt>
      <trkpt lat="45.08963" lon="3.91714">
        <ele>808.61</ele>
        <time>2026-03-05T14:57:08Z</time>
      </trkpt>
      <trkpt lat="45.08954" lon="3.91697">
        <ele>811.01</ele>
        <time>2026-03-05T14:57:30Z</time>
      </trkpt>
      <trkpt lat="45.08947" lon="3.91697">
        <ele>811.49</ele>
        <time>2026-03-05T14:57:44Z</time>
      </trkpt>
      <trkpt lat="45.08921" lon="3.9169">
        <ele>815.82</ele>
        <time>2026-03-05T14:58:00Z</time>
      </trkpt>
      <trkpt lat="45.08907" lon="3.91681">
        <ele>816.3</ele>
        <time>2026-03-05T14:58:17Z</time>
      </trkpt>
      <trkpt lat="45.08894" lon="3.91673">
        <ele>815.34</ele>
        <time>2026-03-05T14:58:34Z</time>
      </trkpt>
      <trkpt lat="45.08881" lon="3.91653">
        <ele>817.26</ele>
        <time>2026-03-05T14:58:52Z</time>
      </trkpt>
      <trkpt lat="45.0889" lon="3.91646">
        <ele>818.7</ele>
        <time>2026-03-05T14:59:08Z</time>
      </trkpt>
      <trkpt lat="45.08902" lon="3.91655">
        <ele>817.74</ele>
        <time>2026-03-05T14:59:26Z</time>
      </trkpt>
      <trkpt lat="45.08904" lon="3.91646">
        <ele>817.74</ele>
        <time>2026-03-05T14:59:46Z</time>
      </trkpt>
      <trkpt lat="45.08911" lon="3.9164">
        <ele>816.3</ele>
        <time>2026-03-05T15:00:08Z</time>
      </trkpt>
      <trkpt lat="45.08897" lon="3.91644">
        <ele>817.26</ele>
        <time>2026-03-05T15:00:21Z</time>
      </trkpt>
      <trkpt lat="45.08894" lon="3.91639">
        <ele>813.89</ele>
        <time>2026-03-05T15:00:36Z</time>
      </trkpt>
      <trkpt lat="45.08894" lon="3.91641">
        <ele>814.37</ele>
        <time>2026-03-05T15:01:00Z</time>
      </trkpt>
      <trkpt lat="45.0889" lon="3.91644">
        <ele>815.82</ele>
        <time>2026-03-05T15:01:18Z</time>
      </trkpt>
      <trkpt lat="45.08889" lon="3.91645">
        <ele>816.78</ele>
        <time>2026-03-05T15:01:40Z</time>
      </trkpt>
      <trkpt lat="45.08891" lon="3.91645">
        <ele>816.3</ele>
        <time>2026-03-05T15:02:06Z</time>
      </trkpt>
      <trkpt lat="45.08893" lon="3.91645">
        <ele>814.37</ele>
        <time>2026-03-05T15:02:35Z</time>
      </trkpt>
      <trkpt lat="45.08894" lon="3.91642">
        <ele>813.89</ele>
        <time>2026-03-05T15:03:01Z</time>
      </trkpt>
      <trkpt lat="45.08893" lon="3.91641">
        <ele>815.34</ele>
        <time>2026-03-05T15:03:31Z</time>
      </trkpt>
      <trkpt lat="45.08892" lon="3.91641">
        <ele>816.3</ele>
        <time>2026-03-05T15:03:47Z</time>
      </trkpt>
      <trkpt lat="45.08893" lon="3.91641">
        <ele>817.74</ele>
        <time>2026-03-05T15:04:12Z</time>
      </trkpt>
      <trkpt lat="45.08893" lon="3.91641">
        <ele>817.74</ele>
        <time>2026-03-05T15:04:38Z</time>
      </trkpt>
      <trkpt lat="45.08893" lon="3.91641">
        <ele>818.22</ele>
        <time>2026-03-05T15:05:04Z</time>
      </trkpt>
      <trkpt lat="45.08893" lon="3.91641">
        <ele>818.22</ele>
        <time>2026-03-05T15:05:36Z</time>
      </trkpt>
      <trkpt lat="45.08892" lon="3.91641">
        <ele>818.22</ele>
        <time>2026-03-05T15:05:49Z</time>
      </trkpt>
      <trkpt lat="45.08893" lon="3.91644">
        <ele>817.26</ele>
        <time>2026-03-05T15:06:08Z</time>
      </trkpt>
      <trkpt lat="45.08889" lon="3.91645">
        <ele>817.26</ele>
        <time>2026-03-05T15:06:25Z</time>
      </trkpt>
      <trkpt lat="45.08882" lon="3.91649">
        <ele>815.82</ele>
        <time>2026-03-05T15:06:40Z</time>
      </trkpt>
      <trkpt lat="45.08882" lon="3.91667">
        <ele>812.93</ele>
        <time>2026-03-05T15:06:56Z</time>
      </trkpt>
      <trkpt lat="45.08899" lon="3.91684">
        <ele>811.97</ele>
        <time>2026-03-05T15:07:15Z</time>
      </trkpt>
      <trkpt lat="45.08915" lon="3.91696">
        <ele>811.49</ele>
        <time>2026-03-05T15:07:33Z</time>
      </trkpt>
      <trkpt lat="45.08941" lon="3.91705">
        <ele>810.53</ele>
        <time>2026-03-05T15:07:53Z</time>
      </trkpt>
      <trkpt lat="45.0895" lon="3.91708">
        <ele>809.57</ele>
        <time>2026-03-05T15:08:01Z</time>
      </trkpt>
      <trkpt lat="45.08967" lon="3.91728">
        <ele>807.64</ele>
        <time>2026-03-05T15:08:19Z</time>
      </trkpt>
      <trkpt lat="45.08971" lon="3.9173">
        <ele>807.64</ele>
        <time>2026-03-05T15:08:22Z</time>
      </trkpt>
      <trkpt lat="45.08998" lon="3.9174">
        <ele>805.24</ele>
        <time>2026-03-05T15:08:45Z</time>
      </trkpt>
      <trkpt lat="45.09022" lon="3.91742">
        <ele>799.95</ele>
        <time>2026-03-05T15:09:05Z</time>
      </trkpt>
      <trkpt lat="45.09048" lon="3.91752">
        <ele>797.07</ele>
        <time>2026-03-05T15:09:26Z</time>
      </trkpt>
      <trkpt lat="45.09069" lon="3.91767">
        <ele>792.74</ele>
        <time>2026-03-05T15:09:46Z</time>
      </trkpt>
      <trkpt lat="45.09093" lon="3.91788">
        <ele>793.22</ele>
        <time>2026-03-05T15:10:06Z</time>
      </trkpt>
      <trkpt lat="45.09116" lon="3.91809">
        <ele>791.78</ele>
        <time>2026-03-05T15:10:26Z</time>
      </trkpt>
      <trkpt lat="45.09133" lon="3.91826">
        <ele>791.78</ele>
        <time>2026-03-05T15:10:42Z</time>
      </trkpt>
      <trkpt lat="45.09158" lon="3.91836">
        <ele>792.74</ele>
        <time>2026-03-05T15:11:02Z</time>
      </trkpt>
      <trkpt lat="45.09171" lon="3.91839">
        <ele>792.74</ele>
        <time>2026-03-05T15:11:19Z</time>
      </trkpt>
      <trkpt lat="45.09198" lon="3.91847">
        <ele>797.55</ele>
        <time>2026-03-05T15:11:38Z</time>
      </trkpt>
      <trkpt lat="45.09221" lon="3.9185">
        <ele>797.07</ele>
        <time>2026-03-05T15:12:00Z</time>
      </trkpt>
      <trkpt lat="45.09228" lon="3.91861">
        <ele>796.59</ele>
        <time>2026-03-05T15:12:18Z</time>
      </trkpt>
      <trkpt lat="45.09225" lon="3.91863">
        <ele>796.59</ele>
        <time>2026-03-05T15:12:24Z</time>
      </trkpt>
      <trkpt lat="45.09205" lon="3.91875">
        <ele>801.4</ele>
        <time>2026-03-05T15:12:44Z</time>
      </trkpt>
      <trkpt lat="45.09189" lon="3.91897">
        <ele>804.76</ele>
        <time>2026-03-05T15:13:02Z</time>
      </trkpt>
      <trkpt lat="45.09198" lon="3.91907">
        <ele>811.01</ele>
        <time>2026-03-05T15:13:15Z</time>
      </trkpt>
      <trkpt lat="45.0921" lon="3.91913">
        <ele>817.74</ele>
        <time>2026-03-05T15:13:33Z</time>
      </trkpt>
      <trkpt lat="45.09228" lon="3.91917">
        <ele>823.03</ele>
        <time>2026-03-05T15:13:49Z</time>
      </trkpt>
      <trkpt lat="45.09248" lon="3.91922">
        <ele>824.95</ele>
        <time>2026-03-05T15:14:08Z</time>
      </trkpt>
      <trkpt lat="45.09262" lon="3.91928">
        <ele>828.79</ele>
        <time>2026-03-05T15:14:26Z</time>
      </trkpt>
      <trkpt lat="45.09285" lon="3.91936">
        <ele>831.68</ele>
        <time>2026-03-05T15:14:48Z</time>
      </trkpt>
      <trkpt lat="45.09299" lon="3.91946">
        <ele>832.64</ele>
        <time>2026-03-05T15:15:06Z</time>
      </trkpt>
      <trkpt lat="45.09321" lon="3.9195">
        <ele>835.52</ele>
        <time>2026-03-05T15:15:23Z</time>
      </trkpt>
      <trkpt lat="45.0934" lon="3.9195">
        <ele>838.41</ele>
        <time>2026-03-05T15:15:41Z</time>
      </trkpt>
      <trkpt lat="45.09363" lon="3.9194">
        <ele>841.77</ele>
        <time>2026-03-05T15:16:00Z</time>
      </trkpt>
      <trkpt lat="45.09381" lon="3.91933">
        <ele>843.21</ele>
        <time>2026-03-05T15:16:17Z</time>
      </trkpt>
      <trkpt lat="45.09402" lon="3.9192">
        <ele>847.54</ele>
        <time>2026-03-05T15:16:36Z</time>
      </trkpt>
      <trkpt lat="45.09412" lon="3.91894">
        <ele>850.42</ele>
        <time>2026-03-05T15:16:56Z</time>
      </trkpt>
      <trkpt lat="45.09417" lon="3.91858">
        <ele>851.38</ele>
        <time>2026-03-05T15:17:12Z</time>
      </trkpt>
      <trkpt lat="45.0941" lon="3.91831">
        <ele>857.15</ele>
        <time>2026-03-05T15:17:29Z</time>
      </trkpt>
      <trkpt lat="45.09418" lon="3.9183">
        <ele>860.52</ele>
        <time>2026-03-05T15:17:47Z</time>
      </trkpt>
      <trkpt lat="45.09427" lon="3.91844">
        <ele>861.96</ele>
        <time>2026-03-05T15:18:03Z</time>
      </trkpt>
      <trkpt lat="45.09437" lon="3.91862">
        <ele>864.84</ele>
        <time>2026-03-05T15:18:21Z</time>
      </trkpt>
      <trkpt lat="45.09454" lon="3.91873">
        <ele>868.21</ele>
        <time>2026-03-05T15:18:38Z</time>
      </trkpt>
      <trkpt lat="45.09461" lon="3.91851">
        <ele>871.57</ele>
        <time>2026-03-05T15:18:58Z</time>
      </trkpt>
      <trkpt lat="45.09465" lon="3.91836">
        <ele>873.5</ele>
        <time>2026-03-05T15:19:12Z</time>
      </trkpt>
      <trkpt lat="45.09486" lon="3.91829">
        <ele>876.86</ele>
        <time>2026-03-05T15:19:30Z</time>
      </trkpt>
      <trkpt lat="45.095" lon="3.91826">
        <ele>879.74</ele>
        <time>2026-03-05T15:19:45Z</time>
      </trkpt>
      <trkpt lat="45.09522" lon="3.91826">
        <ele>879.26</ele>
        <time>2026-03-05T15:20:03Z</time>
      </trkpt>
      <trkpt lat="45.09541" lon="3.91815">
        <ele>881.19</ele>
        <time>2026-03-05T15:20:20Z</time>
      </trkpt>
      <trkpt lat="45.09554" lon="3.9182">
        <ele>883.11</ele>
        <time>2026-03-05T15:20:34Z</time>
      </trkpt>
      <trkpt lat="45.09572" lon="3.91824">
        <ele>883.59</ele>
        <time>2026-03-05T15:20:51Z</time>
      </trkpt>
      <trkpt lat="45.09594" lon="3.91824">
        <ele>887.91</ele>
        <time>2026-03-05T15:21:10Z</time>
      </trkpt>
      <trkpt lat="45.09605" lon="3.91821">
        <ele>887.91</ele>
        <time>2026-03-05T15:21:20Z</time>
      </trkpt>
      <trkpt lat="45.09627" lon="3.9181">
        <ele>891.76</ele>
        <time>2026-03-05T15:21:39Z</time>
      </trkpt>
      <trkpt lat="45.09638" lon="3.91792">
        <ele>894.16</ele>
        <time>2026-03-05T15:21:55Z</time>
      </trkpt>
      <trkpt lat="45.09643" lon="3.91764">
        <ele>894.64</ele>
        <time>2026-03-05T15:22:12Z</time>
      </trkpt>
      <trkpt lat="45.09643" lon="3.91745">
        <ele>896.57</ele>
        <time>2026-03-05T15:22:29Z</time>
      </trkpt>
      <trkpt lat="45.09644" lon="3.91732">
        <ele>902.33</ele>
        <time>2026-03-05T15:22:52Z</time>
      </trkpt>
      <trkpt lat="45.09646" lon="3.91727">
        <ele>902.33</ele>
        <time>2026-03-05T15:22:55Z</time>
      </trkpt>
      <trkpt lat="45.0965" lon="3.91696">
        <ele>900.41</ele>
        <time>2026-03-05T15:23:17Z</time>
      </trkpt>
      <trkpt lat="45.09639" lon="3.91683">
        <ele>898.97</ele>
        <time>2026-03-05T15:23:34Z</time>
      </trkpt>
      <trkpt lat="45.09641" lon="3.91679">
        <ele>895.61</ele>
        <time>2026-03-05T15:23:58Z</time>
      </trkpt>
      <trkpt lat="45.09646" lon="3.91686">
        <ele>895.61</ele>
        <time>2026-03-05T15:24:17Z</time>
      </trkpt>
      <trkpt lat="45.09647" lon="3.91682">
        <ele>897.53</ele>
        <time>2026-03-05T15:24:47Z</time>
      </trkpt>
      <trkpt lat="45.0965" lon="3.91677">
        <ele>899.93</ele>
        <time>2026-03-05T15:25:18Z</time>
      </trkpt>
      <trkpt lat="45.09651" lon="3.91678">
        <ele>902.82</ele>
        <time>2026-03-05T15:25:39Z</time>
      </trkpt>
      <trkpt lat="45.09647" lon="3.91668">
        <ele>909.06</ele>
        <time>2026-03-05T15:26:06Z</time>
      </trkpt>
      <trkpt lat="45.09651" lon="3.91664">
        <ele>911.95</ele>
        <time>2026-03-05T15:26:29Z</time>
      </trkpt>
      <trkpt lat="45.09657" lon="3.91647">
        <ele>910.99</ele>
        <time>2026-03-05T15:26:46Z</time>
      </trkpt>
      <trkpt lat="45.09671" lon="3.91623">
        <ele>903.78</ele>
        <time>2026-03-05T15:27:06Z</time>
      </trkpt>
      <trkpt lat="45.09689" lon="3.91604">
        <ele>898.01</ele>
        <time>2026-03-05T15:27:26Z</time>
      </trkpt>
      <trkpt lat="45.09692" lon="3.916">
        <ele>897.05</ele>
        <time>2026-03-05T15:27:30Z</time>
      </trkpt>
      <trkpt lat="45.09703" lon="3.91592">
        <ele>897.53</ele>
        <time>2026-03-05T15:27:45Z</time>
      </trkpt>
      <trkpt lat="45.09715" lon="3.91587">
        <ele>896.57</ele>
        <time>2026-03-05T15:27:58Z</time>
      </trkpt>
      <trkpt lat="45.09732" lon="3.91577">
        <ele>895.12</ele>
        <time>2026-03-05T15:28:12Z</time>
      </trkpt>
      <trkpt lat="45.09747" lon="3.91567">
        <ele>891.28</ele>
        <time>2026-03-05T15:28:26Z</time>
      </trkpt>
      <trkpt lat="45.09764" lon="3.91562">
        <ele>887.91</ele>
        <time>2026-03-05T15:28:41Z</time>
      </trkpt>
      <trkpt lat="45.09783" lon="3.91554">
        <ele>886.47</ele>
        <time>2026-03-05T15:28:56Z</time>
      </trkpt>
      <trkpt lat="45.09815" lon="3.9154">
        <ele>888.4</ele>
        <time>2026-03-05T15:29:20Z</time>
      </trkpt>
      <trkpt lat="45.09843" lon="3.9155">
        <ele>888.4</ele>
        <time>2026-03-05T15:29:43Z</time>
      </trkpt>
      <trkpt lat="45.09872" lon="3.91556">
        <ele>887.43</ele>
        <time>2026-03-05T15:30:04Z</time>
      </trkpt>
      <trkpt lat="45.09909" lon="3.91569">
        <ele>885.03</ele>
        <time>2026-03-05T15:30:29Z</time>
      </trkpt>
      <trkpt lat="45.09934" lon="3.91593">
        <ele>874.94</ele>
        <time>2026-03-05T15:30:52Z</time>
      </trkpt>
      <trkpt lat="45.0996" lon="3.91619">
        <ele>872.05</ele>
        <time>2026-03-05T15:31:14Z</time>
      </trkpt>
      <trkpt lat="45.09988" lon="3.91634">
        <ele>864.36</ele>
        <time>2026-03-05T15:31:36Z</time>
      </trkpt>
      <trkpt lat="45.10005" lon="3.91658">
        <ele>856.19</ele>
        <time>2026-03-05T15:31:58Z</time>
      </trkpt>
      <trkpt lat="45.10032" lon="3.91687">
        <ele>850.42</ele>
        <time>2026-03-05T15:32:21Z</time>
      </trkpt>
      <trkpt lat="45.10056" lon="3.91699">
        <ele>848.98</ele>
        <time>2026-03-05T15:32:40Z</time>
      </trkpt>
      <trkpt lat="45.10067" lon="3.91674">
        <ele>837.93</ele>
        <time>2026-03-05T15:33:01Z</time>
      </trkpt>
      <trkpt lat="45.10075" lon="3.91664">
        <ele>831.2</ele>
        <time>2026-03-05T15:33:21Z</time>
      </trkpt>
      <trkpt lat="45.10073" lon="3.91673">
        <ele>830.24</ele>
        <time>2026-03-05T15:33:52Z</time>
      </trkpt>
      <trkpt lat="45.10075" lon="3.91669">
        <ele>829.27</ele>
        <time>2026-03-05T15:34:20Z</time>
      </trkpt>
      <trkpt lat="45.1007" lon="3.91667">
        <ele>836.48</ele>
        <time>2026-03-05T15:34:43Z</time>
      </trkpt>
      <trkpt lat="45.1007" lon="3.9167">
        <ele>839.85</ele>
        <time>2026-03-05T15:35:08Z</time>
      </trkpt>
      <trkpt lat="45.10075" lon="3.91656">
        <ele>843.69</ele>
        <time>2026-03-05T15:35:34Z</time>
      </trkpt>
      <trkpt lat="45.10075" lon="3.91621">
        <ele>844.18</ele>
        <time>2026-03-05T15:35:55Z</time>
      </trkpt>
      <trkpt lat="45.10075" lon="3.91593">
        <ele>841.77</ele>
        <time>2026-03-05T15:36:15Z</time>
      </trkpt>
      <trkpt lat="45.10068" lon="3.91568">
        <ele>835.52</ele>
        <time>2026-03-05T15:36:38Z</time>
      </trkpt>
      <trkpt lat="45.10051" lon="3.91536">
        <ele>834.56</ele>
        <time>2026-03-05T15:36:59Z</time>
      </trkpt>
      <trkpt lat="45.10031" lon="3.91496">
        <ele>849.46</ele>
        <time>2026-03-05T15:37:24Z</time>
      </trkpt>
      <trkpt lat="45.10029" lon="3.91487">
        <ele>846.1</ele>
        <time>2026-03-05T15:37:44Z</time>
      </trkpt>
      <trkpt lat="45.10024" lon="3.91478">
        <ele>848.5</ele>
        <time>2026-03-05T15:38:07Z</time>
      </trkpt>
      <trkpt lat="45.10023" lon="3.91471">
        <ele>863.88</ele>
        <time>2026-03-05T15:38:34Z</time>
      </trkpt>
      <trkpt lat="45.10017" lon="3.91466">
        <ele>866.77</ele>
        <time>2026-03-05T15:38:55Z</time>
      </trkpt>
      <trkpt lat="45.10014" lon="3.91442">
        <ele>865.8</ele>
        <time>2026-03-05T15:39:12Z</time>
      </trkpt>
      <trkpt lat="45.10008" lon="3.91407">
        <ele>863.88</ele>
        <time>2026-03-05T15:39:33Z</time>
      </trkpt>
      <trkpt lat="45.1001" lon="3.91391">
        <ele>861.48</ele>
        <time>2026-03-05T15:39:43Z</time>
      </trkpt>
      <trkpt lat="45.10013" lon="3.91351">
        <ele>857.15</ele>
        <time>2026-03-05T15:40:07Z</time>
      </trkpt>
      <trkpt lat="45.10005" lon="3.91318">
        <ele>854.75</ele>
        <time>2026-03-05T15:40:28Z</time>
      </trkpt>
      <trkpt lat="45.09988" lon="3.91286">
        <ele>852.83</ele>
        <time>2026-03-05T15:40:51Z</time>
      </trkpt>
      <trkpt lat="45.09974" lon="3.91263">
        <ele>856.19</ele>
        <time>2026-03-05T15:41:08Z</time>
      </trkpt>
      <trkpt lat="45.09962" lon="3.91237">
        <ele>854.75</ele>
        <time>2026-03-05T15:41:26Z</time>
      </trkpt>
      <trkpt lat="45.09961" lon="3.91234">
        <ele>854.75</ele>
        <time>2026-03-05T15:41:28Z</time>
      </trkpt>
      <trkpt lat="45.09956" lon="3.91222">
        <ele>856.67</ele>
        <time>2026-03-05T15:41:44Z</time>
      </trkpt>
      <trkpt lat="45.09945" lon="3.91212">
        <ele>854.75</ele>
        <time>2026-03-05T15:41:57Z</time>
      </trkpt>
      <trkpt lat="45.09945" lon="3.91204">
        <ele>853.79</ele>
        <time>2026-03-05T15:42:04Z</time>
      </trkpt>
      <trkpt lat="45.09953" lon="3.91196">
        <ele>851.87</ele>
        <time>2026-03-05T15:42:18Z</time>
      </trkpt>
      <trkpt lat="45.09968" lon="3.91181">
        <ele>848.02</ele>
        <time>2026-03-05T15:42:34Z</time>
      </trkpt>
      <trkpt lat="45.09985" lon="3.91167">
        <ele>845.14</ele>
        <time>2026-03-05T15:42:51Z</time>
      </trkpt>
      <trkpt lat="45.09986" lon="3.9116">
        <ele>843.69</ele>
        <time>2026-03-05T15:43:00Z</time>
      </trkpt>
      <trkpt lat="45.0999" lon="3.91146">
        <ele>843.21</ele>
        <time>2026-03-05T15:43:14Z</time>
      </trkpt>
      <trkpt lat="45.1" lon="3.91125">
        <ele>838.89</ele>
        <time>2026-03-05T15:43:32Z</time>
      </trkpt>
      <trkpt lat="45.1" lon="3.91122">
        <ele>837.93</ele>
        <time>2026-03-05T15:43:34Z</time>
      </trkpt>
      <trkpt lat="45.10001" lon="3.91097">
        <ele>835.04</ele>
        <time>2026-03-05T15:43:48Z</time>
      </trkpt>
      <trkpt lat="45.09998" lon="3.91085">
        <ele>832.64</ele>
        <time>2026-03-05T15:43:57Z</time>
      </trkpt>
      <trkpt lat="45.09994" lon="3.9106">
        <ele>830.24</ele>
        <time>2026-03-05T15:44:15Z</time>
      </trkpt>
      <trkpt lat="45.09992" lon="3.91031">
        <ele>827.83</ele>
        <time>2026-03-05T15:44:34Z</time>
      </trkpt>
      <trkpt lat="45.09985" lon="3.91006">
        <ele>823.99</ele>
        <time>2026-03-05T15:44:50Z</time>
      </trkpt>
      <trkpt lat="45.09979" lon="3.90984">
        <ele>821.1</ele>
        <time>2026-03-05T15:45:06Z</time>
      </trkpt>
      <trkpt lat="45.09973" lon="3.90955">
        <ele>815.82</ele>
        <time>2026-03-05T15:45:23Z</time>
      </trkpt>
      <trkpt lat="45.09966" lon="3.90913">
        <ele>811.01</ele>
        <time>2026-03-05T15:45:46Z</time>
      </trkpt>
      <trkpt lat="45.09965" lon="3.90908">
        <ele>810.53</ele>
        <time>2026-03-05T15:45:49Z</time>
      </trkpt>
      <trkpt lat="45.09951" lon="3.90871">
        <ele>811.01</ele>
        <time>2026-03-05T15:46:09Z</time>
      </trkpt>
      <trkpt lat="45.09951" lon="3.90852">
        <ele>808.13</ele>
        <time>2026-03-05T15:46:25Z</time>
      </trkpt>
      <trkpt lat="45.09961" lon="3.90846">
        <ele>810.53</ele>
        <time>2026-03-05T15:46:41Z</time>
      </trkpt>
      <trkpt lat="45.0998" lon="3.90849">
        <ele>813.89</ele>
        <time>2026-03-05T15:47:00Z</time>
      </trkpt>
      <trkpt lat="45.09995" lon="3.90855">
        <ele>811.97</ele>
        <time>2026-03-05T15:47:18Z</time>
      </trkpt>
      <trkpt lat="45.10017" lon="3.90854">
        <ele>808.61</ele>
        <time>2026-03-05T15:47:37Z</time>
      </trkpt>
      <trkpt lat="45.10024" lon="3.90856">
        <ele>808.61</ele>
        <time>2026-03-05T15:47:41Z</time>
      </trkpt>
      <trkpt lat="45.10053" lon="3.90858">
        <ele>812.93</ele>
        <time>2026-03-05T15:48:00Z</time>
      </trkpt>
      <trkpt lat="45.10081" lon="3.90861">
        <ele>813.41</ele>
        <time>2026-03-05T15:48:22Z</time>
      </trkpt>
      <trkpt lat="45.10106" lon="3.90861">
        <ele>810.53</ele>
        <time>2026-03-05T15:48:45Z</time>
      </trkpt>
      <trkpt lat="45.10137" lon="3.90862">
        <ele>814.37</ele>
        <time>2026-03-05T15:49:08Z</time>
      </trkpt>
      <trkpt lat="45.10166" lon="3.90859">
        <ele>816.78</ele>
        <time>2026-03-05T15:49:33Z</time>
      </trkpt>
      <trkpt lat="45.1019" lon="3.90859">
        <ele>820.62</ele>
        <time>2026-03-05T15:49:51Z</time>
      </trkpt>
      <trkpt lat="45.10213" lon="3.90854">
        <ele>819.18</ele>
        <time>2026-03-05T15:50:14Z</time>
      </trkpt>
      <trkpt lat="45.10236" lon="3.90852">
        <ele>818.7</ele>
        <time>2026-03-05T15:50:34Z</time>
      </trkpt>
      <trkpt lat="45.10267" lon="3.90853">
        <ele>820.14</ele>
        <time>2026-03-05T15:50:56Z</time>
      </trkpt>
      <trkpt lat="45.10292" lon="3.90844">
        <ele>823.99</ele>
        <time>2026-03-05T15:51:16Z</time>
      </trkpt>
      <trkpt lat="45.1031" lon="3.90832">
        <ele>824.47</ele>
        <time>2026-03-05T15:51:32Z</time>
      </trkpt>
      <trkpt lat="45.10319" lon="3.90823">
        <ele>821.58</ele>
        <time>2026-03-05T15:51:42Z</time>
      </trkpt>
      <trkpt lat="45.10343" lon="3.90807">
        <ele>823.51</ele>
        <time>2026-03-05T15:51:59Z</time>
      </trkpt>
      <trkpt lat="45.10363" lon="3.90795">
        <ele>824.47</ele>
        <time>2026-03-05T15:52:15Z</time>
      </trkpt>
      <trkpt lat="45.10377" lon="3.90793">
        <ele>827.35</ele>
        <time>2026-03-05T15:52:29Z</time>
      </trkpt>
      <trkpt lat="45.10394" lon="3.90787">
        <ele>833.12</ele>
        <time>2026-03-05T15:52:44Z</time>
      </trkpt>
      <trkpt lat="45.10397" lon="3.90785">
        <ele>835.04</ele>
        <time>2026-03-05T15:52:47Z</time>
      </trkpt>
      <trkpt lat="45.10413" lon="3.90781">
        <ele>837.45</ele>
        <time>2026-03-05T15:53:03Z</time>
      </trkpt>
      <trkpt lat="45.1042" lon="3.9078">
        <ele>836.96</ele>
        <time>2026-03-05T15:53:08Z</time>
      </trkpt>
      <trkpt lat="45.10422" lon="3.90779">
        <ele>837.45</ele>
        <time>2026-03-05T15:53:09Z</time>
      </trkpt>
      <trkpt lat="45.10423" lon="3.90779">
        <ele>837.45</ele>
        <time>2026-03-05T15:53:10Z</time>
      </trkpt>
      <trkpt lat="45.10437" lon="3.90778">
        <ele>838.89</ele>
        <time>2026-03-05T15:53:22Z</time>
      </trkpt>
      <trkpt lat="45.10449" lon="3.90773">
        <ele>840.81</ele>
        <time>2026-03-05T15:53:31Z</time>
      </trkpt>
      <trkpt lat="45.10461" lon="3.90772">
        <ele>842.73</ele>
        <time>2026-03-05T15:53:43Z</time>
      </trkpt>
      <trkpt lat="45.10475" lon="3.90771">
        <ele>844.18</ele>
        <time>2026-03-05T15:53:53Z</time>
      </trkpt>
      <trkpt lat="45.1048" lon="3.90771">
        <ele>845.62</ele>
        <time>2026-03-05T15:53:59Z</time>
      </trkpt>
      <trkpt lat="45.1049" lon="3.90761">
        <ele>848.5</ele>
        <time>2026-03-05T15:54:09Z</time>
      </trkpt>
      <trkpt lat="45.10503" lon="3.90744">
        <ele>849.94</ele>
        <time>2026-03-05T15:54:26Z</time>
      </trkpt>
      <trkpt lat="45.10523" lon="3.90742">
        <ele>850.42</ele>
        <time>2026-03-05T15:54:43Z</time>
      </trkpt>
      <trkpt lat="45.10536" lon="3.90744">
        <ele>848.98</ele>
        <time>2026-03-05T15:54:53Z</time>
      </trkpt>
      <trkpt lat="45.1055" lon="3.90744">
        <ele>848.5</ele>
        <time>2026-03-05T15:55:01Z</time>
      </trkpt>
      <trkpt lat="45.10551" lon="3.90745">
        <ele>848.5</ele>
        <time>2026-03-05T15:55:02Z</time>
      </trkpt>
      <trkpt lat="45.10552" lon="3.90746">
        <ele>848.5</ele>
        <time>2026-03-05T15:55:03Z</time>
      </trkpt>
      <trkpt lat="45.10553" lon="3.90745">
        <ele>848.5</ele>
        <time>2026-03-05T15:55:04Z</time>
      </trkpt>
      <trkpt lat="45.10554" lon="3.90745">
        <ele>848.5</ele>
        <time>2026-03-05T15:55:05Z</time>
      </trkpt>
      <trkpt lat="45.10565" lon="3.90744">
        <ele>848.5</ele>
        <time>2026-03-05T15:55:23Z</time>
      </trkpt>
      <trkpt lat="45.10586" lon="3.90753">
        <ele>848.98</ele>
        <time>2026-03-05T15:55:45Z</time>
      </trkpt>
      <trkpt lat="45.106" lon="3.90756">
        <ele>848.98</ele>
        <time>2026-03-05T15:55:56Z</time>
      </trkpt>
      <trkpt lat="45.1062" lon="3.90757">
        <ele>849.46</ele>
        <time>2026-03-05T15:56:13Z</time>
      </trkpt>
      <trkpt lat="45.10642" lon="3.90754">
        <ele>850.42</ele>
        <time>2026-03-05T15:56:32Z</time>
      </trkpt>
      <trkpt lat="45.10662" lon="3.90757">
        <ele>850.9</ele>
        <time>2026-03-05T15:56:48Z</time>
      </trkpt>
      <trkpt lat="45.10692" lon="3.90766">
        <ele>852.35</ele>
        <time>2026-03-05T15:57:12Z</time>
      </trkpt>
      <trkpt lat="45.10715" lon="3.90777">
        <ele>853.31</ele>
        <time>2026-03-05T15:57:32Z</time>
      </trkpt>
      <trkpt lat="45.10738" lon="3.90797">
        <ele>852.83</ele>
        <time>2026-03-05T15:57:54Z</time>
      </trkpt>
      <trkpt lat="45.1076" lon="3.90817">
        <ele>853.79</ele>
        <time>2026-03-05T15:58:14Z</time>
      </trkpt>
      <trkpt lat="45.10785" lon="3.90838">
        <ele>852.83</ele>
        <time>2026-03-05T15:58:38Z</time>
      </trkpt>
      <trkpt lat="45.10813" lon="3.90861">
        <ele>850.9</ele>
        <time>2026-03-05T15:59:02Z</time>
      </trkpt>
      <trkpt lat="45.1082" lon="3.90863">
        <ele>850.42</ele>
        <time>2026-03-05T15:59:09Z</time>
      </trkpt>
      <trkpt lat="45.10852" lon="3.90854">
        <ele>847.06</ele>
        <time>2026-03-05T15:59:31Z</time>
      </trkpt>
      <trkpt lat="45.10867" lon="3.90864">
        <ele>845.14</ele>
        <time>2026-03-05T15:59:50Z</time>
      </trkpt>
      <trkpt lat="45.10865" lon="3.90906">
        <ele>840.33</ele>
        <time>2026-03-05T16:00:13Z</time>
      </trkpt>
      <trkpt lat="45.10866" lon="3.90911">
        <ele>840.33</ele>
        <time>2026-03-05T16:00:15Z</time>
      </trkpt>
      <trkpt lat="45.10883" lon="3.90923">
        <ele>836.96</ele>
        <time>2026-03-05T16:00:28Z</time>
      </trkpt>
      <trkpt lat="45.10891" lon="3.90918">
        <ele>834.56</ele>
        <time>2026-03-05T16:00:35Z</time>
      </trkpt>
      <trkpt lat="45.10908" lon="3.90893">
        <ele>832.64</ele>
        <time>2026-03-05T16:00:55Z</time>
      </trkpt>
      <trkpt lat="45.10924" lon="3.90865">
        <ele>828.31</ele>
        <time>2026-03-05T16:01:14Z</time>
      </trkpt>
      <trkpt lat="45.10937" lon="3.90835">
        <ele>825.43</ele>
        <time>2026-03-05T16:01:34Z</time>
      </trkpt>
      <trkpt lat="45.10953" lon="3.90803">
        <ele>824.47</ele>
        <time>2026-03-05T16:01:55Z</time>
      </trkpt>
      <trkpt lat="45.10969" lon="3.90772">
        <ele>823.51</ele>
        <time>2026-03-05T16:02:17Z</time>
      </trkpt>
      <trkpt lat="45.10996" lon="3.90744">
        <ele>823.03</ele>
        <time>2026-03-05T16:02:40Z</time>
      </trkpt>
      <trkpt lat="45.11015" lon="3.90728">
        <ele>819.18</ele>
        <time>2026-03-05T16:02:59Z</time>
      </trkpt>
      <trkpt lat="45.11032" lon="3.90708">
        <ele>813.41</ele>
        <time>2026-03-05T16:03:22Z</time>
      </trkpt>
      <trkpt lat="45.11044" lon="3.90678">
        <ele>813.41</ele>
        <time>2026-03-05T16:03:38Z</time>
      </trkpt>
      <trkpt lat="45.11066" lon="3.90668">
        <ele>811.97</ele>
        <time>2026-03-05T16:03:56Z</time>
      </trkpt>
      <trkpt lat="45.11088" lon="3.90655">
        <ele>808.13</ele>
        <time>2026-03-05T16:04:15Z</time>
      </trkpt>
      <trkpt lat="45.11103" lon="3.90626">
        <ele>806.2</ele>
        <time>2026-03-05T16:04:34Z</time>
      </trkpt>
      <trkpt lat="45.11119" lon="3.90605">
        <ele>800.44</ele>
        <time>2026-03-05T16:04:56Z</time>
      </trkpt>
      <trkpt lat="45.11138" lon="3.90577">
        <ele>795.15</ele>
        <time>2026-03-05T16:05:15Z</time>
      </trkpt>
      <trkpt lat="45.11161" lon="3.90545">
        <ele>788.42</ele>
        <time>2026-03-05T16:05:39Z</time>
      </trkpt>
      <trkpt lat="45.11173" lon="3.90513">
        <ele>779.29</ele>
        <time>2026-03-05T16:06:00Z</time>
      </trkpt>
      <trkpt lat="45.11184" lon="3.90477">
        <ele>776.88</ele>
        <time>2026-03-05T16:06:19Z</time>
      </trkpt>
      <trkpt lat="45.11194" lon="3.90452">
        <ele>772.56</ele>
        <time>2026-03-05T16:06:39Z</time>
      </trkpt>
      <trkpt lat="45.112" lon="3.90413">
        <ele>767.27</ele>
        <time>2026-03-05T16:06:59Z</time>
      </trkpt>
      <trkpt lat="45.11203" lon="3.90372">
        <ele>773.04</ele>
        <time>2026-03-05T16:07:20Z</time>
      </trkpt>
      <trkpt lat="45.11211" lon="3.90343">
        <ele>763.9</ele>
        <time>2026-03-05T16:07:42Z</time>
      </trkpt>
      <trkpt lat="45.11228" lon="3.90297">
        <ele>763.42</ele>
        <time>2026-03-05T16:08:04Z</time>
      </trkpt>
      <trkpt lat="45.11243" lon="3.9027">
        <ele>762.94</ele>
        <time>2026-03-05T16:08:23Z</time>
      </trkpt>
      <trkpt lat="45.11256" lon="3.90266">
        <ele>760.06</ele>
        <time>2026-03-05T16:08:38Z</time>
      </trkpt>
      <trkpt lat="45.11258" lon="3.90268">
        <ele>758.62</ele>
        <time>2026-03-05T16:09:07Z</time>
      </trkpt>
      <trkpt lat="45.11254" lon="3.90276">
        <ele>754.77</ele>
        <time>2026-03-05T16:09:25Z</time>
      </trkpt>
      <trkpt lat="45.11248" lon="3.90282">
        <ele>760.06</ele>
        <time>2026-03-05T16:09:30Z</time>
      </trkpt>
      <trkpt lat="45.11245" lon="3.90305">
        <ele>771.6</ele>
        <time>2026-03-05T16:09:47Z</time>
      </trkpt>
      <trkpt lat="45.11243" lon="3.9033">
        <ele>770.63</ele>
        <time>2026-03-05T16:10:01Z</time>
      </trkpt>
      <trkpt lat="45.11249" lon="3.90363">
        <ele>770.15</ele>
        <time>2026-03-05T16:10:20Z</time>
      </trkpt>
      <trkpt lat="45.11256" lon="3.90398">
        <ele>766.79</ele>
        <time>2026-03-05T16:10:42Z</time>
      </trkpt>
      <trkpt lat="45.11266" lon="3.90435">
        <ele>762.94</ele>
        <time>2026-03-05T16:11:01Z</time>
      </trkpt>
      <trkpt lat="45.11269" lon="3.90473">
        <ele>756.69</ele>
        <time>2026-03-05T16:11:23Z</time>
      </trkpt>
      <trkpt lat="45.11267" lon="3.90515">
        <ele>753.81</ele>
        <time>2026-03-05T16:11:44Z</time>
      </trkpt>
      <trkpt lat="45.11274" lon="3.9055">
        <ele>748.52</ele>
        <time>2026-03-05T16:12:06Z</time>
      </trkpt>
      <trkpt lat="45.11271" lon="3.90591">
        <ele>739.39</ele>
        <time>2026-03-05T16:12:27Z</time>
      </trkpt>
      <trkpt lat="45.1126" lon="3.9063">
        <ele>731.7</ele>
        <time>2026-03-05T16:12:48Z</time>
      </trkpt>
      <trkpt lat="45.11242" lon="3.90662">
        <ele>728.34</ele>
        <time>2026-03-05T16:13:06Z</time>
      </trkpt>
      <trkpt lat="45.11239" lon="3.90697">
        <ele>723.05</ele>
        <time>2026-03-05T16:13:28Z</time>
      </trkpt>
      <trkpt lat="45.11255" lon="3.90717">
        <ele>719.2</ele>
        <time>2026-03-05T16:13:47Z</time>
      </trkpt>
      <trkpt lat="45.11272" lon="3.90739">
        <ele>710.07</ele>
        <time>2026-03-05T16:14:10Z</time>
      </trkpt>
      <trkpt lat="45.11283" lon="3.90716">
        <ele>710.07</ele>
        <time>2026-03-05T16:14:30Z</time>
      </trkpt>
      <trkpt lat="45.11277" lon="3.90683">
        <ele>707.19</ele>
        <time>2026-03-05T16:14:51Z</time>
      </trkpt>
      <trkpt lat="45.11293" lon="3.90689">
        <ele>699.02</ele>
        <time>2026-03-05T16:15:15Z</time>
      </trkpt>
      <trkpt lat="45.11313" lon="3.90698">
        <ele>692.29</ele>
        <time>2026-03-05T16:15:37Z</time>
      </trkpt>
      <trkpt lat="45.11333" lon="3.90716">
        <ele>680.27</ele>
        <time>2026-03-05T16:16:03Z</time>
      </trkpt>
      <trkpt lat="45.11364" lon="3.90738">
        <ele>675.94</ele>
        <time>2026-03-05T16:16:29Z</time>
      </trkpt>
      <trkpt lat="45.11385" lon="3.90748">
        <ele>669.7</ele>
        <time>2026-03-05T16:16:50Z</time>
      </trkpt>
      <trkpt lat="45.11419" lon="3.90749">
        <ele>666.33</ele>
        <time>2026-03-05T16:17:12Z</time>
      </trkpt>
      <trkpt lat="45.11452" lon="3.90751">
        <ele>664.41</ele>
        <time>2026-03-05T16:17:33Z</time>
      </trkpt>
      <trkpt lat="45.11468" lon="3.9075">
        <ele>655.76</ele>
        <time>2026-03-05T16:17:52Z</time>
      </trkpt>
      <trkpt lat="45.11501" lon="3.90742">
        <ele>657.68</ele>
        <time>2026-03-05T16:18:12Z</time>
      </trkpt>
      <trkpt lat="45.11489" lon="3.90714">
        <ele>645.66</ele>
        <time>2026-03-05T16:18:39Z</time>
      </trkpt>
      <trkpt lat="45.11476" lon="3.90679">
        <ele>636.53</ele>
        <time>2026-03-05T16:19:01Z</time>
      </trkpt>
      <trkpt lat="45.11492" lon="3.90673">
        <ele>628.36</ele>
        <time>2026-03-05T16:19:19Z</time>
      </trkpt>
      <trkpt lat="45.11516" lon="3.9067">
        <ele>623.55</ele>
        <time>2026-03-05T16:19:45Z</time>
      </trkpt>
      <trkpt lat="45.11552" lon="3.90663">
        <ele>627.4</ele>
        <time>2026-03-05T16:20:08Z</time>
      </trkpt>
      <trkpt lat="45.11583" lon="3.90653">
        <ele>631.72</ele>
        <time>2026-03-05T16:20:29Z</time>
      </trkpt>
      <trkpt lat="45.11607" lon="3.90639">
        <ele>634.13</ele>
        <time>2026-03-05T16:20:50Z</time>
      </trkpt>
      <trkpt lat="45.11619" lon="3.90641">
        <ele>631.24</ele>
        <time>2026-03-05T16:21:02Z</time>
      </trkpt>
      <trkpt lat="45.11621" lon="3.90648">
        <ele>630.76</ele>
        <time>2026-03-05T16:21:06Z</time>
      </trkpt>
      <trkpt lat="45.1163" lon="3.90678">
        <ele>630.28</ele>
        <time>2026-03-05T16:21:27Z</time>
      </trkpt>
      <trkpt lat="45.11635" lon="3.90694">
        <ele>626.92</ele>
        <time>2026-03-05T16:21:49Z</time>
      </trkpt>
      <trkpt lat="45.11638" lon="3.90721">
        <ele>626.44</ele>
        <time>2026-03-05T16:22:11Z</time>
      </trkpt>
      <trkpt lat="45.11639" lon="3.90731">
        <ele>623.07</ele>
        <time>2026-03-05T16:22:30Z</time>
      </trkpt>
      <trkpt lat="45.11634" lon="3.90758">
        <ele>621.15</ele>
        <time>2026-03-05T16:22:50Z</time>
      </trkpt>
      <trkpt lat="45.11638" lon="3.90798">
        <ele>616.82</ele>
        <time>2026-03-05T16:23:14Z</time>
      </trkpt>
      <trkpt lat="45.11643" lon="3.90832">
        <ele>614.42</ele>
        <time>2026-03-05T16:23:33Z</time>
      </trkpt>
      <trkpt lat="45.11637" lon="3.90853">
        <ele>611.06</ele>
        <time>2026-03-05T16:23:46Z</time>
      </trkpt>
      <trkpt lat="45.11615" lon="3.90877">
        <ele>607.69</ele>
        <time>2026-03-05T16:24:06Z</time>
      </trkpt>
      <trkpt lat="45.11595" lon="3.90895">
        <ele>602.88</ele>
        <time>2026-03-05T16:24:25Z</time>
      </trkpt>
      <trkpt lat="45.11575" lon="3.90907">
        <ele>602.88</ele>
        <time>2026-03-05T16:24:44Z</time>
      </trkpt>
      <trkpt lat="45.11584" lon="3.90919">
        <ele>603.36</ele>
        <time>2026-03-05T16:25:00Z</time>
      </trkpt>
      <trkpt lat="45.11615" lon="3.90925">
        <ele>605.29</ele>
        <time>2026-03-05T16:25:21Z</time>
      </trkpt>
      <trkpt lat="45.11651" lon="3.90931">
        <ele>603.85</ele>
        <time>2026-03-05T16:25:41Z</time>
      </trkpt>
      <trkpt lat="45.11686" lon="3.90925">
        <ele>596.64</ele>
        <time>2026-03-05T16:26:06Z</time>
      </trkpt>
      <trkpt lat="45.11708" lon="3.90923">
        <ele>590.87</ele>
        <time>2026-03-05T16:26:24Z</time>
      </trkpt>
      <trkpt lat="45.11726" lon="3.90893">
        <ele>585.58</ele>
        <time>2026-03-05T16:26:44Z</time>
      </trkpt>
      <trkpt lat="45.11737" lon="3.90872">
        <ele>580.29</ele>
        <time>2026-03-05T16:26:59Z</time>
      </trkpt>
      <trkpt lat="45.11748" lon="3.90847">
        <ele>575.97</ele>
        <time>2026-03-05T16:27:16Z</time>
      </trkpt>
      <trkpt lat="45.11758" lon="3.90816">
        <ele>572.6</ele>
        <time>2026-03-05T16:27:34Z</time>
      </trkpt>
      <trkpt lat="45.11775" lon="3.90799">
        <ele>569.72</ele>
        <time>2026-03-05T16:27:51Z</time>
      </trkpt>
      <trkpt lat="45.11801" lon="3.90783">
        <ele>566.83</ele>
        <time>2026-03-05T16:28:12Z</time>
      </trkpt>
      <trkpt lat="45.11821" lon="3.90768">
        <ele>563.47</ele>
        <time>2026-03-05T16:28:31Z</time>
      </trkpt>
      <trkpt lat="45.11846" lon="3.90749">
        <ele>561.07</ele>
        <time>2026-03-05T16:28:52Z</time>
      </trkpt>
      <trkpt lat="45.11867" lon="3.90734">
        <ele>560.11</ele>
        <time>2026-03-05T16:29:10Z</time>
      </trkpt>
      <trkpt lat="45.11889" lon="3.90724">
        <ele>561.07</ele>
        <time>2026-03-05T16:29:26Z</time>
      </trkpt>
      <trkpt lat="45.11895" lon="3.90696">
        <ele>560.59</ele>
        <time>2026-03-05T16:29:44Z</time>
      </trkpt>
      <trkpt lat="45.11889" lon="3.90673">
        <ele>561.55</ele>
        <time>2026-03-05T16:30:02Z</time>
      </trkpt>
      <trkpt lat="45.11903" lon="3.90664">
        <ele>561.55</ele>
        <time>2026-03-05T16:30:18Z</time>
      </trkpt>
      <trkpt lat="45.11915" lon="3.9066">
        <ele>565.39</ele>
        <time>2026-03-05T16:30:39Z</time>
      </trkpt>
    </trkseg>
  </trk>
</gpx>